GFSSGP_850_spd_000.txt.gz
Wind_Speed
8 8 1 5 3 5 1 3 3 3 2 3 7 8 10 10 3 5 18 21 21 23 26 25 24 25 23 21 22 20 20 21 23 22 22 21 19 16 14 10 9 9 8 7 6 6 6 8 8
9 6 3 1 4 4 4 3 6 3 7 18 14 11 8 6 9 20 19 20 20 21 23 24 21 21 20 20 20 21 23 26 22 19 19 18 16 14 13 9 8 6 6 4 4 4 6 7 8
11 4 1 3 4 1 1 3 8 14 12 4 6 11 5 4 19 25 22 22 22 22 24 22 21 21 21 20 20 22 26 25 18 17 17 17 16 15 11 8 6 5 4 3 3 4 5 6 7
4 1 3 4 4 1 3 7 17 12 7 5 15 7 8 4 21 22 24 24 25 25 24 23 21 21 21 20 20 22 24 21 16 16 16 17 15 11 8 6 5 3 2 2 2 3 5 6 7
3 2 3 3 4 2 3 12 16 5 6 9 6 6 10 13 17 24 25 24 25 24 23 22 20 20 19 19 20 21 22 20 18 14 14 13 12 8 6 5 2 1 1 1 3 4 5 6 6
1 1 5 2 2 3 4 12 8 6 12 13 14 12 6 10 23 24 24 24 23 23 21 20 19 19 20 20 21 20 19 18 15 13 13 11 10 8 5 2 2 2 0 2 5 6 7 6 6
4 3 3 3 4 3 3 11 8 4 12 9 19 6 12 20 23 25 24 23 22 20 20 20 20 20 20 19 18 18 17 16 15 13 12 11 8 6 3 1 2 2 3 5 6 7 7 6 5
1 3 3 2 5 3 8 7 7 9 2 21 19 8 11 28 27 26 24 22 21 21 20 20 21 21 20 19 17 15 15 15 15 12 9 7 6 4 3 3 3 3 5 4 6 6 6 6 5
6 3 3 7 8 5 14 4 12 6 16 5 8 17 26 33 30 27 26 24 22 21 20 21 21 21 20 18 16 16 15 15 14 11 9 7 5 4 3 5 5 4 5 6 5 5 6 6 5
4 2 7 7 6 8 17 14 15 6 16 4 10 18 33 33 31 30 29 28 25 23 22 21 21 21 19 17 16 15 15 14 13 12 10 6 5 3 3 4 4 7 4 5 5 5 6 6 5
6 6 5 6 14 26 18 14 11 15 6 11 25 33 38 34 31 29 28 28 26 24 21 21 20 19 19 18 17 14 14 14 12 11 10 6 4 2 3 3 4 4 4 4 5 5 4 7 8
3 13 11 11 14 23 17 17 8 22 7 17 22 38 39 37 33 31 29 28 26 25 22 19 19 19 19 17 16 13 13 13 12 11 11 7 5 4 2 2 3 5 6 6 7 8 9 9 11
6 4 14 18 22 25 24 13 6 16 6 15 32 37 37 36 32 29 27 24 24 26 23 20 19 18 17 17 15 14 14 13 11 12 12 10 7 7 6 5 6 7 8 9 10 10 11 13 14
4 4 15 20 17 16 13 8 18 12 17 27 35 36 35 35 33 29 29 26 24 23 23 21 19 17 18 18 15 14 14 13 12 12 10 11 10 10 8 8 8 8 9 10 11 12 13 14 15
9 6 9 6 8 5 20 2 7 20 26 31 31 34 34 32 31 31 28 26 22 20 21 20 19 16 18 17 15 14 11 14 15 15 12 12 11 10 10 8 8 8 10 12 13 15 15 15 14
3 5 6 4 8 14 8 6 3 28 29 27 26 28 33 33 31 29 27 25 24 22 24 21 19 19 19 17 17 16 14 14 14 14 14 12 13 12 11 11 10 11 12 13 14 13 13 13 14
3 7 4 3 8 7 3 4 10 27 27 25 28 28 30 33 32 31 28 28 25 24 22 23 21 20 19 17 17 17 16 15 13 14 15 13 13 13 13 13 14 15 14 15 13 12 12 12 12
6 6 3 7 9 8 6 4 12 24 24 27 28 28 32 35 35 32 30 28 25 24 25 22 24 22 18 17 17 17 18 17 17 18 17 16 15 15 15 14 11 14 14 12 13 13 12 12 11
8 7 17 1 3 3 5 5 15 23 21 22 26 28 32 37 34 32 30 30 27 25 27 25 25 21 20 20 21 21 20 19 19 21 19 18 17 17 16 16 15 12 12 15 14 12 13 11 13
10 7 10 2 4 5 2 3 10 19 24 28 27 28 30 35 33 34 34 34 32 27 26 24 23 21 22 22 21 20 18 19 17 16 17 17 16 15 13 12 12 15 16 15 12 11 11 11 9
5 10 6 15 5 3 6 3 7 11 17 21 25 30 31 36 37 38 35 35 34 32 27 24 23 23 23 22 21 21 20 19 18 18 17 15 11 10 10 12 15 12 6 4 8 10 10 9 8
7 8 8 9 9 7 6 5 7 11 17 15 28 29 37 38 38 38 38 38 38 33 28 25 23 23 25 23 22 22 20 17 15 14 13 12 12 12 11 12 8 7 4 6 9 8 8 9 8
9 8 11 8 8 5 1 2 6 14 12 21 28 33 37 42 41 40 40 37 37 35 31 27 25 25 26 25 24 22 20 17 15 15 14 15 14 13 10 8 6 6 6 8 9 7 7 7 7
9 7 6 4 4 2 9 9 5 7 24 25 26 33 38 39 43 40 38 38 38 35 32 29 28 27 27 27 26 24 21 19 17 15 14 13 15 13 11 10 9 7 6 9 5 4 4 5 5
6 6 2 2 2 6 3 4 12 11 16 24 23 39 40 43 43 44 43 42 40 40 34 32 32 32 31 29 28 26 23 20 17 14 14 14 14 14 11 10 10 7 8 5 4 3 4 3 3
6 9 6 6 5 5 4 8 10 20 19 20 20 34 33 37 43 47 46 45 41 39 37 36 37 36 35 33 30 27 24 21 17 16 16 15 15 12 11 9 10 10 9 9 10 8 8 8 6
4 4 7 7 2 2 5 8 9 6 7 12 25 28 36 41 47 47 48 47 45 42 41 40 40 39 38 36 33 30 26 22 19 17 17 17 15 14 11 12 11 11 10 12 13 12 11 10 11
10 9 3 3 5 5 5 4 6 5 11 9 8 26 36 41 39 46 47 49 49 45 44 43 42 42 42 40 38 34 31 25 20 19 19 17 15 15 15 15 13 13 12 12 13 14 12 12 13
3 4 5 6 5 7 4 6 9 10 12 12 14 33 37 41 40 44 49 50 50 49 49 48 45 45 45 44 43 40 36 32 26 23 21 20 17 17 17 16 15 15 13 12 12 11 11 13 13
11 11 9 7 6 3 4 7 5 12 6 12 19 28 29 36 41 44 44 46 48 50 52 53 49 48 48 47 46 45 41 37 33 28 24 20 19 17 17 16 16 16 15 12 11 10 9 10 11

GFSSGP_850_spd_003.txt.gz
Wind_Speed
5 2 6 3 1 3 5 5 5 7 4 4 5 8 9 7 3 7 20 22 24 25 25 25 28 23 21 21 20 20 22 23 21 21 21 20 18 14 11 9 9 8 7 8 7 8 9 11 10
9 4 2 3 4 6 4 3 10 5 11 16 12 9 7 5 9 18 24 27 24 27 27 26 24 23 20 19 19 21 21 21 19 20 19 18 14 10 7 6 7 6 6 5 4 6 8 10 11
3 2 1 2 3 6 4 6 10 16 9 4 6 9 5 8 15 21 21 24 25 25 24 23 21 19 17 18 19 21 23 21 18 18 18 15 12 9 6 5 5 5 3 3 4 6 8 9 10
3 1 2 4 8 5 4 10 18 13 8 6 13 10 8 7 14 20 24 23 22 23 22 19 18 17 16 16 19 24 23 18 16 16 15 14 13 9 5 4 4 3 3 3 4 6 7 8 9
3 1 3 4 6 5 10 14 10 5 7 10 7 8 11 8 15 22 23 23 23 23 21 19 17 16 15 17 20 24 20 14 14 14 14 14 10 6 4 2 2 4 4 4 6 8 9 8 8
3 2 2 4 5 7 9 15 9 4 9 12 17 16 9 7 20 23 23 23 23 23 21 18 17 15 16 18 20 21 18 14 13 12 12 10 7 4 3 1 4 4 3 5 7 8 8 8 7
2 2 2 5 7 6 6 13 6 8 9 8 20 9 9 17 23 24 24 22 23 22 20 18 17 16 16 17 18 18 16 14 12 11 11 9 7 4 2 1 4 3 4 6 6 6 7 7 6
2 1 4 3 8 5 11 11 9 10 5 17 14 7 12 24 25 24 23 19 21 20 18 18 17 17 17 17 16 15 14 14 13 12 10 7 5 4 2 2 5 3 4 5 6 6 7 7 6
2 2 5 7 9 8 16 9 8 7 14 8 11 9 16 28 27 24 21 19 19 19 18 18 18 18 17 16 15 15 15 14 14 11 8 6 4 3 3 3 5 5 4 5 6 5 6 7 6
5 3 5 7 10 10 18 14 15 6 14 8 6 11 25 29 27 26 25 22 20 19 20 19 19 19 18 17 17 16 16 17 16 12 9 7 5 4 4 4 4 5 3 4 6 6 5 7 7
5 8 4 4 10 18 19 14 13 8 13 14 18 23 32 30 28 27 25 24 23 21 20 20 19 19 19 18 16 15 16 15 14 12 10 9 6 3 2 1 3 3 4 4 5 5 6 8 9
8 9 9 7 13 20 20 18 12 16 7 14 18 28 32 31 29 27 25 24 23 23 21 21 21 21 20 17 16 14 15 14 13 12 12 11 7 3 2 2 2 3 4 4 6 9 9 11 12
9 10 11 12 19 18 21 20 12 16 7 10 20 29 32 29 27 25 24 24 25 25 22 22 23 21 20 19 18 16 15 15 14 14 13 12 8 6 6 7 5 6 7 8 8 10 10 13 13
6 7 6 13 15 16 17 10 11 10 9 15 24 31 29 28 27 24 23 23 25 25 24 21 19 18 18 19 18 17 16 15 15 14 13 13 12 10 9 9 8 8 8 8 10 12 13 14 16
6 4 8 9 19 8 19 7 14 11 14 17 23 28 27 26 25 25 24 23 23 23 23 22 20 19 20 20 18 16 14 15 16 14 12 11 11 10 10 10 8 8 8 10 13 14 15 15 14
4 5 6 9 16 11 17 13 13 16 21 21 25 26 25 26 25 25 24 24 22 21 23 22 22 19 19 20 18 16 15 14 16 17 16 16 13 12 10 11 10 9 11 13 15 13 14 14 13
4 8 9 10 13 9 14 6 11 20 22 22 25 26 25 24 25 25 25 25 25 21 21 23 22 21 19 18 18 18 16 16 15 16 16 15 14 13 13 12 10 13 15 15 15 14 12 13 11
12 9 8 10 12 9 13 8 8 17 22 23 24 24 26 27 29 25 26 26 26 23 22 23 25 22 20 19 18 18 18 18 17 17 16 15 16 14 13 14 13 13 14 15 14 14 12 10 11
14 14 14 9 11 12 13 12 6 15 20 22 23 24 26 29 26 25 26 26 27 27 26 26 26 25 22 21 21 21 21 20 19 18 17 17 16 15 14 14 15 15 14 14 15 12 11 9 11
13 17 16 7 11 12 9 14 9 17 24 25 24 25 26 25 25 27 28 28 29 29 28 28 28 24 26 25 23 23 20 18 17 16 16 16 17 16 16 15 14 13 14 13 10 8 8 9 8
12 17 15 15 9 3 6 12 10 12 21 22 25 26 26 27 28 28 29 30 30 31 30 28 26 24 25 26 26 23 20 20 18 19 19 17 17 15 13 12 13 15 10 5 5 8 7 4 6
19 15 15 15 12 13 11 12 11 16 17 20 28 30 29 28 27 27 28 32 32 30 29 29 25 24 26 27 27 26 24 20 17 19 18 17 14 14 13 12 13 10 7 6 6 7 5 5 4
11 9 16 15 16 8 9 6 11 8 16 23 31 34 34 32 31 30 30 32 33 31 30 29 27 26 27 28 28 26 24 21 18 17 16 15 14 13 12 11 10 7 8 7 7 6 6 6 6
10 10 5 5 9 10 15 13 10 9 15 24 28 34 36 34 32 31 31 32 33 32 30 31 30 28 29 28 28 28 26 23 21 19 16 16 16 17 15 12 10 8 8 7 7 6 5 5 5
14 11 6 8 7 9 7 11 17 11 19 23 20 36 39 36 33 33 33 35 37 37 34 33 33 32 31 31 30 30 28 24 21 19 18 17 17 16 14 12 11 11 9 8 6 5 3 3 3
21 21 12 15 10 12 5 11 8 16 22 20 20 22 31 36 36 36 38 40 39 38 36 35 34 34 34 34 33 31 29 27 24 23 20 18 18 15 13 13 12 12 11 9 8 6 7 8 7
11 14 18 18 1 6 6 6 10 13 14 12 21 20 29 36 41 42 41 42 42 39 36 37 37 36 37 38 35 34 32 31 30 26 23 20 19 18 16 15 12 12 12 11 11 11 11 11 11
13 13 11 7 19 19 9 6 8 6 12 12 12 24 32 34 37 39 43 47 44 40 37 36 37 38 39 40 37 36 35 33 30 26 24 21 19 19 18 16 15 14 12 12 14 13 14 13 12
11 11 4 6 8 15 15 14 8 14 15 13 15 26 28 32 38 41 42 48 46 43 43 41 39 38 40 41 42 41 39 35 31 29 24 21 22 18 20 18 16 16 14 13 13 13 14 13 13
21 21 20 13 12 6 9 13 4 15 16 15 18 16 19 28 36 35 34 36 40 46 45 46 44 42 40 42 44 45 44 39 33 34 28 19 19 21 19 19 18 17 16 15 14 14 14 15 12

GFSSGP_850_spd_006.txt.gz
Wind_Speed
5 6 5 6 6 4 12 7 9 8 8 10 8 5 9 9 3 7 19 16 19 17 20 26 22 19 20 20 20 21 22 20 21 21 20 17 16 13 12 11 9 9 8 7 9 10 11 12 12
9 8 3 9 3 5 8 7 10 11 15 15 12 8 6 5 9 23 22 20 18 20 20 20 18 18 18 18 19 21 20 19 19 19 18 15 12 10 9 8 7 7 6 7 8 8 10 11 11
9 7 8 4 4 9 11 8 11 14 12 5 5 10 6 13 21 20 23 22 21 21 19 18 18 17 16 17 18 19 18 18 18 18 16 13 9 7 7 6 6 5 5 5 6 9 10 10 11
5 4 7 4 12 7 11 10 14 12 8 3 10 12 14 18 16 19 23 21 19 18 15 20 17 15 14 16 18 19 18 16 17 16 14 11 9 7 6 5 4 5 5 5 7 9 9 9 10
4 5 3 9 12 10 10 13 10 6 7 9 12 12 16 10 14 22 21 19 18 17 14 15 15 14 15 18 21 21 17 16 15 15 13 12 9 6 5 2 4 6 5 6 8 9 8 8 7
10 6 4 10 12 9 8 11 7 5 9 9 16 19 13 13 20 20 19 19 18 18 15 13 15 15 17 20 23 19 15 14 14 13 13 10 6 4 2 2 5 6 5 7 8 8 8 7 6
7 5 5 9 10 9 9 10 5 8 11 10 21 14 14 18 19 20 20 18 18 17 15 14 13 15 17 19 20 19 13 12 10 11 10 8 5 3 2 3 5 4 5 5 6 6 6 7 6
5 5 4 2 6 12 11 11 8 9 8 17 12 7 17 23 22 22 21 19 18 17 15 15 14 14 14 17 19 16 14 12 10 10 9 7 4 2 1 3 4 4 4 5 5 5 6 6 6
4 6 4 6 4 11 15 10 9 7 14 9 12 9 21 26 24 24 21 20 18 17 16 14 13 14 15 14 15 15 13 12 11 10 7 5 3 3 3 5 5 4 4 4 5 5 6 7 11
8 7 5 4 1 13 17 12 15 10 14 11 12 11 26 27 26 26 24 22 20 18 17 16 15 14 14 12 12 11 11 10 10 8 7 4 5 4 2 5 3 4 3 4 5 5 6 9 4
7 11 6 2 1 12 20 14 13 11 12 14 18 19 29 28 27 25 23 21 21 19 17 16 16 15 14 13 11 11 11 11 11 11 8 7 5 4 3 3 2 2 4 2 4 4 4 5 5
10 11 11 8 7 12 18 18 13 12 4 14 16 23 31 29 27 26 23 22 21 20 19 17 17 16 15 13 12 12 12 12 11 10 11 10 5 6 4 3 3 3 4 3 4 5 6 7 9
12 12 10 11 9 12 16 17 11 14 9 13 18 24 30 28 26 25 23 21 21 20 19 19 18 17 16 15 13 13 13 12 11 11 11 10 9 10 6 7 6 5 6 6 6 7 7 8 9
5 8 10 11 10 13 14 12 13 14 14 14 21 26 28 28 27 25 24 23 22 21 20 19 19 18 17 17 16 15 13 12 12 12 11 13 10 12 7 8 7 7 6 6 5 8 8 9 10
10 11 5 9 13 10 15 11 14 13 16 15 21 23 27 27 26 26 25 24 23 22 21 21 19 19 18 18 16 15 13 13 13 12 13 13 12 12 10 9 8 7 8 9 8 9 9 10 11
14 13 12 10 16 10 16 12 16 17 19 17 20 23 27 27 26 25 25 24 24 22 23 22 20 19 19 18 17 16 14 14 13 12 12 13 12 11 10 10 9 10 11 10 9 8 9 11 11
15 14 13 11 15 7 16 6 16 17 19 18 19 24 26 25 26 26 25 25 24 23 22 23 23 21 21 20 17 17 16 17 16 13 15 15 14 13 10 11 9 11 10 12 9 8 11 10 10
18 17 11 13 15 12 17 9 6 15 19 19 21 23 25 27 29 27 26 24 23 22 21 22 22 21 21 20 19 18 17 14 13 12 15 13 12 10 12 10 11 11 10 8 9 10 9 9 8
18 15 13 15 14 17 15 13 11 12 17 19 21 24 25 27 25 26 25 25 24 23 22 22 23 22 21 18 17 16 16 15 15 15 15 12 13 13 14 10 10 9 8 8 9 9 9 5 7
21 18 17 14 9 15 12 14 12 13 18 21 24 25 26 25 25 27 27 27 27 26 24 23 24 24 24 19 18 17 14 13 13 12 14 14 12 13 10 10 8 11 7 9 6 5 4 5 5
23 21 18 16 11 15 11 14 14 16 17 20 23 26 27 28 28 29 30 29 28 28 27 25 25 25 24 24 20 16 16 15 12 13 11 10 11 10 10 10 8 9 8 6 3 4 5 3 4
24 23 18 14 12 13 16 12 14 15 15 17 25 28 29 30 29 29 30 31 30 29 27 26 25 25 25 24 22 21 15 14 13 12 11 12 10 10 10 8 8 10 5 6 3 4 3 2 3
24 22 19 18 15 18 15 11 13 6 14 19 26 31 33 33 32 31 31 31 31 29 28 27 27 27 25 24 24 22 19 16 14 12 13 13 13 11 11 10 10 8 5 7 5 3 3 4 4
20 18 13 17 15 18 23 15 15 12 14 16 19 29 33 33 32 31 31 30 32 31 29 27 28 29 28 27 24 25 20 19 16 16 13 12 12 12 13 12 12 8 7 7 5 6 5 4 5
22 18 11 15 15 15 19 19 16 11 12 15 16 21 30 33 32 32 33 33 33 34 31 30 30 31 30 30 27 25 24 23 20 18 15 14 13 12 14 15 13 8 8 7 6 7 6 4 3
28 26 16 24 15 14 21 17 18 18 21 26 19 17 23 33 36 37 36 36 35 34 34 32 31 34 33 32 31 29 27 23 21 19 17 16 14 13 12 12 13 10 10 9 8 7 6 7 6
29 26 26 25 20 16 18 14 22 16 15 18 17 16 21 30 37 37 37 37 36 35 36 37 37 35 34 32 32 32 30 28 22 20 18 17 15 13 14 13 13 10 11 11 10 9 9 9 8
29 22 24 21 26 24 20 19 12 18 18 17 14 18 22 26 32 38 40 40 38 36 36 36 37 38 34 33 34 34 31 30 27 23 25 23 18 16 15 15 14 12 11 12 12 11 11 11 10
21 24 21 23 23 20 18 19 17 16 16 16 14 17 20 23 30 35 41 40 38 36 36 35 34 34 35 34 37 36 31 29 30 29 28 22 20 17 16 15 16 13 13 14 15 14 13 12 11
26 26 26 18 27 21 22 20 16 14 18 24 26 21 14 17 25 31 34 36 39 39 37 36 34 33 33 37 39 36 32 32 32 32 32 29 26 20 15 11 14 16 15 15 17 16 13 13 13

GFSSGP_850_spd_009.txt.gz
Wind_Speed
9 13 18 10 3 4 2 6 5 6 11 13 6 9 12 13 6 11 18 21 20 20 23 24 23 23 22 23 22 22 21 22 21 19 17 17 15 14 13 11 10 10 10 10 10 12 13 13 13
14 14 18 11 0 3 4 10 14 14 16 12 11 15 11 9 16 22 22 20 21 22 21 19 20 20 20 20 20 20 20 20 19 17 16 14 12 11 10 10 9 9 10 10 11 11 12 12 12
13 13 15 6 9 7 10 11 16 15 11 10 8 11 12 21 25 22 24 23 25 23 20 17 19 19 18 20 21 20 19 20 18 15 14 10 8 8 8 9 9 9 9 9 9 10 11 10 11
9 12 14 6 10 14 15 15 13 10 10 10 21 15 28 23 24 26 27 24 23 21 17 18 18 16 16 18 19 18 17 16 16 14 12 7 6 6 7 8 8 8 7 8 9 10 9 9 9
12 19 13 9 12 10 13 11 10 10 12 11 25 24 23 17 25 25 24 22 21 18 15 16 15 15 16 18 18 16 15 15 15 13 9 7 6 5 6 7 7 7 7 7 8 9 9 8 8
14 8 7 13 12 9 9 7 6 14 13 10 23 23 18 21 25 23 21 19 18 17 16 13 15 15 17 18 19 17 15 14 13 11 10 8 5 5 5 6 7 6 6 7 8 8 8 8 7
13 14 10 16 10 10 10 8 8 11 12 16 23 18 19 23 22 22 20 18 17 16 16 13 13 16 18 20 19 16 14 13 12 12 10 6 4 3 3 6 7 6 6 6 7 7 7 8 8
18 8 7 14 10 13 12 7 9 12 13 20 18 13 23 25 24 21 20 18 16 14 17 14 12 13 14 18 18 13 11 11 10 9 8 6 3 2 5 5 4 5 5 5 6 5 7 10 12
13 6 3 7 18 15 13 13 9 12 17 14 6 19 25 27 25 22 23 19 18 17 15 15 14 13 13 12 14 13 11 10 9 8 7 5 1 5 5 7 8 6 5 4 6 6 11 10 12
8 7 8 9 21 17 11 14 14 13 16 15 10 23 27 27 26 25 22 22 20 17 17 16 14 15 15 12 13 11 9 7 7 6 6 3 4 4 2 7 8 7 5 4 8 10 9 10 9
15 14 20 10 7 13 14 12 13 14 13 18 17 24 28 27 25 24 21 21 20 18 17 16 18 15 15 15 9 9 8 9 8 9 8 5 3 4 6 7 5 7 9 8 8 6 9 7 6
13 8 8 2 10 4 13 15 11 9 15 17 18 23 28 28 26 24 22 21 20 19 17 18 13 16 17 15 12 11 11 10 9 9 11 9 5 6 6 4 4 7 0 6 3 7 9 6 8
11 11 6 6 9 9 15 15 12 10 10 16 19 24 28 27 25 23 21 20 20 20 19 18 18 17 15 14 12 11 11 11 10 9 10 8 8 10 7 7 7 8 6 6 6 7 7 8 9
13 13 11 6 11 11 10 15 12 15 12 18 21 25 26 26 26 24 24 22 22 21 21 19 18 17 19 14 12 12 12 10 11 10 10 11 9 11 9 10 7 6 7 8 5 9 8 8 9
15 12 14 10 9 11 14 14 14 21 16 20 21 23 25 26 26 26 25 24 23 22 21 20 19 17 17 17 16 14 13 12 12 11 11 11 11 11 11 8 8 8 13 11 9 6 10 11 9
18 18 16 14 13 13 17 17 17 18 21 20 21 23 25 26 26 25 25 25 24 23 23 21 18 18 18 19 15 14 13 13 12 11 13 11 13 10 8 10 6 10 6 10 10 9 8 8 9
18 17 21 13 16 14 16 9 17 19 21 20 22 23 25 26 26 26 26 26 25 24 23 23 21 20 19 17 16 15 15 14 17 13 12 12 10 12 10 10 11 12 8 11 9 6 8 9 8
19 21 20 20 17 13 16 6 18 19 20 20 22 23 25 27 28 27 27 26 25 24 24 24 24 23 21 20 22 16 16 14 14 13 12 13 15 13 12 10 12 10 10 8 7 5 9 8 5
23 21 19 15 24 19 18 15 15 16 17 19 24 24 26 27 26 26 26 26 26 25 25 25 25 25 24 22 22 17 16 14 13 13 12 15 14 10 16 8 10 7 8 7 11 8 7 6 3
28 23 19 14 17 21 18 19 19 19 16 18 22 26 27 28 27 27 28 28 28 28 27 27 26 27 26 21 19 18 16 15 14 14 16 12 13 10 12 9 8 11 6 8 6 5 3 4 4
25 25 19 17 27 22 16 17 17 15 23 19 20 23 28 30 30 30 30 30 30 30 31 30 29 28 27 24 19 20 15 16 11 13 12 14 14 13 12 11 8 7 9 6 4 2 4 2 3
25 25 24 19 12 12 19 15 21 19 20 19 23 25 27 30 31 31 32 32 32 31 30 30 30 31 28 28 22 21 18 17 15 13 13 12 9 9 10 7 8 8 4 8 3 3 4 3 2
26 24 24 23 17 23 24 17 11 21 21 21 21 26 28 30 32 33 34 34 32 31 31 31 32 31 29 27 26 23 20 16 14 13 11 15 11 12 11 10 8 5 3 8 7 4 4 4 3
24 23 24 23 18 18 22 17 19 16 18 17 23 28 28 29 31 32 33 32 33 32 32 31 33 34 31 29 27 28 22 21 16 17 14 12 13 9 12 11 10 7 5 7 4 6 6 6 7
29 24 16 19 18 19 21 19 20 16 16 18 17 24 30 31 31 34 36 36 36 37 35 34 35 36 32 30 26 26 26 20 21 15 19 13 13 12 14 13 11 7 7 7 6 7 6 5 3
32 28 20 24 18 18 23 23 22 18 13 14 17 16 18 29 32 35 38 38 39 38 38 36 36 35 34 31 30 29 27 24 23 23 17 16 13 12 15 16 14 12 10 8 8 6 5 6 6
30 29 28 27 24 20 21 26 23 10 17 18 19 23 15 24 31 37 38 38 38 39 41 41 37 37 35 31 31 31 29 28 25 23 22 18 18 17 18 16 15 13 11 10 10 7 10 10 9
34 24 27 22 28 26 24 23 18 21 19 18 14 21 17 20 27 35 37 37 37 38 39 40 39 37 35 32 31 29 30 30 30 27 26 23 23 24 20 21 17 16 15 13 11 11 10 11 10
20 27 23 26 24 21 20 19 20 15 14 19 21 28 22 19 25 31 36 38 39 37 38 40 40 38 37 35 32 31 31 30 30 33 32 31 29 25 24 26 20 19 17 12 9 12 14 11 11
29 28 32 19 29 21 22 19 13 16 19 16 17 18 20 21 25 27 33 36 38 40 39 39 38 37 36 34 35 37 35 33 33 33 34 33 35 32 30 28 25 25 17 14 12 11 14 14 14

GFSSGP_850_spd_012.txt.gz
Wind_Speed
14 12 15 7 4 3 4 6 7 5 12 13 13 14 14 9 6 13 20 23 22 20 24 22 23 25 25 24 25 25 24 22 20 19 17 17 16 14 14 12 12 12 12 12 13 13 14 13 12
15 16 16 15 3 2 6 6 6 15 17 19 22 20 16 19 23 24 25 23 23 22 20 22 23 22 22 23 23 23 22 20 18 17 16 15 14 13 12 11 11 10 10 11 12 12 12 11 11
16 19 8 4 6 3 11 12 15 20 14 16 8 4 8 22 23 23 29 27 25 23 19 22 21 21 22 22 21 20 20 19 17 15 13 11 11 11 10 10 9 9 9 10 11 12 11 10 10
11 16 15 10 15 10 15 14 17 19 23 21 24 18 27 23 28 28 30 30 25 20 16 21 20 20 20 21 20 18 18 17 15 13 10 8 8 8 8 8 9 8 9 10 10 11 11 10 10
13 6 7 6 19 9 14 21 16 13 26 25 33 26 27 26 29 30 28 25 24 19 17 20 18 18 19 20 19 17 16 16 14 11 8 7 6 6 6 8 8 8 9 10 10 11 10 10 11
9 6 11 8 8 11 13 15 16 26 21 31 29 28 26 29 31 28 26 24 20 19 18 18 17 18 19 19 18 16 16 15 13 10 8 7 5 5 7 9 7 8 9 10 10 10 11 11 12
7 9 9 9 9 11 7 14 11 21 31 24 30 20 30 27 27 27 22 21 19 19 15 16 17 19 19 19 17 15 15 15 13 11 10 6 3 5 6 8 8 8 9 10 10 11 11 13 15
30 12 11 2 6 13 6 19 11 14 25 27 28 17 21 28 30 25 20 20 20 20 16 14 15 19 20 19 17 15 15 14 12 11 8 4 4 5 6 7 9 9 7 9 10 10 11 13 16
24 7 5 7 9 13 11 12 15 20 22 24 4 30 30 29 24 24 24 19 20 18 17 16 16 14 16 19 17 14 13 12 11 9 6 5 5 4 6 7 11 9 8 9 12 10 11 10 11
5 6 7 19 6 10 15 16 13 13 15 15 28 29 30 30 29 23 22 20 21 21 17 23 16 15 11 13 15 12 10 8 8 6 4 1 3 4 7 6 6 4 5 5 10 7 8 12 12
14 9 18 23 21 16 9 19 13 20 12 17 34 31 30 32 30 25 23 22 22 21 18 22 14 19 17 18 8 7 5 4 4 2 3 3 7 1 10 4 6 1 8 3 7 6 8 8 6
10 21 24 8 19 19 14 20 13 17 17 23 26 28 30 29 30 26 26 24 24 27 23 18 16 19 15 18 6 7 8 6 7 8 9 9 1 2 6 4 4 7 2 10 10 8 8 9 8
16 21 17 6 9 11 10 17 16 10 23 23 25 29 30 28 26 26 22 24 25 22 23 18 16 20 18 15 12 13 15 9 10 11 10 8 4 9 6 6 5 7 9 9 6 6 5 9 11
20 13 14 13 9 14 18 18 18 15 20 25 27 30 30 28 26 26 25 24 27 22 22 21 19 21 21 19 16 11 16 10 11 9 13 10 8 10 8 9 7 6 7 8 6 8 6 6 6
26 19 9 11 11 9 13 17 12 23 19 24 25 28 29 28 27 26 24 25 24 23 23 24 21 18 21 19 18 18 12 10 10 9 14 15 14 14 12 6 7 7 9 11 10 7 9 6 10
22 20 16 18 17 11 15 11 12 26 20 23 25 27 29 28 28 27 25 24 24 24 25 23 19 20 15 21 17 21 15 14 13 11 18 13 14 12 12 4 9 3 12 5 9 7 9 7 6
21 18 21 21 13 17 14 16 5 18 22 25 26 27 28 28 28 28 27 26 26 25 27 26 22 22 18 18 21 16 16 14 14 17 8 16 14 11 6 6 10 5 12 10 9 6 4 4 5
19 21 19 18 18 18 19 12 13 24 15 24 27 27 28 29 30 30 28 28 27 28 28 28 26 23 24 21 13 15 11 15 16 15 16 14 13 12 12 7 10 13 9 6 10 2 6 5 5
22 20 22 15 10 17 22 13 10 38 32 25 27 28 29 29 29 30 29 29 29 29 30 31 31 28 21 22 22 22 18 16 13 12 11 14 14 13 14 12 11 7 5 9 8 10 11 1 4
27 26 24 14 21 20 19 26 31 31 31 28 29 28 29 29 30 30 31 30 31 31 32 32 33 32 32 25 23 23 17 16 15 15 17 16 16 13 11 9 5 6 4 5 10 12 4 3 5
27 26 23 20 20 22 17 18 23 28 26 25 28 30 29 32 32 35 34 33 33 35 35 35 33 33 34 30 28 22 21 22 15 16 17 17 18 13 10 11 8 8 10 9 7 4 2 2 1
26 26 27 25 15 12 16 12 4 18 21 21 27 29 32 33 34 34 37 36 35 36 37 36 36 34 33 33 24 20 22 17 16 14 16 17 15 10 18 11 9 14 8 8 6 2 5 3 2
26 26 26 25 12 18 20 12 12 26 20 25 21 30 31 35 35 35 40 39 36 36 38 39 35 34 34 31 31 25 25 23 17 17 15 21 14 6 8 11 14 13 9 9 10 10 7 6 5
25 25 25 22 19 17 22 15 21 17 22 20 24 30 31 33 36 38 39 39 40 37 38 40 38 37 34 33 31 27 25 23 19 19 18 17 14 15 19 18 17 13 10 11 8 8 7 12 9
28 23 16 17 17 16 19 21 13 23 23 20 4 29 33 32 35 38 39 43 44 42 41 40 41 40 37 35 34 33 28 23 26 20 22 17 16 19 15 21 18 14 11 13 9 7 7 6 10
26 26 16 21 17 19 22 20 16 23 23 21 40 65 37 39 36 39 42 42 44 46 42 41 42 41 38 35 37 32 34 31 30 25 22 23 20 18 22 18 18 14 12 15 13 11 11 8 5
26 25 27 26 23 17 18 23 22 17 23 20 25 22 27 37 39 38 40 43 42 45 45 44 42 42 40 36 38 35 32 37 29 33 27 24 25 19 24 23 22 19 18 13 14 11 9 12 9
29 18 23 20 25 25 21 21 13 19 19 17 11 16 19 20 35 36 38 41 41 42 45 43 43 43 41 38 39 37 35 34 38 31 31 30 22 24 23 27 26 22 19 19 17 13 17 12 10
18 22 23 20 21 17 17 17 15 17 16 20 21 29 23 17 24 34 39 40 41 39 43 45 44 42 42 40 38 39 39 37 36 36 34 33 31 28 28 27 28 23 22 21 19 18 15 15 12
29 27 27 17 21 19 20 16 16 9 20 17 15 22 20 30 25 29 32 39 41 42 42 44 44 44 44 42 40 40 39 39 39 40 39 37 34 35 34 36 32 29 26 25 22 20 23 22 17

GFSSGP_850_spd_015.txt.gz
Wind_Speed
10 15 12 4 0 2 3 3 2 6 6 13 13 15 11 14 4 10 22 28 25 27 29 28 28 28 27 28 28 26 24 22 21 19 18 17 17 16 16 14 13 13 13 12 12 11 12 12 11
14 15 8 2 2 2 1 5 5 12 17 27 25 26 17 9 19 30 29 24 26 28 27 28 28 27 26 26 26 25 23 21 20 19 17 16 16 16 14 12 12 11 11 11 11 11 11 12 10
12 13 7 4 1 4 5 5 14 19 23 14 4 11 10 15 23 31 30 26 25 26 26 28 26 25 25 25 25 23 21 20 18 17 15 14 14 13 12 11 10 10 10 10 11 11 11 12 13
8 6 7 5 8 7 4 9 19 15 19 19 22 12 17 18 25 34 31 27 22 23 25 25 24 24 24 24 23 22 20 18 16 13 12 12 12 11 10 10 10 9 9 10 11 12 12 13 14
6 4 4 5 12 5 19 29 13 16 23 32 34 22 30 26 35 35 33 28 21 19 22 23 23 23 23 22 22 21 19 16 14 11 10 10 10 9 10 10 10 9 10 11 11 13 14 16 15
4 3 5 9 6 15 15 35 29 31 31 30 33 31 25 33 33 34 31 24 18 20 23 22 22 23 23 22 20 19 17 15 13 10 9 8 8 8 11 11 11 11 11 10 12 13 17 19 16
6 2 10 11 1 16 20 33 21 28 32 21 34 26 31 35 34 34 29 24 18 21 22 21 22 22 22 20 19 17 17 15 13 9 9 7 7 9 10 9 14 12 11 12 12 14 16 18 19
10 3 9 7 8 9 13 25 35 30 22 37 44 19 26 39 30 26 26 24 18 19 17 20 21 23 22 21 18 17 16 14 12 11 8 6 8 6 8 10 14 11 9 12 12 11 12 15 15
10 4 3 11 11 4 14 25 24 36 41 32 12 39 40 38 33 31 28 28 24 15 15 19 21 22 22 20 18 16 15 14 13 10 7 8 6 7 9 7 6 6 9 9 7 8 11 12 13
7 5 12 14 7 6 19 27 25 25 28 13 38 31 44 40 35 32 29 28 26 18 14 15 21 22 22 20 17 15 14 12 11 10 7 4 4 3 4 8 6 6 6 4 5 9 8 11 7
10 6 11 11 22 24 18 20 27 29 14 35 41 41 45 38 36 28 29 29 27 20 19 16 13 18 18 19 15 13 12 10 10 11 7 4 4 2 3 7 4 5 6 2 6 8 7 9 9
5 14 15 20 21 9 13 23 21 26 29 39 47 46 44 38 37 32 30 27 29 27 24 23 15 16 18 14 6 10 9 10 7 6 5 3 1 1 6 3 4 6 3 8 7 7 4 8 8
13 14 25 26 24 28 22 20 22 21 41 43 41 39 43 36 36 32 30 33 30 30 26 25 18 20 20 19 11 11 9 5 5 6 4 3 9 2 3 1 6 6 7 6 8 6 7 10 2
23 20 21 16 34 26 17 5 19 34 44 44 41 36 38 38 34 34 36 35 36 34 31 25 22 21 22 20 16 13 11 11 9 11 7 6 5 6 8 4 2 3 4 3 7 9 8 3 5
24 14 16 13 6 12 32 17 6 35 40 41 39 36 31 32 36 35 30 35 37 35 28 24 25 23 24 23 19 17 14 15 12 8 7 9 6 7 12 7 6 4 5 6 5 7 6 2 4
13 9 6 10 10 10 12 8 12 32 39 36 37 36 32 30 32 31 30 40 35 28 29 23 26 23 23 26 25 20 19 15 13 9 10 9 10 13 6 6 5 6 5 7 6 8 4 2 1
7 9 11 13 9 7 9 7 20 30 36 35 38 37 35 33 30 30 29 33 35 30 31 27 27 21 19 18 27 26 22 17 16 14 8 11 12 10 6 4 6 4 5 6 8 7 5 5 7
9 7 11 14 10 16 12 7 6 21 31 34 37 38 38 38 37 34 33 30 31 33 30 26 23 23 21 17 14 18 25 21 16 14 15 15 11 13 9 5 7 6 8 9 7 4 6 8 1
14 14 16 19 10 9 8 13 12 17 16 19 35 37 39 41 37 38 36 35 30 33 33 33 31 26 24 24 20 18 19 17 15 18 16 15 15 14 10 12 9 8 7 4 7 8 11 4 2
20 19 19 15 10 10 13 14 15 14 18 20 32 37 40 41 41 39 40 39 39 37 38 36 34 32 26 24 24 19 21 19 16 12 15 16 16 12 10 7 9 8 8 7 8 8 5 5 4
21 20 17 11 8 7 11 3 2 9 5 16 21 41 43 45 46 45 46 43 42 41 41 40 38 34 34 26 26 24 19 20 19 20 16 19 15 14 11 11 10 8 10 10 8 7 10 8 7
18 22 22 20 14 7 16 5 3 5 2 11 24 33 41 44 47 49 49 47 45 45 41 40 38 36 37 34 30 29 23 28 25 17 21 16 17 15 12 15 11 14 13 13 9 4 7 11 7
20 14 21 22 15 7 20 1 13 15 20 27 24 40 41 45 48 51 52 53 49 47 46 43 40 38 36 38 38 34 27 28 21 20 17 20 20 16 12 14 14 14 11 13 11 8 8 19 15
15 14 16 18 13 11 16 16 6 18 24 25 26 36 40 42 49 49 54 53 50 49 48 46 43 40 38 35 36 35 28 25 24 25 22 22 22 20 13 16 15 13 13 15 11 10 10 13 15
18 8 12 10 12 8 11 14 11 15 21 28 24 25 25 15 43 48 50 53 54 52 49 49 46 43 40 36 33 34 32 28 26 28 24 22 24 22 18 18 19 14 15 15 12 9 10 14 13
15 15 12 12 12 9 8 14 9 15 22 35 33 35 40 49 44 52 54 57 57 55 50 49 49 45 42 39 34 32 37 32 30 30 19 27 25 21 18 19 15 15 14 14 14 11 10 12 13
11 18 15 5 8 6 7 9 11 17 13 18 28 43 46 44 42 45 55 57 58 57 54 50 49 47 43 40 35 33 37 40 33 35 29 24 23 21 19 19 19 17 15 16 16 13 13 12 12
19 7 12 14 14 17 16 10 10 6 17 16 16 26 36 22 39 40 52 57 59 59 56 51 49 48 44 40 37 35 38 40 39 35 37 30 28 28 23 25 23 22 20 18 19 17 15 14 13
13 16 11 7 12 12 9 15 7 9 17 16 18 31 39 43 50 48 57 59 58 58 56 54 51 48 46 43 40 37 37 40 38 39 38 39 31 32 32 29 27 27 25 22 23 20 18 18 18
21 10 12 9 6 4 9 14 9 13 8 25 32 37 44 40 57 48 55 53 55 57 56 57 54 51 48 44 42 39 36 39 40 39 43 37 41 36 30 32 32 30 29 26 27 24 23 20 20

GFSSGP_850_spd_018.txt.gz
Wind_Speed
8 12 8 3 1 2 3 2 2 6 3 5 10 8 10 14 2 5 22 25 27 29 30 28 28 31 32 29 28 26 25 22 22 20 20 18 17 15 13 13 13 13 15 14 14 14 13 13 12
16 12 5 4 3 2 3 1 4 2 11 27 21 14 10 6 13 26 32 28 30 33 31 30 30 31 31 29 26 24 23 21 20 20 18 16 15 14 12 12 12 13 13 13 13 14 14 14 11
19 7 9 2 3 3 3 1 8 14 18 7 8 16 7 8 28 35 31 31 32 30 31 30 30 29 29 27 25 24 22 21 19 18 16 15 14 13 12 11 11 12 13 13 14 15 15 14 13
17 12 4 4 8 4 7 10 16 7 12 16 21 11 12 6 25 31 32 31 30 29 29 29 27 27 27 26 24 22 21 19 17 15 14 14 13 12 11 12 12 12 13 14 15 16 15 15 14
21 8 3 5 6 2 5 11 16 11 11 21 19 10 16 15 29 32 31 28 29 30 28 28 26 25 25 24 22 21 19 17 14 12 13 13 13 12 11 13 13 13 13 14 16 16 15 16 14
5 4 2 3 8 6 13 13 20 18 22 29 24 20 9 29 32 29 27 26 25 28 27 26 25 24 23 22 21 20 18 16 13 11 12 12 11 11 14 14 14 14 13 13 15 16 15 14 12
4 2 2 4 7 6 11 25 21 23 24 11 24 12 22 32 31 28 24 21 19 22 25 25 25 24 22 21 21 20 18 15 12 11 11 11 10 10 10 12 13 12 11 11 15 16 15 13 13
5 2 2 3 2 5 17 20 29 33 11 28 37 9 22 35 34 28 23 20 18 22 22 24 25 25 23 21 20 19 17 15 12 11 10 9 8 8 8 8 10 10 10 13 13 14 12 10 8
4 3 4 4 2 9 23 18 20 17 33 17 6 32 39 38 35 33 28 23 22 22 21 22 24 24 23 21 19 18 16 15 13 12 10 8 6 6 7 7 8 10 10 8 10 12 11 7 10
6 3 6 9 3 8 27 30 26 19 27 14 30 35 38 40 37 37 33 29 26 24 23 22 23 24 22 21 19 18 16 14 13 10 10 6 3 4 5 6 8 8 6 7 7 8 9 10 9
14 10 9 21 19 18 28 30 31 33 15 38 40 42 44 42 37 35 34 31 26 20 22 23 24 24 24 21 20 18 16 14 13 12 9 6 4 1 4 7 4 5 8 7 8 7 8 4 7
9 24 25 34 12 19 22 32 22 36 20 42 48 50 49 46 41 37 36 32 28 25 19 23 23 25 24 21 17 15 14 13 13 12 9 8 2 3 3 5 5 5 6 6 6 7 2 6 7
8 9 23 26 25 9 28 25 29 24 30 37 44 44 47 45 42 39 35 32 30 27 23 23 21 24 24 21 14 17 15 17 14 12 8 7 7 3 1 1 1 3 3 3 4 3 5 5 4
9 13 16 25 28 17 9 13 24 25 43 38 47 44 43 44 41 38 37 36 33 30 27 24 22 19 25 24 16 18 16 14 11 10 8 7 7 4 3 3 4 1 2 1 0 4 2 3 3
15 7 11 13 31 4 23 7 14 41 47 45 45 43 45 44 38 38 37 36 39 34 29 29 25 22 24 23 19 18 15 14 12 12 11 12 10 8 5 7 4 5 3 3 4 6 4 4 4
5 2 5 7 10 17 16 13 14 40 45 42 43 42 42 44 38 37 36 37 39 38 35 32 29 25 23 23 25 17 14 15 13 15 10 14 13 7 7 7 6 7 6 5 6 5 6 5 4
4 6 6 12 13 12 3 6 12 41 43 41 40 42 41 45 41 37 39 40 39 40 37 35 32 27 24 26 26 23 20 19 14 13 10 12 12 8 5 5 5 5 5 7 4 4 3 2 4
6 4 6 7 4 7 4 6 18 39 37 37 40 39 39 39 46 39 39 41 40 40 39 36 32 27 24 25 29 26 25 21 21 19 17 14 11 9 8 7 7 7 5 5 5 5 3 8 3
5 6 8 14 5 6 17 15 23 35 34 34 35 36 37 42 43 40 40 39 41 42 40 40 37 31 27 28 28 28 31 26 23 20 16 16 12 13 12 10 9 10 8 4 5 6 9 5 7
10 12 18 12 7 5 8 22 20 23 33 42 39 36 39 39 42 39 43 39 42 44 41 39 37 33 30 29 25 23 20 28 29 23 19 19 16 14 11 10 9 11 13 11 9 8 4 10 7
14 15 19 10 6 1 8 3 7 11 17 26 33 41 42 46 47 46 44 43 41 44 44 43 38 35 32 30 25 24 19 23 28 24 22 19 16 13 14 11 11 11 14 13 10 8 7 11 10
10 12 19 10 2 4 4 4 6 9 9 20 34 36 40 43 46 50 51 51 48 46 43 43 40 37 35 33 29 29 29 28 28 24 21 21 21 18 17 11 13 14 13 12 10 8 10 14 12
13 9 14 13 9 2 8 2 7 11 12 15 22 35 39 44 49 51 54 57 56 52 50 46 44 42 40 37 35 34 33 28 24 26 21 20 19 19 17 15 15 17 15 13 13 9 8 16 12
14 6 9 3 9 7 14 13 6 8 20 19 28 37 44 44 48 54 56 56 58 56 54 52 50 47 44 41 37 37 37 32 27 30 28 21 22 22 21 18 14 13 14 12 12 9 10 12 15
8 7 6 6 7 11 10 7 11 16 17 23 24 29 39 49 49 52 51 55 56 60 59 57 54 51 48 45 39 37 35 34 31 33 30 24 23 26 24 22 17 15 14 12 13 11 12 13 17
9 13 9 10 4 5 5 8 11 15 29 41 42 34 37 43 50 55 59 61 62 62 61 59 57 53 51 47 42 37 33 32 33 32 31 29 26 26 25 25 19 15 16 15 15 12 13 12 17
11 7 13 6 3 1 5 7 6 8 18 23 27 26 37 47 46 53 52 57 62 60 63 61 58 55 52 49 44 41 35 33 36 32 34 33 29 28 28 24 18 17 16 16 16 15 14 11 13
11 7 4 1 12 15 5 6 8 7 10 16 22 31 42 51 48 55 54 60 60 62 63 61 58 57 52 50 46 42 37 35 35 34 33 36 30 26 28 25 21 19 19 18 16 16 17 14 13
8 10 2 4 6 10 4 15 8 11 9 12 25 47 49 49 54 52 51 53 62 60 60 62 59 57 55 51 48 44 39 37 36 37 35 38 35 29 32 29 26 24 23 23 21 19 19 19 15
21 13 11 8 9 6 15 24 3 9 10 10 26 40 50 58 53 49 46 49 50 57 57 61 60 59 57 51 48 45 39 37 38 38 39 39 40 36 33 32 31 29 27 26 25 23 22 23 20

GFSSGP_850_spd_021.txt.gz
Wind_Speed
12 12 9 2 1 1 3 2 2 4 3 2 9 6 9 7 2 4 27 26 32 32 30 27 25 28 28 28 28 26 25 23 22 20 18 17 15 14 13 13 14 13 14 13 14 14 13 11 10
16 13 5 3 2 2 3 2 4 2 11 20 15 11 7 4 8 24 26 31 31 32 28 28 27 29 28 28 26 25 23 21 20 18 17 15 13 13 12 12 13 13 14 14 15 14 12 11 10
12 7 3 2 1 3 2 2 6 15 15 6 7 10 4 3 16 28 31 31 32 33 28 28 28 29 28 26 24 22 21 20 19 17 16 14 12 12 13 13 13 14 14 14 15 14 13 11 9
9 3 5 0 4 4 2 6 10 11 7 6 20 10 9 10 18 26 32 32 33 32 29 29 29 29 27 25 22 21 21 19 17 16 15 13 12 14 14 13 14 13 14 15 15 14 13 12 10
7 3 1 2 4 3 2 13 10 4 4 14 9 6 12 8 25 33 35 34 32 32 29 29 28 28 26 24 22 21 19 17 15 15 13 13 14 15 14 13 13 12 13 13 15 14 13 12 11
3 2 2 3 4 4 3 10 11 12 16 18 18 18 8 14 30 32 32 31 29 30 29 28 26 26 25 23 21 19 17 15 13 13 13 13 14 14 12 12 12 12 13 13 13 12 12 12 11
1 3 3 4 3 3 3 9 13 16 14 10 21 5 15 28 29 30 28 28 28 28 28 26 26 25 24 22 20 18 16 14 12 12 12 12 12 10 10 10 9 11 13 14 13 11 11 10 9
5 2 2 3 4 4 6 8 18 18 5 23 26 7 14 35 31 28 27 26 27 27 26 26 26 25 23 22 20 19 16 13 11 12 11 10 9 9 7 7 8 10 12 12 9 8 8 8 7
3 1 3 5 5 5 18 6 17 4 21 11 6 21 37 37 33 30 27 26 26 25 25 25 26 25 22 21 20 19 17 14 12 12 11 9 8 6 5 6 8 9 11 11 9 8 7 8 6
5 2 6 6 5 12 21 20 24 8 20 3 13 29 38 36 35 33 31 29 28 27 26 26 26 25 23 21 21 19 17 15 13 12 11 7 6 6 7 7 7 7 6 7 6 6 7 6 5
6 6 2 9 2 26 22 18 13 22 8 15 36 40 41 40 35 33 30 28 28 26 25 25 25 25 24 23 21 19 18 16 15 12 11 6 6 5 4 5 6 5 6 6 6 4 5 4 5
6 12 18 26 9 19 17 21 9 28 12 33 34 45 45 42 39 36 33 29 29 29 26 26 26 26 24 22 20 19 18 16 14 12 12 6 3 4 6 5 6 6 6 8 6 4 1 4 3
14 14 21 33 27 24 27 25 19 32 8 34 38 43 45 41 40 35 31 30 28 26 27 27 27 27 24 22 20 19 17 15 15 13 10 7 6 4 3 3 2 4 5 2 2 2 3 1 2
9 19 19 20 20 25 23 20 16 26 22 34 39 44 44 43 42 39 36 33 32 27 25 25 28 26 25 24 20 18 17 16 17 15 9 7 7 6 5 2 2 5 4 5 4 1 2 3 3
9 5 6 10 13 11 34 9 19 26 34 37 39 41 42 43 41 40 37 35 33 31 26 25 24 25 28 25 20 21 18 19 16 14 12 11 9 9 6 5 5 5 5 5 3 5 4 3 3
2 2 3 4 5 13 22 17 19 32 38 35 37 36 41 42 41 39 37 35 31 31 32 29 26 24 25 29 23 23 20 18 16 14 16 15 13 9 8 7 7 7 6 6 5 5 6 5 4
4 5 6 6 6 6 9 6 12 40 39 36 37 36 38 39 42 40 40 38 34 32 34 33 31 27 24 30 25 24 20 19 18 19 20 16 14 12 8 7 5 6 6 4 6 5 4 4 5
5 4 5 4 4 8 3 3 18 33 34 36 37 35 35 37 46 43 42 41 39 34 35 34 34 31 26 25 28 28 23 20 20 18 16 13 12 12 9 6 7 7 9 6 5 6 7 6 9
4 3 6 5 3 4 14 6 18 31 29 29 33 34 36 41 47 44 42 42 43 42 39 37 36 35 33 31 31 31 30 26 24 22 18 15 12 12 12 9 11 11 10 8 7 7 8 11 7
7 7 12 2 7 5 7 12 19 23 34 40 38 37 40 39 37 46 44 44 46 44 44 40 39 38 36 32 31 33 32 29 27 24 21 18 14 12 13 11 13 13 12 13 10 9 10 8 9
5 9 11 8 2 1 6 3 11 19 21 27 32 39 40 42 43 49 50 48 47 49 46 44 42 42 39 35 32 31 28 30 33 30 25 21 18 16 16 14 15 14 13 13 12 10 8 11 8
9 6 10 3 3 3 3 4 5 8 19 19 29 36 39 40 40 47 50 50 48 47 46 46 45 44 42 39 37 34 31 30 29 32 30 24 20 20 19 17 18 14 13 13 13 11 6 12 12
10 5 7 4 5 1 4 0 6 10 15 19 24 34 39 44 46 46 53 53 51 47 45 45 46 44 44 44 40 36 34 30 24 25 29 26 22 22 23 21 21 16 14 13 13 11 9 13 14
5 2 4 3 3 4 16 9 7 8 22 23 26 37 43 44 48 53 55 54 52 53 49 45 47 47 47 46 43 40 37 33 29 27 29 27 24 24 23 23 21 16 15 16 12 11 11 11 16
5 7 4 4 4 10 8 6 15 10 25 25 26 42 47 47 47 53 50 49 48 56 55 52 51 50 49 48 45 42 39 34 30 30 28 30 27 27 26 26 23 17 13 13 11 12 12 12 11
8 11 6 7 4 7 5 9 8 17 17 41 41 47 43 44 47 53 56 60 61 60 59 58 56 54 53 51 48 43 40 38 32 31 31 29 32 28 25 24 23 19 16 16 14 12 14 13 14
7 10 12 3 2 3 5 7 5 8 12 10 24 30 36 44 49 53 59 58 60 57 62 62 61 58 56 53 50 47 43 41 36 30 30 30 34 31 27 25 24 22 19 18 17 14 15 14 13
15 9 4 2 11 12 5 6 6 7 16 10 10 23 35 42 45 52 52 59 62 61 63 62 62 61 59 56 53 50 45 43 39 31 30 32 35 35 31 28 26 25 21 19 19 16 17 18 14
5 9 3 7 7 10 6 10 8 10 9 11 11 28 35 40 46 53 56 57 56 55 56 61 61 62 62 60 56 53 48 45 43 36 32 35 36 37 33 30 28 27 24 22 22 19 18 20 19
14 18 8 5 11 5 8 12 1 15 15 10 15 30 37 45 50 55 58 51 48 51 53 58 59 60 61 60 58 54 48 47 46 41 36 37 38 38 37 31 30 29 28 25 24 23 22 21 21

GFSSGP_850_spd_024.txt.gz
Wind_Speed
14 12 9 7 1 1 3 1 1 5 3 2 9 5 7 5 2 2 23 23 36 33 26 24 25 25 28 29 29 27 23 21 20 19 16 14 13 12 13 13 13 13 13 12 10 10 9 9 9
15 14 7 3 1 1 2 2 5 4 10 21 16 12 5 4 5 19 23 35 35 31 27 23 25 27 29 29 27 24 22 20 19 17 15 13 11 13 14 12 13 13 13 12 10 9 8 8 8
17 9 3 3 2 1 2 3 4 11 14 7 7 9 4 5 11 32 30 37 34 29 28 24 27 28 29 27 25 23 20 19 17 16 14 12 13 14 13 14 14 13 13 11 11 10 9 9 8
5 1 2 1 3 3 1 5 9 7 6 6 16 9 7 5 29 23 38 34 34 28 28 26 28 28 28 25 23 21 19 18 17 15 13 12 13 14 14 14 13 13 12 10 11 10 10 10 9
2 1 2 2 3 1 2 10 12 4 5 8 2 4 11 3 14 30 33 34 34 29 28 28 28 27 25 24 22 21 19 17 16 14 12 12 13 14 13 12 12 12 11 10 11 12 12 12 12
2 2 2 3 4 2 4 9 5 5 8 10 14 10 5 8 25 34 30 32 31 28 29 29 28 26 24 23 21 20 18 16 14 13 13 14 13 13 11 11 11 11 10 10 11 11 11 12 11
2 1 3 3 3 1 5 11 7 6 10 8 18 5 10 19 28 32 32 31 29 28 29 28 28 26 24 22 20 18 16 14 13 12 12 11 11 10 9 9 10 11 11 10 10 10 9 10 10
0 2 3 3 2 1 7 6 14 11 3 20 16 6 11 31 32 31 30 29 29 28 27 28 27 26 24 22 20 18 15 12 12 11 11 10 9 7 7 7 8 10 10 9 8 8 8 9 11
1 3 3 4 3 2 14 5 13 5 19 7 11 11 28 37 34 31 30 29 29 28 27 26 26 26 24 22 20 18 15 13 11 10 9 8 7 5 5 7 8 10 8 7 8 7 8 10 7
5 4 6 5 3 3 10 14 16 6 17 3 8 16 37 37 35 35 34 33 32 30 28 26 25 24 23 22 20 19 16 14 12 10 9 7 5 7 6 7 6 8 7 6 4 7 7 6 8
7 6 5 5 8 11 12 10 12 15 7 13 26 37 43 40 37 35 34 33 32 30 28 27 26 24 23 22 21 19 17 15 14 12 10 7 6 4 3 5 5 4 6 6 4 3 5 4 5
3 13 14 6 1 14 11 13 9 21 7 19 27 48 47 44 42 38 34 32 32 30 28 27 26 25 24 22 20 19 17 16 15 12 10 8 6 5 8 5 6 6 6 6 3 2 1 1 4
8 8 13 23 10 16 16 19 10 21 6 14 34 44 46 44 40 36 32 30 30 30 28 27 26 26 24 22 20 19 18 17 16 14 11 7 7 6 4 4 3 4 7 3 2 3 4 1 1
6 18 22 14 13 10 15 15 14 15 10 26 38 39 40 42 41 36 34 32 32 30 28 27 27 26 25 23 21 19 18 17 16 15 11 7 7 5 4 1 2 3 3 4 4 2 3 4 4
15 7 6 10 11 9 19 3 17 13 23 31 34 39 37 39 39 38 36 34 31 29 26 28 27 26 26 23 21 20 19 17 17 17 11 9 7 7 5 4 3 5 5 6 4 4 5 3 2
2 1 2 2 8 7 20 18 19 25 32 29 32 34 37 37 38 37 36 34 34 29 27 25 27 27 26 25 23 21 19 20 18 17 14 14 11 9 8 5 6 7 5 7 6 4 4 2 2
3 5 6 4 10 3 8 9 12 30 34 29 31 32 36 34 38 38 35 34 35 33 29 26 27 27 27 27 25 22 22 20 19 17 16 16 14 13 10 6 6 5 6 6 5 5 3 3 3
5 4 4 4 3 6 12 6 8 31 32 30 34 32 34 37 45 41 36 34 34 31 31 28 28 26 24 25 27 25 24 23 21 20 18 18 16 15 11 10 7 6 7 6 5 6 5 4 6
6 4 3 3 2 4 13 8 9 24 26 26 31 33 35 42 42 41 38 35 34 34 33 33 33 30 28 27 31 29 28 25 20 20 18 17 15 11 11 11 9 9 9 9 8 5 5 6 7
6 6 7 4 7 2 3 9 7 15 28 35 36 35 38 37 36 41 41 40 37 37 37 36 34 32 32 30 29 31 31 28 23 21 20 19 16 13 10 12 11 10 11 11 9 8 7 9 8
6 11 5 4 2 1 3 6 5 15 11 23 28 35 38 39 41 45 45 45 44 42 42 41 38 37 35 34 32 32 31 31 29 27 25 22 18 16 12 12 12 11 12 10 10 9 7 5 9
8 8 7 7 4 4 5 5 5 6 19 18 26 34 35 37 39 41 47 46 48 46 44 44 42 40 38 36 36 35 33 31 30 32 28 25 21 18 18 15 15 14 12 11 9 10 8 7 10
10 7 8 5 6 2 4 1 6 8 10 16 21 32 37 43 45 46 47 49 51 49 48 47 45 43 41 39 39 37 37 32 27 26 28 30 27 22 20 18 17 15 15 13 11 11 10 8 12
7 4 5 5 4 5 9 8 5 7 15 18 21 33 34 36 44 48 49 46 49 50 50 49 50 48 45 45 44 42 38 35 31 29 26 27 28 26 24 22 21 19 17 15 12 12 12 9 11
5 8 2 2 3 10 9 8 15 8 15 18 25 39 38 40 41 49 45 48 49 51 52 52 51 51 50 47 47 47 43 39 34 30 26 25 29 30 27 24 22 21 18 14 12 12 12 10 9
8 9 6 8 5 6 7 9 6 13 16 28 35 40 40 40 45 47 52 53 53 53 55 54 52 50 49 48 48 47 46 44 39 34 30 28 29 30 26 25 24 22 19 15 13 13 12 13 11
6 11 9 4 1 2 5 8 5 7 10 11 26 24 29 38 43 48 52 55 55 55 56 58 56 52 52 49 46 47 46 46 43 39 33 29 29 29 30 28 25 23 20 18 17 16 15 15 12
10 8 4 2 6 6 4 5 6 8 14 13 9 20 33 40 42 47 49 53 59 59 57 56 56 55 53 52 51 49 46 44 43 40 36 31 31 31 31 31 28 26 22 21 20 18 17 17 15
3 6 3 6 6 6 0 7 8 10 11 13 16 30 37 39 43 49 51 53 57 56 58 57 57 57 56 56 54 52 51 48 46 43 37 35 31 33 33 33 32 28 25 23 22 21 19 17 17
21 11 8 6 11 4 4 9 5 10 12 11 17 29 36 35 39 46 50 50 49 54 54 56 55 55 57 56 55 55 51 51 49 46 40 37 35 33 34 33 35 32 28 26 25 23 22 21 19

GFSSGP_850_spd_027.txt.gz
Wind_Speed
13 14 11 5 2 2 2 2 0 8 7 3 10 3 4 6 2 3 19 24 31 29 27 25 25 25 25 25 25 24 22 19 17 16 14 13 12 11 11 11 11 10 9 8 7 8 7 7 8
15 14 9 1 3 1 2 2 5 4 7 16 13 10 5 3 5 17 24 32 31 29 27 25 25 25 26 27 26 23 20 18 17 15 12 12 12 11 11 11 11 11 9 8 8 8 8 7 6
15 11 3 2 2 3 2 2 6 12 11 7 5 6 4 4 9 25 27 37 33 28 26 25 25 28 29 27 24 22 19 18 16 13 12 12 12 12 12 11 11 11 9 9 10 9 8 7 5
10 4 2 2 4 1 1 6 14 12 4 4 12 8 5 2 20 16 34 35 32 29 26 27 26 29 27 25 22 20 18 17 15 13 11 13 13 12 11 11 11 10 9 11 12 12 11 10 7
4 3 2 2 4 2 2 11 13 6 5 7 4 6 8 9 10 29 32 33 30 28 27 28 27 28 26 23 21 19 17 16 14 12 11 13 12 12 11 10 10 9 11 12 13 15 14 12 11
2 2 2 4 3 4 6 13 8 4 6 8 12 14 5 12 20 30 30 29 28 28 26 26 27 27 25 22 21 19 17 15 13 11 13 12 12 11 10 9 9 10 11 12 12 13 14 12 11
3 2 2 3 1 4 6 11 6 6 8 7 18 8 10 16 26 29 31 29 26 27 25 25 27 25 23 21 20 18 16 14 13 12 11 11 10 10 9 8 8 9 10 11 10 10 11 10 10
1 2 2 2 1 3 9 7 8 7 5 16 13 7 11 23 30 28 30 27 25 24 25 26 26 25 23 22 20 17 14 13 12 10 9 8 8 8 7 7 7 8 8 8 7 9 9 10 9
2 3 2 0 2 3 12 5 7 6 16 7 7 10 18 31 30 28 27 26 24 24 26 27 27 27 24 22 20 17 14 12 11 9 8 8 7 6 6 7 7 7 7 7 6 7 9 10 7
5 3 3 2 2 2 13 10 13 6 14 7 8 15 29 30 32 34 31 30 28 27 27 29 29 28 25 22 20 18 15 12 11 9 8 7 7 7 7 7 6 5 4 3 4 7 8 8 8
6 5 5 3 6 4 13 10 10 11 10 14 18 25 34 33 30 30 31 29 30 29 29 29 29 28 26 24 21 19 16 14 12 10 8 7 7 5 4 3 4 4 3 3 2 3 4 5 7
5 12 10 2 4 5 10 13 10 13 3 13 18 31 35 34 34 32 31 31 30 32 31 29 28 27 26 23 22 19 18 15 14 12 9 6 5 3 6 3 4 3 5 4 2 1 3 2 4
15 10 8 12 14 13 9 17 9 19 9 10 20 33 34 32 30 29 28 27 30 32 31 30 29 27 25 23 22 20 18 16 15 13 11 8 6 5 4 4 3 3 4 2 3 3 3 3 2
5 10 12 10 15 11 15 13 11 13 14 19 26 34 34 32 31 28 30 31 34 32 31 30 29 27 25 23 21 19 18 17 17 14 12 9 7 5 3 2 2 3 4 5 3 4 5 5 5
11 12 11 13 9 8 16 9 16 13 21 24 28 31 31 31 29 31 33 33 33 32 30 30 28 27 25 24 22 20 19 18 18 16 13 8 6 6 3 3 2 4 4 6 5 4 4 2 4
5 4 5 1 10 6 15 16 15 23 26 26 30 31 30 32 33 31 31 32 32 31 31 28 28 27 26 25 22 21 20 19 18 18 15 10 9 7 6 6 5 5 6 6 6 5 4 3 1
6 10 8 7 9 3 11 12 6 27 27 27 31 32 32 31 31 32 31 33 34 33 30 29 29 28 27 25 23 22 21 20 19 19 17 14 13 10 10 8 6 5 5 6 4 5 3 2 1
10 10 9 12 3 8 13 15 2 25 27 29 32 31 32 33 36 33 32 31 33 33 30 27 28 28 28 26 25 25 24 22 22 21 19 17 15 14 13 11 8 7 5 4 5 4 3 2 4
8 16 10 5 7 9 14 16 9 21 25 25 28 31 33 35 33 31 32 31 34 35 35 31 28 27 29 31 31 30 27 26 25 24 20 18 17 16 14 13 10 9 6 6 6 5 3 5 9
16 18 16 8 9 4 6 10 9 16 25 31 34 34 36 32 30 31 32 32 34 37 38 36 32 30 31 30 29 31 29 28 27 23 20 18 17 16 13 12 12 9 8 8 8 6 5 6 4
22 23 19 13 2 4 7 12 6 14 21 26 29 31 31 35 35 34 35 35 34 37 39 38 37 36 34 30 27 27 31 29 29 27 22 21 19 16 14 12 12 10 9 9 9 7 5 5 6
22 17 15 15 9 14 6 13 7 13 18 18 26 31 34 34 34 31 36 36 37 40 38 40 38 38 36 34 33 31 32 33 32 32 27 23 21 19 16 15 13 13 11 9 10 8 5 4 7
17 12 16 15 14 10 14 9 13 4 12 19 25 33 34 36 36 37 38 45 46 42 41 41 41 41 39 37 36 34 32 30 28 28 28 27 24 21 19 18 16 14 12 11 11 10 7 6 7
13 12 7 4 9 15 19 13 17 14 15 15 20 30 33 35 36 36 38 39 40 41 44 44 44 43 42 40 39 38 36 33 31 29 25 25 26 26 25 21 18 17 15 12 12 11 9 8 7
20 15 7 10 11 15 12 14 21 10 18 20 19 31 35 36 37 38 36 36 43 45 48 47 47 45 44 44 43 42 39 36 33 29 27 27 25 26 27 25 22 20 17 16 13 12 11 9 8
25 21 9 13 13 11 7 14 13 16 22 26 26 24 26 32 36 39 42 45 48 48 49 51 49 48 47 46 46 44 43 41 38 35 31 27 26 24 24 25 23 21 18 16 14 13 12 11 11
14 23 22 6 1 4 14 15 11 9 19 19 24 21 25 31 35 39 45 47 50 50 51 50 51 49 47 46 46 46 46 46 45 40 34 31 28 26 25 26 24 23 20 19 17 16 14 13 13
15 17 10 13 12 12 8 9 13 19 19 18 19 23 26 28 30 34 38 43 50 50 51 51 49 48 47 46 46 46 46 45 45 43 39 35 31 28 28 28 28 26 24 22 21 20 18 17 16
9 17 10 11 9 7 6 9 8 16 19 22 22 29 29 28 30 32 37 41 47 45 45 51 53 51 50 47 46 46 47 47 46 47 41 36 34 32 31 31 30 31 28 25 25 24 21 21 20
24 19 21 11 11 12 9 6 4 11 8 13 19 20 19 22 27 29 30 31 33 44 44 49 51 53 54 52 50 49 46 47 47 46 43 38 37 36 34 33 34 33 33 30 29 28 26 24 23

GFSSGP_850_spd_030.txt.gz
Wind_Speed
15 11 9 4 2 5 1 3 3 9 7 6 8 2 9 12 4 7 25 23 29 34 30 28 27 26 23 22 23 21 19 16 15 12 10 10 10 10 9 10 9 10 9 8 8 7 8 8 8
16 13 7 3 4 2 6 3 7 8 10 14 10 8 8 5 6 21 23 27 30 26 28 23 27 25 24 23 23 21 17 16 14 11 10 9 9 9 10 11 9 9 10 9 8 8 8 7 7
14 8 5 4 1 6 8 4 10 11 11 7 6 7 6 5 12 29 24 29 26 29 20 23 25 25 25 23 22 18 16 15 13 11 10 10 9 9 11 12 9 10 11 11 10 9 9 7 6
9 4 5 5 7 8 8 7 12 11 6 4 7 9 8 4 21 18 32 28 27 22 22 27 25 26 25 23 20 18 16 14 12 10 10 10 10 10 10 9 9 10 12 14 15 14 12 10 7
5 4 4 3 10 7 6 9 9 6 7 7 5 7 10 11 14 31 31 27 27 24 23 25 27 27 25 21 19 17 15 14 11 10 11 10 10 9 10 9 9 12 14 16 16 14 13 12 10
7 5 6 7 9 8 8 9 6 4 6 7 10 15 6 15 28 31 30 27 26 25 24 25 28 25 22 20 18 16 15 13 11 11 11 11 10 9 8 9 10 11 13 14 15 13 12 12 11
10 6 5 3 6 6 6 6 2 5 7 6 16 11 15 22 28 30 29 26 25 25 24 24 23 24 22 19 18 16 15 13 11 12 11 10 9 8 8 9 10 11 12 11 12 12 11 10 10
8 4 1 1 4 11 7 5 5 3 7 16 15 8 16 26 29 30 29 26 25 26 24 23 21 20 17 18 18 16 14 12 10 10 9 9 8 8 7 8 8 10 9 9 10 10 10 9 9
5 6 5 8 0 7 11 7 6 6 14 8 4 13 24 31 30 30 28 26 25 26 25 24 22 20 18 16 18 16 14 12 10 9 8 6 5 4 5 5 7 7 7 7 9 9 9 9 11
9 8 5 5 5 6 10 6 10 7 13 13 10 16 30 32 31 32 30 28 27 28 27 25 23 20 18 15 15 13 10 8 7 6 6 6 5 5 6 4 6 4 4 4 6 7 11 11 7
11 10 7 6 6 5 9 8 10 8 11 15 16 26 31 32 30 31 29 27 28 27 27 25 24 21 19 16 14 12 10 9 8 9 7 5 4 2 3 2 2 1 2 2 4 4 6 5 7
9 13 8 2 3 2 3 9 10 11 7 14 17 26 32 32 32 32 31 29 28 28 27 25 23 22 20 16 14 13 12 10 8 7 8 5 3 0 4 3 3 3 2 2 1 5 3 3 4
17 9 6 11 9 8 5 7 4 11 10 18 21 27 31 29 29 28 27 27 27 28 27 25 23 22 21 18 14 13 13 11 9 8 8 6 4 3 2 2 2 3 2 1 1 2 2 1 1
8 17 11 11 12 11 11 9 11 11 13 19 25 28 31 31 30 28 28 29 29 27 26 24 23 22 22 19 16 14 13 12 11 9 8 8 6 5 2 1 1 0 2 2 2 1 3 3 3
13 11 12 15 13 9 10 11 14 9 17 21 25 27 30 31 29 30 29 29 29 28 26 25 24 23 24 22 20 16 13 12 12 11 12 10 9 6 4 3 2 1 3 3 3 2 4 3 4
15 17 14 17 18 14 13 10 18 17 22 23 25 28 31 32 32 29 29 28 28 26 26 25 23 23 23 21 20 17 15 14 13 12 11 13 9 6 5 3 1 2 3 2 2 1 1 2 1
13 14 19 13 13 9 15 13 8 18 23 23 26 29 30 30 30 30 30 29 27 27 26 26 25 24 23 22 19 19 17 16 14 14 13 13 11 9 6 5 3 2 1 3 1 3 2 1 1
18 18 17 17 13 14 14 16 4 15 21 22 25 28 29 30 34 33 31 29 28 26 26 25 25 24 24 21 21 18 18 17 16 15 15 16 14 12 9 7 8 2 2 1 2 1 0 1 1
18 19 19 17 15 12 14 13 13 15 20 22 25 28 30 31 30 30 31 30 29 28 28 28 27 28 27 25 23 22 21 19 17 17 19 19 16 13 12 9 10 4 4 2 0 2 2 1 3
21 19 20 15 10 8 13 12 11 10 18 22 25 29 31 28 28 30 31 32 32 30 29 29 29 30 31 27 25 22 21 19 18 17 18 21 18 16 14 11 11 8 4 3 1 1 0 1 4
23 24 21 17 12 15 15 18 16 10 15 21 24 25 28 31 32 32 33 34 33 33 32 32 32 31 31 26 23 22 20 20 19 20 19 19 18 16 14 11 10 9 4 5 3 1 3 1 4
24 24 20 19 16 15 15 15 18 20 17 19 24 28 28 31 31 32 33 35 36 36 33 33 34 33 30 32 24 27 25 23 21 21 19 17 20 18 16 14 11 10 7 8 4 3 4 4 5
21 18 17 20 17 18 22 14 16 13 18 20 22 27 29 32 35 36 37 38 37 33 33 32 34 37 32 34 30 27 26 21 19 19 21 23 18 21 17 16 16 14 10 10 9 6 3 6 7
15 16 13 16 17 20 24 20 19 19 19 19 20 24 29 32 35 37 37 34 34 33 32 31 34 40 39 38 37 34 28 25 22 21 20 20 20 19 23 19 18 17 15 12 9 8 7 7 7
22 17 9 11 15 19 21 19 19 11 21 20 18 24 26 31 34 37 37 36 35 36 35 34 35 40 42 41 40 39 36 32 28 24 21 18 18 20 21 25 23 18 18 15 13 13 11 10 10
27 23 10 16 14 16 16 16 22 24 26 13 26 24 25 27 33 35 38 39 39 40 42 40 39 43 43 43 43 41 39 35 31 28 24 21 20 19 20 23 25 23 20 18 16 15 13 13 13
24 25 27 4 3 8 16 19 16 10 18 26 27 23 22 26 32 36 38 40 39 40 44 46 48 47 46 45 45 44 42 41 34 32 31 27 23 20 20 21 24 24 23 21 19 16 17 17 15
21 25 21 14 15 18 11 19 12 21 21 19 22 26 24 27 30 31 34 38 40 40 41 44 49 49 49 48 48 47 46 44 43 42 39 34 29 28 22 23 23 25 25 24 23 20 21 21 19
22 16 22 18 17 11 9 11 15 16 16 22 21 26 27 26 29 31 32 34 37 36 37 40 42 48 48 49 49 49 48 47 45 46 45 42 39 36 31 30 26 27 27 28 27 24 22 24 23
28 24 27 14 23 18 14 6 4 7 14 17 20 24 23 24 24 24 26 27 30 35 38 41 42 42 48 48 47 49 49 47 45 47 46 44 42 41 38 35 32 31 29 30 32 30 26 28 27

GFSSGP_850_spd_033.txt.gz
Wind_Speed
14 12 10 6 3 5 5 6 6 9 8 10 9 12 18 19 9 11 30 44 44 34 30 25 24 21 17 19 20 18 14 13 12 10 11 11 12 12 11 11 11 11 9 9 8 8 9 10 10
15 14 8 6 3 3 4 5 8 8 19 13 13 13 14 9 15 26 37 43 39 37 24 21 24 19 18 19 19 16 14 12 10 10 10 10 10 12 12 12 12 11 10 10 10 8 8 8 9
14 10 5 3 4 1 6 9 12 14 13 8 12 13 8 7 25 26 35 34 37 30 23 23 24 20 20 20 18 15 13 12 10 8 9 9 11 13 12 11 12 13 13 12 11 10 8 7 6
12 7 8 2 15 15 14 4 14 10 6 7 15 12 11 13 30 28 35 36 27 24 25 27 24 22 22 20 17 14 13 11 9 9 9 9 11 11 10 12 13 15 15 14 14 12 10 7 8
14 11 6 5 7 11 12 12 9 6 7 8 14 11 17 20 21 36 34 29 31 26 23 26 24 22 22 20 16 14 13 11 9 9 9 10 10 10 11 12 14 15 15 15 14 13 12 11 9
7 6 5 6 13 13 11 10 11 8 8 8 19 18 12 18 30 32 29 30 25 27 25 24 25 22 21 18 16 14 13 10 9 10 10 10 10 9 10 12 13 13 13 13 12 12 11 11 11
21 4 14 4 13 13 10 5 4 13 9 10 14 13 17 26 32 31 28 27 25 26 26 24 23 22 19 17 16 14 13 10 10 10 10 9 10 10 10 10 11 12 11 11 10 11 10 10 10
19 5 13 16 2 19 7 11 7 11 16 15 18 10 24 31 31 30 26 27 25 27 23 24 22 19 16 17 15 14 13 11 11 10 9 9 11 9 10 8 8 9 10 10 10 10 11 12 11
15 9 6 4 9 13 10 14 10 11 16 11 4 23 30 32 32 31 27 25 26 26 24 23 22 19 16 14 15 14 12 10 9 8 8 10 9 7 5 3 6 7 8 8 8 12 8 8 14
15 6 8 7 5 11 9 17 10 13 13 12 20 27 31 32 34 32 30 26 26 26 25 23 22 20 17 13 14 11 8 6 6 3 3 7 7 5 6 4 4 4 5 5 6 6 4 2 2
18 8 25 6 9 1 13 17 10 15 11 15 22 31 33 33 32 30 28 25 27 26 25 24 22 20 18 16 12 10 8 8 6 5 6 12 6 3 4 3 4 4 5 3 6 4 12 7 6
16 11 21 9 7 1 7 17 13 5 15 18 21 30 34 33 32 30 29 28 28 26 25 24 22 21 19 15 13 11 10 8 7 6 5 2 6 3 4 6 3 3 3 3 7 11 5 6 6
18 17 12 4 5 5 2 7 5 9 14 19 23 28 31 31 29 28 27 26 26 26 25 24 22 22 20 16 14 12 11 10 8 6 6 4 1 2 5 5 1 1 3 2 1 5 4 4 2
16 19 12 11 12 10 10 8 9 13 15 22 26 28 30 30 30 29 28 28 28 26 26 25 23 22 20 19 15 14 13 10 10 8 7 8 5 4 3 3 0 1 3 5 1 1 4 2 2
23 8 16 15 14 9 10 12 15 19 19 22 25 28 30 30 29 30 29 29 28 27 27 26 24 22 22 20 17 15 13 12 11 9 10 8 8 4 2 2 3 2 5 4 3 2 4 8 5
19 19 17 20 18 16 13 16 17 18 22 24 25 27 31 31 31 29 29 29 28 27 28 26 25 23 22 20 18 15 14 13 12 11 9 10 10 11 5 2 1 1 2 1 3 3 1 4 2
17 18 23 20 22 16 16 16 20 22 22 23 25 26 29 31 31 30 30 29 29 28 28 28 25 24 23 21 18 17 16 15 13 12 11 13 12 9 6 6 7 2 1 2 1 1 3 0 2
22 23 21 22 17 18 19 19 15 23 23 22 25 27 29 31 34 32 31 30 29 29 28 27 26 26 25 21 20 17 17 16 15 14 13 15 13 11 7 3 3 2 1 3 6 3 1 1 1
22 21 23 22 17 22 19 20 18 18 17 21 26 28 30 30 30 31 31 31 30 29 29 30 30 29 26 24 22 20 20 18 16 15 16 16 13 11 10 7 5 3 4 4 2 1 2 3 2
27 25 23 21 14 13 17 18 16 15 20 20 27 28 30 29 30 31 33 33 33 32 32 32 32 31 31 26 24 21 19 17 16 15 17 17 15 13 12 10 10 8 4 7 3 5 4 1 6
28 27 23 19 21 17 16 18 17 16 16 18 25 27 29 33 34 34 36 37 34 34 34 34 35 34 32 26 24 22 20 19 18 17 17 16 16 14 15 12 10 9 9 9 2 3 6 2 5
26 26 23 20 19 18 23 16 20 18 17 18 24 28 29 32 33 34 36 36 37 36 35 34 36 36 33 33 25 27 24 22 20 18 17 17 17 16 15 13 11 11 8 8 5 5 6 5 5
25 20 25 23 22 20 24 17 18 25 26 22 21 28 29 32 34 35 37 37 37 36 36 36 37 36 32 31 30 27 27 22 19 18 19 21 19 17 16 15 14 13 12 12 10 9 7 6 7
21 16 19 22 19 21 25 21 20 19 18 24 25 30 31 30 34 35 36 34 34 34 34 34 36 37 36 34 35 31 29 25 21 21 19 19 20 16 21 18 19 16 13 12 9 9 8 10 8
18 19 12 16 18 20 24 25 20 20 21 20 21 31 31 28 32 35 36 36 35 37 37 37 39 40 41 40 34 38 34 29 26 23 22 20 20 20 21 22 23 17 17 15 14 14 11 9 10
26 25 15 21 18 17 25 27 24 26 18 23 28 28 29 29 31 36 37 38 39 40 41 40 40 41 40 43 41 39 40 30 30 28 23 23 20 20 19 24 22 22 18 19 18 14 12 12 12
23 25 27 22 23 14 19 27 24 21 26 20 17 30 30 31 30 34 37 40 40 40 44 46 44 44 44 44 45 44 42 41 33 31 29 24 24 20 22 22 21 23 23 21 20 17 18 16 15
27 25 23 17 18 16 15 15 18 20 15 27 25 21 32 29 31 33 37 40 41 43 45 47 49 49 45 48 47 46 45 43 42 36 35 30 27 25 21 26 24 23 25 25 24 19 18 20 17
26 22 24 20 18 13 11 12 15 19 20 19 20 35 28 27 30 31 36 38 41 39 40 45 47 47 47 48 50 48 48 46 44 45 42 38 33 32 30 26 27 26 27 27 27 25 21 24 22
27 28 27 17 24 17 12 3 9 6 7 19 22 24 32 30 28 29 33 32 36 39 40 42 45 45 50 49 51 51 49 48 48 48 47 45 43 40 38 34 34 29 27 29 30 29 25 26 23

GFSSGP_850_spd_036.txt.gz
Wind_Speed
12 13 13 7 3 5 4 6 6 5 6 20 16 20 15 15 3 4 26 40 36 32 29 26 23 20 19 17 17 16 14 14 14 13 14 13 14 15 15 14 14 13 12 11 10 12 12 12 13
14 13 7 3 3 2 6 10 9 11 16 25 27 25 14 9 13 25 42 41 38 32 26 26 21 19 19 17 16 14 13 13 12 13 12 13 14 15 16 15 15 14 13 12 11 11 10 10 11
15 14 3 3 3 4 4 12 15 17 17 14 18 17 10 9 20 27 37 43 37 28 20 24 20 18 18 17 15 13 12 11 10 11 12 13 14 15 16 15 15 15 15 14 12 10 9 9 9
10 6 7 2 6 8 9 8 14 19 17 20 22 15 14 18 21 25 41 37 33 29 17 22 19 19 18 17 14 13 11 9 9 11 11 12 13 14 15 16 17 17 17 16 14 12 10 11 11
9 6 3 6 6 5 6 18 12 11 14 16 20 14 21 17 25 37 30 31 28 27 19 23 20 19 19 17 14 12 10 9 9 10 11 12 13 13 15 16 17 17 16 15 14 13 13 12 12
3 5 4 5 16 13 11 16 20 12 23 25 27 29 11 28 35 31 33 27 23 23 19 24 21 20 19 16 14 12 10 9 9 10 10 10 11 12 14 15 15 15 14 13 12 13 13 13 13
13 3 6 14 9 14 10 6 7 16 21 20 28 17 20 35 33 34 28 26 28 22 23 26 22 20 18 16 14 12 10 8 9 10 10 11 11 11 12 13 13 13 13 13 13 12 11 10 12
22 7 5 13 12 11 13 15 9 22 18 28 30 11 27 39 35 31 30 27 26 25 21 21 20 21 18 16 13 12 10 9 10 9 10 12 12 11 9 11 11 11 12 13 11 10 11 9 13
24 5 9 9 12 4 18 15 22 20 20 12 14 35 39 39 37 34 29 28 30 28 23 22 19 16 14 14 14 12 11 9 9 7 7 7 9 6 5 8 7 9 11 13 7 6 6 9 11
15 3 6 12 7 8 13 16 20 15 17 31 34 34 38 38 35 32 34 29 29 27 26 23 20 16 13 12 13 12 10 9 9 5 7 12 13 8 3 5 6 7 8 8 7 3 1 3 3
10 6 19 25 17 5 13 17 19 17 17 30 34 39 38 38 34 34 27 30 31 28 27 25 23 19 15 16 11 8 7 6 6 3 6 10 10 9 7 6 6 6 7 2 12 5 9 10 4
11 3 23 17 27 18 5 14 17 12 24 29 32 37 40 37 34 32 29 29 31 30 30 27 26 21 17 18 9 8 8 11 10 7 2 7 5 13 5 6 5 2 5 6 9 11 13 4 9
19 19 24 12 20 30 30 11 4 26 26 27 32 35 36 36 34 28 28 28 28 28 30 30 27 24 21 15 10 14 12 9 8 7 2 1 9 5 4 6 6 1 2 4 5 7 3 5 3
20 22 23 34 19 7 11 21 32 21 28 28 33 34 34 34 39 35 31 30 27 28 29 28 26 24 23 20 16 13 15 10 8 6 6 4 4 4 5 5 8 2 1 5 5 1 3 8 6
24 17 17 16 13 10 13 12 16 8 31 30 31 33 33 32 36 35 37 37 30 27 29 29 25 23 27 25 20 17 10 9 8 4 10 8 9 3 4 5 2 3 4 6 4 10 6 10 4
20 18 17 17 17 13 11 14 15 38 31 29 29 31 33 32 32 33 35 36 33 31 32 30 24 22 29 28 24 21 13 11 9 10 11 8 11 9 5 5 4 2 4 1 3 4 3 8 4
21 17 22 19 19 17 15 16 12 23 29 33 30 29 31 32 31 32 31 33 32 33 34 31 26 27 22 23 21 19 14 14 12 10 10 9 8 9 7 3 3 3 4 5 2 5 3 2 4
19 21 18 21 22 23 20 18 14 25 29 33 35 31 31 33 34 33 31 31 32 32 34 33 28 25 25 22 21 16 16 16 15 12 11 13 10 10 7 3 4 5 3 3 4 4 3 3 2
21 21 24 19 22 26 22 18 19 20 22 25 32 35 33 33 33 34 32 32 31 33 34 35 33 30 29 25 24 22 18 17 15 14 13 14 15 13 11 6 3 3 3 4 4 4 6 4 2
27 25 24 21 23 17 23 21 22 22 28 30 29 33 34 33 36 37 36 36 36 37 36 36 37 34 31 30 25 22 20 18 17 16 16 19 18 14 11 9 5 6 7 6 2 6 5 3 12
28 27 24 22 21 17 15 19 19 20 25 27 31 33 34 35 36 37 40 40 39 38 41 39 38 38 36 32 27 22 21 19 20 18 19 20 20 16 14 12 9 9 7 6 2 7 8 5 6
27 28 26 25 21 17 28 15 18 18 18 22 23 32 34 37 36 39 38 38 40 40 41 41 38 39 39 36 29 29 30 27 23 21 20 19 16 18 15 12 11 12 9 9 3 6 9 4 3
25 24 24 26 22 18 23 16 15 20 20 20 23 32 35 37 39 41 42 42 41 40 41 43 40 38 39 38 31 29 28 27 23 21 19 21 19 16 16 17 14 13 14 11 7 8 9 8 8
24 23 23 23 18 18 23 20 19 19 23 21 22 30 35 37 39 41 42 40 40 39 40 40 40 39 39 36 39 31 32 28 26 25 23 22 22 21 17 20 16 14 17 12 11 11 8 11 12
23 21 13 16 17 16 22 22 16 16 19 26 24 30 35 34 39 40 44 43 44 41 43 42 42 42 39 42 38 40 33 31 29 26 25 24 24 24 20 19 22 20 16 17 14 11 9 12 15
27 25 15 21 18 16 22 24 22 22 24 23 27 36 36 37 37 43 46 45 46 44 45 46 46 44 41 42 42 38 40 36 33 31 27 28 25 23 23 22 21 18 18 20 18 18 13 13 14
23 26 24 20 20 16 19 28 25 24 25 23 19 30 37 39 38 43 44 45 47 46 46 48 48 46 42 41 43 40 41 41 36 35 32 26 27 23 24 23 24 22 20 22 23 21 18 14 15
31 22 21 17 21 20 19 21 19 24 23 24 19 19 32 36 36 39 44 44 46 49 48 48 48 49 43 42 43 45 44 44 42 35 34 34 26 28 21 27 26 24 21 25 23 25 23 20 22
22 21 24 19 17 15 13 13 13 25 22 19 21 25 25 32 37 37 44 45 47 47 45 49 48 48 47 43 44 46 46 44 44 43 37 36 33 26 28 21 28 27 24 25 29 28 24 24 25
28 28 25 13 22 15 14 4 11 5 20 16 15 31 23 27 35 37 41 43 43 44 46 48 48 47 50 47 43 46 46 46 44 44 45 40 38 36 33 32 28 32 28 26 30 33 31 28 30

GFSSGP_850_spd_039.txt.gz
Wind_Speed
6 11 10 5 2 2 2 5 2 7 4 17 24 9 9 4 2 4 29 37 35 33 29 27 24 22 20 19 18 17 16 17 17 16 17 17 17 17 16 16 15 15 15 14 14 15 16 17 18
11 10 7 3 2 2 5 8 10 11 11 28 25 19 7 4 7 25 46 39 35 34 29 27 23 21 20 19 18 16 16 16 16 15 15 17 17 17 17 16 16 16 15 14 13 13 13 14 17
10 8 2 1 3 3 1 13 9 27 31 24 12 13 7 5 22 40 43 42 34 32 28 26 23 21 20 18 17 15 15 14 14 14 16 17 16 16 17 17 17 17 16 15 13 13 13 13 14
10 4 6 2 6 4 4 5 14 17 23 17 22 9 10 18 23 38 45 40 33 26 26 24 23 21 19 17 16 14 13 13 13 14 15 15 15 16 18 19 19 18 17 16 16 15 14 13 14
7 4 2 5 8 6 11 21 14 15 20 19 15 10 15 13 23 44 45 38 32 23 23 21 21 20 18 16 15 13 12 13 14 14 14 14 14 16 17 18 18 17 17 17 17 17 17 16 14
5 4 3 3 12 9 16 22 19 25 30 25 24 17 9 17 38 45 41 37 27 24 23 21 21 20 18 16 15 12 11 13 13 14 14 14 14 15 14 15 16 16 16 16 14 14 15 17 15
6 3 5 9 12 12 14 15 16 24 21 19 25 11 23 37 37 39 37 31 25 22 24 22 22 21 18 16 14 12 11 13 13 14 14 14 14 13 13 13 13 15 15 14 13 12 14 17 16
10 4 8 7 5 6 15 13 23 24 17 34 31 9 27 37 32 41 33 30 20 19 22 24 23 21 18 16 14 12 12 14 14 14 15 15 14 12 11 10 12 14 12 12 12 11 12 13 16
15 5 5 6 11 5 2 21 28 26 33 14 16 37 40 41 37 35 30 34 27 20 24 25 24 21 18 15 14 12 14 14 13 13 12 12 13 12 8 8 9 11 9 9 9 9 10 13 12
8 2 9 9 10 9 11 24 26 28 27 27 36 38 40 41 37 34 35 32 36 26 23 26 24 21 18 16 14 13 13 13 12 9 10 12 13 12 5 6 7 7 7 8 8 9 9 5 11
16 9 11 20 20 16 22 5 23 29 17 40 44 45 39 40 38 35 36 34 36 27 24 23 23 20 18 17 15 15 15 12 14 11 9 11 9 10 10 5 6 6 8 7 5 6 7 12 10
11 17 13 13 11 9 8 10 14 34 21 42 48 48 44 40 39 40 34 31 36 27 27 22 19 18 18 15 13 14 11 11 12 5 6 8 8 7 7 7 6 3 5 8 9 10 9 9 8
18 11 23 15 18 27 42 28 21 32 40 43 44 42 41 36 39 38 38 32 33 29 30 27 23 21 19 18 8 13 11 9 9 5 2 2 9 9 5 7 5 4 5 5 4 6 6 6 8
21 19 17 14 28 15 18 7 18 38 45 44 43 43 41 37 37 38 35 34 39 36 36 33 28 24 21 18 15 10 8 9 13 8 4 5 7 7 6 6 3 4 4 4 4 7 11 14 14
26 11 14 20 24 11 15 6 11 41 43 40 41 42 41 43 40 38 40 36 37 34 39 38 33 27 26 21 20 17 17 13 12 8 8 5 5 5 5 6 3 5 8 7 10 8 11 13 12
17 16 15 22 19 24 20 8 18 43 47 40 38 40 43 44 47 44 42 39 34 31 40 39 33 29 30 30 25 22 21 17 10 10 9 6 12 8 7 5 5 4 2 8 5 6 9 8 8
10 12 9 13 15 9 7 8 17 36 36 30 37 39 40 45 45 43 38 43 39 33 36 36 34 29 26 29 27 26 24 20 14 11 12 8 7 11 7 5 7 9 8 5 5 3 5 4 9
10 7 11 12 16 12 7 8 27 37 45 44 27 36 38 41 50 48 43 41 41 40 36 35 32 28 22 22 32 27 24 22 18 9 11 10 7 10 9 7 9 8 7 6 5 5 6 7 8
11 17 11 12 15 11 15 10 26 33 35 31 27 33 39 39 43 45 47 44 43 43 41 40 35 29 26 23 29 28 28 25 22 18 13 13 12 10 10 11 7 10 5 5 4 8 10 5 6
18 21 17 15 17 10 16 14 16 25 35 40 37 27 28 38 38 44 41 44 43 48 44 43 38 34 30 27 24 26 22 23 21 22 16 16 15 13 11 11 9 7 6 4 5 9 8 6 13
22 18 17 14 13 17 16 18 9 25 33 34 42 42 42 44 43 44 45 40 41 45 46 44 41 37 34 31 26 22 22 18 21 18 22 17 19 17 13 12 11 9 9 6 5 9 9 7 14
19 18 21 20 14 7 11 6 10 16 22 29 44 45 54 47 47 45 48 45 41 43 44 42 40 39 37 35 31 28 29 29 26 23 18 22 20 18 16 14 12 13 11 10 6 11 11 10 10
15 17 21 22 15 8 11 11 12 12 20 27 27 46 52 52 48 46 51 50 48 44 45 44 42 39 39 38 35 31 30 29 27 22 23 20 20 15 13 15 12 13 13 11 8 10 14 10 10
16 10 11 16 14 13 14 9 9 15 18 16 31 46 46 49 48 52 54 51 49 48 46 46 43 41 39 42 39 36 34 32 29 29 23 21 21 19 17 15 15 12 15 16 12 9 11 12 13
18 12 7 9 13 13 8 7 8 6 16 14 22 39 44 52 50 49 51 51 50 50 48 48 46 44 42 41 43 40 36 33 33 29 29 25 24 25 22 19 19 17 15 20 13 11 12 13 17
22 21 6 8 8 10 7 15 9 11 9 19 25 36 46 51 47 51 56 55 54 52 51 49 49 48 45 42 41 42 40 35 33 31 29 29 28 26 21 21 18 17 17 18 19 16 13 13 16
17 19 11 3 7 3 4 8 12 20 15 13 14 22 46 45 50 54 58 57 58 55 54 52 51 49 46 44 41 41 43 40 37 34 32 28 27 25 22 19 20 17 15 17 21 21 18 17 15
20 11 12 9 9 9 11 14 16 16 21 17 12 14 44 48 51 53 58 57 58 56 54 52 51 49 46 44 42 41 43 44 42 36 35 31 27 29 24 23 23 22 20 20 20 24 24 22 19
11 12 15 5 6 6 4 8 18 22 23 21 16 21 34 45 50 52 56 57 58 55 54 54 52 50 48 44 41 43 43 44 44 41 35 37 32 28 31 26 24 28 26 24 22 25 26 26 23
18 19 13 11 13 7 6 11 9 8 27 23 19 27 29 45 45 53 57 57 55 55 54 53 52 51 49 45 42 42 42 43 44 44 39 37 36 35 31 34 33 25 28 27 22 21 26 28 28

GFSSGP_850_spd_042.txt.gz
Wind_Speed
6 14 12 5 2 2 2 2 1 5 4 9 24 3 6 9 1 3 31 35 33 32 30 27 24 25 23 21 20 20 19 19 19 19 19 20 18 17 17 17 16 16 17 16 16 17 17 17 19
10 11 6 1 2 1 2 3 11 15 9 15 8 10 6 5 7 24 40 35 34 33 31 27 24 24 23 21 20 18 18 18 18 18 19 19 18 17 17 17 16 15 15 14 14 15 15 17 19
9 7 0 2 3 2 2 9 11 18 15 17 6 9 5 4 17 43 40 38 36 32 30 27 24 24 22 20 18 17 17 17 17 18 18 18 18 18 18 18 17 16 15 15 15 16 15 16 17
10 4 4 2 2 5 3 1 12 21 21 5 16 9 7 6 42 32 43 37 35 31 29 26 25 23 22 19 18 16 17 17 17 17 17 17 19 20 20 19 19 18 18 17 16 15 15 17 18
7 4 1 1 4 5 6 15 17 15 7 11 4 9 17 11 22 43 40 36 35 31 28 26 23 22 20 18 17 16 16 16 16 17 17 18 19 20 20 20 19 18 17 16 16 16 16 17 16
3 0 2 3 8 11 10 15 11 9 13 16 17 14 5 15 39 44 36 35 32 29 26 26 23 21 19 18 16 15 16 16 16 16 17 17 19 19 18 18 18 16 15 15 15 14 16 17 15
5 1 1 1 3 1 7 13 5 12 16 10 21 6 16 25 43 40 35 31 27 26 25 26 23 21 19 17 16 15 16 17 17 16 17 17 18 17 16 16 16 15 14 14 13 12 14 16 17
6 3 2 2 6 6 7 12 26 16 6 20 25 8 14 41 45 39 32 29 26 25 24 25 23 21 19 17 15 15 16 16 17 17 17 17 17 17 16 15 13 13 13 14 13 11 12 15 16
4 1 2 4 9 1 6 7 21 8 22 5 6 19 37 51 45 37 30 26 26 26 25 24 23 21 19 17 15 16 16 16 15 16 16 16 17 17 16 14 11 11 11 10 10 9 9 11 13
3 2 7 8 6 13 3 2 12 11 15 16 25 38 42 49 44 38 34 31 29 27 27 25 23 21 19 18 17 16 15 13 12 11 11 13 14 15 15 14 11 9 8 9 10 10 6 6 9
12 6 7 8 14 7 4 16 7 23 8 33 42 42 43 43 44 41 37 31 30 25 27 26 24 21 20 19 18 17 15 15 15 13 12 12 11 12 15 13 13 10 5 7 6 6 10 11 8
8 20 12 9 16 14 8 21 16 13 10 34 51 52 48 48 44 44 41 34 31 27 28 27 25 22 20 19 18 17 16 13 13 11 8 8 9 10 11 10 8 6 9 7 8 8 10 10 11
14 16 22 18 20 13 9 16 13 11 24 36 39 42 45 44 41 37 40 31 33 28 27 28 25 23 23 21 19 17 14 12 12 9 8 10 10 11 10 8 9 9 5 6 5 5 9 7 11
9 24 15 13 11 4 11 1 13 22 37 39 39 39 39 41 41 39 34 34 36 30 27 29 27 24 26 20 20 16 12 10 9 8 8 9 10 9 8 8 7 6 6 5 6 12 9 13 11
26 14 11 21 25 5 17 6 12 38 39 39 36 36 36 37 42 43 39 35 35 32 29 30 27 24 25 21 21 14 7 10 7 10 6 4 5 6 7 7 6 8 9 10 9 10 13 12 10
7 11 12 17 13 14 19 10 16 38 41 37 36 35 36 35 44 44 41 36 37 35 34 31 29 26 25 23 22 16 11 14 10 10 7 2 2 5 6 5 7 6 6 7 6 7 13 13 10
3 8 8 17 20 12 12 6 23 33 35 35 38 39 36 34 40 42 46 41 41 39 36 36 34 30 29 26 24 22 21 15 11 10 8 5 3 6 7 7 8 6 7 7 6 8 7 6 6
5 5 6 10 14 24 21 10 25 39 38 40 41 43 41 39 44 47 45 44 39 43 36 39 39 34 32 28 25 25 25 21 16 11 13 9 5 8 8 6 10 10 8 7 6 5 5 8 6
6 8 10 9 11 9 24 20 27 38 35 35 39 40 43 43 44 47 45 45 45 42 39 44 44 40 35 35 31 30 28 28 24 15 13 14 10 7 8 9 10 11 10 6 7 7 9 9 8
13 10 13 14 15 6 5 26 28 25 33 44 40 40 42 39 46 47 47 46 49 48 45 44 47 43 37 31 27 33 33 31 28 21 15 15 14 12 9 12 10 13 10 8 7 10 13 10 12
14 14 14 9 10 5 4 11 23 25 28 26 32 44 46 49 48 52 50 48 51 50 49 47 48 44 39 32 27 28 32 33 30 29 24 19 15 14 11 10 14 12 10 7 6 13 10 10 16
16 18 17 15 6 7 5 5 18 21 21 18 33 38 45 45 44 49 51 53 53 53 51 49 48 45 41 35 30 28 33 34 34 30 29 23 18 17 13 11 15 13 12 9 8 12 11 12 16
18 11 14 18 5 2 16 2 14 28 21 26 24 37 41 46 50 47 53 56 55 55 55 53 50 48 44 39 34 31 31 33 28 27 23 22 23 19 15 14 16 15 14 11 11 13 15 14 18
9 11 9 10 3 9 20 7 7 22 29 28 26 39 38 43 47 49 54 51 55 58 57 59 54 51 47 41 37 34 34 31 31 28 26 25 24 21 18 14 18 16 16 14 14 13 17 14 14
15 7 7 7 7 10 13 6 12 19 30 37 34 50 43 43 49 47 48 51 54 57 55 57 56 53 48 43 39 37 36 32 32 31 29 27 26 24 22 20 17 19 17 16 16 16 15 15 16
13 11 6 13 5 11 5 8 6 15 26 45 52 58 50 44 52 50 54 56 53 60 57 57 56 53 50 46 42 38 38 35 34 33 31 30 27 24 21 21 19 16 18 18 18 17 14 16 17
13 17 12 6 3 3 4 5 4 11 11 12 39 39 41 46 51 52 51 57 56 61 63 60 58 55 52 48 43 40 38 38 37 35 34 32 31 26 23 23 22 20 18 20 18 20 17 16 16
17 9 8 4 7 5 6 5 6 9 14 8 12 36 47 49 52 52 52 57 59 65 62 58 59 56 51 49 45 42 39 39 39 36 34 33 31 29 26 24 23 20 19 19 19 18 19 20 19
6 16 6 6 6 7 4 9 9 10 13 13 12 38 50 51 54 56 56 60 65 62 62 58 59 55 52 48 45 43 42 41 43 41 37 33 32 31 30 27 23 24 22 22 23 21 19 23 23
21 7 10 9 10 4 5 11 5 11 16 18 24 33 46 58 59 56 57 58 56 54 57 60 57 55 51 43 42 43 42 40 42 44 41 37 35 34 31 31 30 22 24 26 27 26 24 24 26

GFSSGP_850_spd_045.txt.gz
Wind_Speed
12 14 13 6 2 2 3 3 2 7 4 12 32 6 7 5 2 3 28 33 31 32 28 24 25 24 23 22 22 21 20 21 21 20 20 18 19 18 17 17 17 16 15 15 14 14 15 14 15
14 16 8 3 2 2 3 1 6 9 4 12 20 13 5 3 5 17 36 33 32 33 29 26 25 24 22 21 21 20 19 21 20 18 19 18 18 17 17 17 16 15 13 13 13 14 16 16 17
13 9 1 1 2 2 2 3 6 3 1 13 7 12 5 5 12 39 36 35 35 33 28 27 26 23 22 20 20 19 18 20 20 18 18 18 17 18 18 17 16 14 13 13 13 13 15 15 17
11 4 2 2 3 4 4 6 14 11 7 7 15 8 6 4 33 31 40 36 35 32 28 27 25 23 21 19 18 17 19 19 18 17 19 19 20 20 20 19 18 16 15 14 14 13 15 15 14
7 2 2 1 3 3 1 11 12 8 10 12 6 5 9 21 22 41 38 37 35 32 28 26 24 22 20 18 17 17 18 18 17 17 19 22 22 21 21 19 18 17 16 14 13 13 16 15 15
3 1 1 1 3 6 3 4 5 5 7 10 12 13 7 12 32 40 38 35 32 31 28 26 23 21 19 18 17 16 17 17 17 19 20 20 21 20 19 17 17 17 15 13 13 14 15 14 14
4 2 3 1 5 2 5 9 9 5 8 6 21 5 12 22 41 37 37 34 31 29 27 25 23 21 19 17 16 16 16 17 17 18 20 20 19 19 16 17 18 18 16 13 13 13 14 14 12
4 1 3 2 3 4 1 4 5 8 2 16 14 7 13 37 42 38 35 32 29 27 26 25 23 21 19 17 17 17 16 16 17 17 18 19 19 17 15 15 17 17 16 15 12 12 13 13 12
4 2 3 5 6 2 6 4 5 1 10 5 6 18 36 50 42 38 35 30 27 25 25 24 22 20 18 16 16 17 16 15 15 15 16 17 17 16 16 15 14 14 12 11 10 12 12 11 11
3 2 5 6 8 1 2 10 14 7 15 5 14 26 48 49 43 40 37 34 30 27 26 23 22 20 18 16 17 16 15 15 15 15 14 15 15 14 14 14 13 11 10 11 9 7 9 9 8
7 4 3 3 11 1 6 15 15 15 3 9 34 47 54 49 43 40 36 34 32 29 26 24 22 20 18 17 18 16 14 14 13 12 13 12 13 13 12 12 12 10 9 11 8 10 7 9 9
3 11 14 3 11 7 8 12 7 17 7 22 37 60 58 50 45 40 37 34 32 30 26 25 22 20 19 18 17 16 17 16 14 13 14 9 10 11 12 12 10 9 9 8 7 10 11 8 9
12 11 12 24 26 19 10 15 7 19 5 26 39 45 50 48 43 39 36 32 31 29 28 26 24 21 20 19 18 17 16 15 14 12 10 10 8 8 8 8 9 9 7 6 7 7 7 7 6
8 19 22 23 20 11 10 6 13 10 26 35 38 42 42 46 45 39 38 36 33 28 28 27 25 22 22 22 20 18 16 13 11 10 10 9 9 8 9 8 7 7 8 6 6 6 6 11 10
18 9 10 16 15 2 14 3 4 26 31 36 35 35 36 37 41 41 41 38 35 29 27 28 26 23 23 23 21 18 14 12 10 11 11 10 7 6 6 9 9 10 9 8 8 9 12 13 12
5 5 3 9 7 9 10 3 13 28 33 32 33 34 37 37 39 39 40 37 34 30 29 29 28 26 27 25 23 18 13 11 13 13 11 9 4 3 7 8 8 9 9 11 11 13 11 10 7
3 4 7 8 11 4 8 4 16 30 30 30 33 35 35 35 39 42 41 36 34 33 31 31 31 29 30 25 24 18 14 13 13 13 13 9 2 4 6 5 7 8 7 9 7 10 11 10 5
6 4 4 6 4 11 11 6 18 28 30 32 31 35 37 38 45 45 45 38 35 34 31 32 33 30 30 28 25 20 17 15 14 13 13 10 3 3 4 4 7 8 6 6 6 6 4 8 7
4 4 6 6 6 8 15 9 20 30 25 26 31 32 36 38 42 46 47 44 38 36 36 34 35 33 31 31 30 27 24 21 16 14 13 13 8 3 5 5 8 8 6 5 7 7 7 8 8
8 5 6 10 5 6 7 17 18 21 31 39 40 38 38 35 37 45 49 47 46 41 40 40 38 36 36 34 31 30 27 26 22 17 14 14 12 8 6 7 8 8 10 7 8 8 11 9 8
13 13 9 9 5 3 4 7 14 20 10 21 27 34 36 42 43 45 50 50 48 48 45 46 40 41 40 37 35 32 30 28 29 25 21 15 15 13 10 8 11 10 11 9 6 10 11 10 10
12 12 14 14 3 4 5 4 11 16 22 21 30 35 38 40 40 44 47 53 54 53 48 47 46 42 44 43 38 34 33 35 33 32 26 20 17 15 14 11 11 13 12 10 8 9 11 10 14
14 6 9 8 3 3 9 3 7 15 19 22 27 38 41 44 45 47 52 52 51 53 52 51 48 46 44 47 42 36 33 35 37 35 30 27 21 18 16 14 10 13 14 11 9 9 13 12 15
4 4 3 1 3 10 17 8 5 13 25 22 27 39 42 43 46 48 55 51 49 51 55 54 53 50 46 49 46 39 34 30 33 33 33 30 27 24 20 16 13 14 15 13 12 10 15 12 15
11 7 4 4 5 13 7 7 13 22 25 28 28 44 44 43 42 43 50 49 54 54 53 56 56 54 50 49 49 43 38 32 30 31 31 31 27 25 23 18 16 15 16 14 13 13 12 16 14
12 15 6 8 4 8 6 8 6 14 24 40 39 48 41 41 45 46 43 52 54 56 57 56 57 56 54 52 51 47 41 35 31 31 32 31 30 26 20 19 18 16 16 15 15 15 14 14 15
8 19 12 5 3 2 4 5 6 7 13 19 30 35 34 35 40 41 45 49 52 56 58 58 59 57 56 54 52 50 45 39 34 33 31 32 29 26 23 20 20 18 17 17 17 17 17 16 17
15 8 7 4 10 5 4 5 7 12 12 14 19 29 36 41 43 46 42 46 53 56 55 57 57 55 55 57 54 52 47 41 35 35 35 33 31 29 26 24 22 21 19 19 19 19 18 19 17
8 11 4 6 5 13 1 8 8 9 14 19 19 36 38 42 48 54 50 50 54 52 55 57 58 56 57 55 54 52 49 43 38 36 36 34 33 32 29 28 25 23 21 20 21 20 19 21 21
9 11 8 10 13 1 3 16 5 11 13 15 22 36 40 45 50 51 54 52 54 49 50 57 57 58 57 54 52 52 48 45 42 37 35 34 34 33 33 29 27 25 24 24 24 24 24 23 23

GFSSGP_850_spd_048.txt.gz
Wind_Speed
15 15 14 7 1 1 2 3 1 3 2 3 20 6 5 5 2 3 27 32 31 29 24 22 23 21 21 20 19 18 18 17 17 16 15 15 15 15 14 13 13 13 10 11 11 10 10 11 13
15 17 11 5 1 2 1 1 3 5 4 16 14 12 6 3 4 17 37 33 33 30 26 24 22 22 21 20 19 18 18 17 16 16 16 16 15 14 15 14 13 12 11 11 12 11 13 15 16
16 13 2 1 1 2 1 2 5 2 8 19 7 8 3 3 6 40 35 36 35 30 27 26 22 22 21 20 18 19 18 17 17 16 15 15 15 15 14 13 12 12 11 10 11 13 13 14 14
12 5 3 2 3 2 3 4 6 3 4 10 14 8 5 1 25 30 38 37 35 29 28 26 22 22 21 19 17 18 19 18 16 16 16 17 16 16 16 14 12 13 12 10 11 12 13 13 12
8 3 2 2 1 1 5 4 8 5 6 8 7 5 7 15 21 36 37 37 34 30 27 26 22 21 20 18 16 18 20 17 16 17 18 19 18 17 16 15 15 14 12 10 12 13 13 12 13
2 1 0 1 2 2 2 2 3 6 7 5 10 10 4 16 28 37 37 37 32 30 28 25 22 20 18 17 17 18 17 17 17 19 20 19 17 16 16 15 14 13 13 12 12 13 13 13 13
2 2 2 1 1 4 2 4 1 2 7 5 20 5 10 18 37 35 37 35 32 28 27 25 23 19 17 16 17 17 17 17 18 19 20 18 17 16 17 15 15 14 14 14 12 11 12 11 14
2 2 1 2 1 4 4 4 4 6 4 20 13 8 13 31 41 38 35 34 31 28 26 24 22 20 17 16 17 17 17 17 18 18 18 17 16 16 15 14 16 16 15 14 13 10 10 9 11
3 1 3 5 1 6 11 8 5 6 12 7 12 11 30 39 40 39 35 33 30 27 26 24 22 20 17 16 17 16 15 15 16 17 16 14 14 14 15 13 14 12 13 14 14 12 9 10 11
4 2 5 4 6 5 7 13 14 7 14 3 10 17 41 45 42 41 39 35 33 29 28 24 22 20 17 17 17 16 16 15 15 15 15 13 12 12 13 13 11 9 10 12 11 10 10 9 10
6 4 3 6 9 8 10 8 11 12 8 13 27 40 48 49 44 42 39 38 36 31 29 26 23 20 18 17 17 16 15 15 16 14 14 13 10 10 11 11 10 9 8 9 9 8 7 6 6
4 11 9 5 11 3 3 8 6 17 4 17 27 48 57 51 48 45 42 39 36 33 30 26 23 21 18 18 17 16 15 13 12 13 13 12 10 9 8 10 7 9 8 6 7 9 7 5 4
9 7 7 13 17 16 13 9 7 15 2 13 34 48 51 49 46 43 41 38 35 32 30 27 25 22 20 19 17 16 16 16 15 14 12 11 10 8 8 5 5 9 7 7 11 9 8 6 4
8 15 17 15 19 13 7 5 11 7 14 25 44 43 41 43 46 42 40 38 35 32 30 28 25 23 21 19 20 18 16 16 14 11 13 9 8 7 7 6 6 5 7 5 7 7 8 7 10
10 5 5 9 7 6 10 4 4 23 22 34 37 39 38 41 43 45 42 38 35 32 30 29 26 24 22 21 20 20 17 14 13 12 12 9 7 8 9 6 6 6 8 7 6 9 11 9 11
4 3 1 4 7 7 10 3 5 27 31 32 35 35 35 38 43 43 41 37 35 32 31 29 27 25 24 23 22 20 16 13 11 12 12 9 7 7 7 7 7 8 8 8 7 11 11 10 7
4 4 7 3 8 3 6 1 10 23 25 27 33 35 35 35 37 42 42 40 37 33 31 31 29 27 26 26 24 20 16 12 12 14 13 10 7 6 9 7 8 7 8 9 7 9 8 5 4
7 4 4 5 3 7 6 1 13 25 27 29 29 33 34 36 41 42 41 40 37 35 31 30 30 28 27 28 25 22 18 14 15 15 14 11 6 7 7 6 7 8 8 6 9 7 5 3 3
4 4 6 4 6 5 8 7 16 23 21 25 29 32 35 39 36 38 41 40 38 36 34 32 32 31 31 31 29 26 22 17 15 15 14 13 9 7 7 5 6 7 7 6 7 7 3 7 7
7 2 4 5 2 4 5 10 12 18 28 36 35 33 35 33 35 38 43 42 41 38 38 35 32 34 33 34 31 29 24 20 16 13 13 14 11 8 7 5 5 7 7 4 6 7 6 7 8
12 8 5 1 4 2 4 5 6 14 15 23 25 31 31 36 37 40 43 46 44 42 40 37 34 36 34 34 33 30 27 23 21 19 16 13 13 11 9 7 7 8 6 6 5 6 8 9 8
9 14 14 5 1 3 2 5 6 8 17 19 24 32 33 36 37 40 45 47 48 46 42 39 37 37 35 33 33 31 30 29 27 24 21 17 13 13 11 10 7 8 7 7 6 5 7 10 9
12 8 11 11 5 1 5 1 7 10 11 16 24 32 35 39 42 42 49 54 50 48 46 43 40 39 38 37 36 34 32 30 28 27 25 23 19 15 13 12 10 8 10 9 8 7 9 9 10
4 1 3 3 4 8 11 10 6 7 12 18 19 30 33 36 41 43 45 42 50 48 49 48 45 42 41 39 38 39 36 33 30 30 31 28 26 22 18 15 14 11 10 11 9 9 9 11 12
10 10 2 3 5 12 8 12 9 8 9 14 22 36 41 41 41 45 44 45 48 48 51 49 50 47 44 43 41 39 40 37 31 27 29 32 31 29 25 20 17 14 11 11 11 11 10 13 13
14 11 6 8 4 14 6 7 6 20 12 27 31 41 35 32 37 41 44 48 53 52 51 51 51 52 47 44 41 39 39 40 35 30 25 28 29 28 22 21 18 15 12 12 12 13 13 11 16
6 14 11 4 1 1 9 4 8 3 13 12 24 26 30 36 40 42 46 48 52 54 54 54 51 50 51 48 43 42 40 41 40 34 28 25 27 26 24 19 18 17 15 13 14 15 15 15 14
11 9 8 3 6 5 4 6 8 8 9 10 8 20 27 37 38 41 45 47 51 55 56 54 52 50 50 49 47 45 43 41 41 38 32 28 27 27 26 23 20 19 18 17 17 17 16 17 17
6 11 4 7 7 6 1 6 8 11 14 14 14 26 32 35 42 46 50 52 52 50 51 55 54 53 52 51 49 48 46 44 43 42 36 31 28 27 28 24 22 21 21 21 22 21 19 19 19
3 4 5 9 12 4 4 6 4 10 11 13 21 28 34 37 46 50 52 48 48 50 50 52 53 54 52 51 49 48 46 45 45 44 39 33 30 29 29 27 26 26 24 23 23 22 21 20 20

GFSSGP_850_spd_051.txt.gz
Wind_Speed
16 15 14 7 2 1 3 1 1 5 5 4 16 5 8 6 2 3 24 28 31 29 26 22 20 19 19 18 18 17 16 15 15 14 13 12 11 10 10 9 10 8 8 9 10 9 11 13 11
17 17 10 1 2 3 2 2 3 4 7 18 12 11 6 4 4 15 31 32 30 27 23 22 21 18 19 17 17 16 16 15 15 14 14 13 12 11 10 11 10 9 8 8 10 10 13 14 14
17 15 3 2 2 3 3 3 1 5 14 19 6 8 4 4 6 33 26 34 30 26 23 23 20 19 19 16 16 16 15 15 14 14 14 13 12 12 11 11 9 8 7 8 11 12 13 13 12
11 6 3 3 5 3 1 4 6 6 12 11 11 8 5 2 20 26 37 35 30 26 22 23 20 20 18 16 17 17 16 16 14 14 14 14 14 13 11 9 9 8 8 8 11 12 13 12 13
10 2 2 2 3 2 5 3 3 9 12 10 5 6 5 10 22 33 37 31 29 25 23 22 21 21 17 16 17 17 16 16 15 15 16 16 15 14 12 12 11 9 8 8 10 11 11 13 15
3 1 2 2 3 3 5 5 1 9 8 10 8 10 4 12 26 34 33 30 27 27 23 22 20 20 16 16 18 17 16 17 16 17 17 17 16 14 13 13 12 11 10 11 12 13 13 14 13
2 1 2 1 2 3 4 7 4 7 11 7 15 6 10 20 31 33 31 28 25 25 23 22 19 19 17 17 18 16 17 17 18 17 17 16 16 15 13 13 13 13 13 13 12 12 12 13 13
3 1 3 3 3 3 5 7 5 6 4 16 11 6 10 27 35 30 30 27 24 24 22 24 20 18 17 17 17 17 17 18 17 17 17 17 17 16 15 15 15 14 14 13 13 12 12 12 12
3 2 3 4 3 2 4 5 4 6 15 5 9 9 23 34 35 30 30 27 24 23 21 24 20 19 18 18 17 17 17 17 17 16 15 14 15 15 14 13 14 13 14 13 12 12 13 13 13
5 3 3 4 7 4 6 6 8 5 14 6 8 17 33 34 33 33 32 30 26 25 22 23 21 19 19 18 18 17 16 16 16 14 14 13 13 12 12 10 11 13 12 12 12 12 12 11 11
5 4 2 6 8 6 1 7 7 7 10 11 22 29 36 37 35 33 31 29 28 26 24 25 23 20 19 18 18 17 17 17 16 15 13 13 11 11 10 9 9 9 11 9 8 8 9 9 7
4 11 5 1 7 4 5 3 4 13 2 12 23 32 41 40 38 35 33 29 27 25 27 26 23 21 19 18 17 16 17 16 15 14 13 11 10 10 8 8 6 7 7 6 7 6 6 7 7
14 5 6 7 7 9 9 10 6 13 3 11 25 34 39 37 35 32 30 28 26 27 29 28 25 22 20 19 18 18 16 15 14 13 12 11 9 8 8 6 5 7 7 6 8 8 7 6 7
6 16 11 10 9 9 10 9 9 5 12 20 28 36 39 38 37 32 31 31 29 30 30 29 26 23 21 20 18 17 16 16 16 13 12 12 9 7 5 4 5 5 6 6 7 7 6 7 7
9 5 8 10 10 7 4 4 9 15 17 24 28 35 37 35 35 34 33 33 34 33 30 29 27 24 22 20 19 19 17 16 13 12 12 11 10 8 7 4 5 4 5 5 5 8 6 8 8
5 5 5 4 11 7 9 2 6 18 22 23 27 34 36 34 35 32 31 32 33 33 32 29 28 26 24 23 21 19 17 14 12 11 11 10 10 9 8 5 7 7 7 7 7 9 7 8 6
5 8 13 4 8 5 12 1 8 17 19 24 28 33 35 34 32 30 30 32 34 34 32 31 29 27 25 24 23 20 17 14 11 11 10 9 8 8 9 7 7 7 7 7 10 9 9 7 7
12 13 7 13 8 11 13 6 11 19 19 24 28 32 32 34 36 32 31 30 32 34 33 31 30 28 26 25 25 23 19 16 14 14 12 9 8 7 8 5 6 6 10 6 8 7 5 5 6
5 6 12 10 7 10 13 10 13 19 19 21 26 31 33 35 33 31 30 31 30 35 35 34 33 30 29 28 28 26 23 17 15 14 12 10 7 8 8 6 8 8 8 8 8 7 4 6 8
17 7 12 10 2 9 9 14 11 19 24 29 31 32 35 33 33 33 32 32 33 37 37 35 35 33 31 31 30 29 24 20 17 15 13 12 9 7 8 6 6 7 6 6 7 6 5 6 7
19 19 11 6 5 10 7 13 12 15 17 21 24 25 27 34 37 36 36 35 34 37 40 38 36 35 34 32 32 29 25 21 19 16 14 13 12 9 7 6 5 7 5 6 5 7 8 7 7
19 17 18 12 5 11 10 13 14 14 19 20 26 29 31 33 35 36 38 38 38 38 42 40 37 35 35 34 36 32 30 27 23 19 15 12 11 11 9 8 6 6 6 7 5 4 7 10 8
15 8 18 19 14 11 12 8 16 10 15 20 27 32 32 34 37 39 40 39 36 35 42 41 40 37 35 37 36 35 31 28 25 21 18 17 14 12 11 11 9 6 7 7 5 5 7 8 8
9 4 13 14 14 16 21 13 16 12 18 18 24 30 32 34 37 37 36 35 37 34 40 42 41 39 36 38 37 36 33 29 26 25 23 21 20 18 15 13 12 10 8 9 7 7 7 9 9
20 15 6 7 10 19 19 16 17 13 13 15 21 32 36 37 37 38 37 38 39 41 41 45 44 42 40 40 39 38 35 32 29 26 25 25 26 24 22 17 15 13 11 9 11 10 10 9 10
22 19 9 12 12 16 16 13 14 24 26 15 20 26 26 32 34 37 38 39 44 46 48 48 47 47 45 44 43 40 38 36 34 32 29 25 26 28 25 22 20 17 14 12 12 11 11 11 12
15 22 21 13 3 10 15 19 11 13 16 24 22 18 23 29 35 38 39 41 42 47 50 50 48 48 48 47 45 43 41 38 36 35 31 28 24 22 25 23 20 20 17 15 12 13 12 12 12
19 12 18 13 19 14 8 19 14 21 15 17 18 22 23 27 31 34 37 42 47 46 48 49 47 46 47 48 47 45 44 41 35 33 33 31 25 20 20 21 21 20 20 18 16 15 14 14 14
14 13 14 18 16 14 15 8 13 19 20 19 15 28 28 28 32 34 38 43 48 46 48 50 49 46 46 45 45 46 45 43 39 36 32 31 29 24 22 22 24 23 22 21 20 18 17 17 16
9 13 25 13 22 19 11 11 5 13 19 25 29 26 28 32 32 34 36 35 36 45 47 52 52 50 47 45 44 44 44 43 42 39 35 32 31 28 25 25 26 25 26 24 23 21 21 21 19

GFSSGP_850_spd_054.txt.gz
Wind_Speed
13 14 9 5 3 5 3 4 2 9 10 8 16 6 9 12 8 8 27 25 26 23 20 21 19 18 16 15 14 13 12 12 12 11 10 8 8 7 8 10 9 9 10 11 10 11 11 11 11
15 15 10 2 4 4 4 6 4 5 10 18 12 13 7 9 10 24 28 27 26 23 19 19 19 18 17 15 14 13 13 13 12 11 10 9 9 9 9 8 8 9 9 9 9 12 12 11 11
14 10 2 2 3 4 3 7 6 11 16 16 6 8 5 6 14 31 27 30 26 23 19 20 19 18 18 16 15 14 14 13 12 12 11 10 11 9 8 7 6 6 8 10 12 13 14 13 13
10 6 2 4 8 2 2 9 8 15 17 8 14 10 8 6 24 24 31 29 26 24 20 21 21 17 17 16 15 14 14 14 14 13 12 11 12 10 8 8 8 7 8 10 12 13 13 14 13
8 5 4 5 6 3 7 5 4 12 14 8 7 9 7 16 15 30 31 27 25 24 20 19 20 16 17 16 15 14 14 14 14 13 13 13 12 11 11 10 9 8 9 11 11 11 13 14 13
5 4 5 3 2 4 10 6 2 9 8 8 8 11 7 13 25 32 29 27 24 23 21 19 19 16 15 16 15 14 14 15 16 15 15 14 13 12 12 11 10 11 12 13 13 13 14 14 13
10 5 3 3 2 6 12 10 7 13 10 12 11 6 11 21 31 32 29 26 24 23 20 18 16 16 15 16 15 14 16 18 17 15 14 14 13 13 12 13 13 14 14 13 13 13 12 13 13
6 4 4 4 3 7 8 7 6 9 8 9 10 7 14 29 33 31 28 26 24 22 20 19 16 13 13 15 14 15 17 17 16 14 14 15 14 16 14 14 15 16 14 14 13 12 12 13 15
5 5 4 1 7 7 11 8 11 8 12 7 11 8 22 36 34 32 29 26 24 23 20 18 17 15 15 13 15 15 17 16 14 14 15 14 10 11 12 13 15 16 15 14 14 13 13 13 15
7 5 3 2 8 9 9 12 11 9 13 10 8 13 34 37 34 35 32 29 26 24 22 19 18 15 15 13 14 13 12 12 10 10 11 10 11 11 9 11 13 14 14 14 13 13 16 12 8
9 5 3 4 4 8 5 6 8 6 9 11 17 30 35 38 35 34 31 29 27 25 22 21 18 16 15 14 13 12 12 12 11 12 11 11 10 8 8 6 7 6 11 6 8 10 7 7 7
9 11 8 7 10 8 8 4 6 5 5 9 20 30 38 39 37 35 32 30 27 26 23 21 18 17 16 14 14 13 12 12 10 10 12 10 8 8 7 5 5 8 7 7 8 6 7 6 6
16 9 10 7 7 4 3 5 3 6 5 14 23 30 37 37 34 32 30 29 27 26 24 21 19 18 16 16 14 13 12 11 10 11 11 8 8 8 7 5 6 5 6 6 8 7 6 5 5
2 17 6 6 11 7 9 6 5 7 11 18 25 30 37 37 35 33 31 30 27 25 24 22 19 18 17 16 16 14 12 12 10 9 9 10 8 8 6 6 6 5 5 7 7 7 6 7 5
11 8 11 14 14 12 7 11 10 13 16 20 23 28 34 34 33 33 31 30 28 25 24 23 21 19 17 16 15 13 11 11 10 10 12 11 9 9 7 3 7 5 5 7 6 6 7 6 5
14 14 13 17 14 10 10 8 12 16 18 19 23 27 33 34 34 31 30 28 26 24 25 23 21 20 18 15 15 13 13 11 9 9 8 11 9 9 7 8 5 6 5 5 7 7 7 6 5
14 14 18 14 19 11 16 7 14 16 16 18 23 28 33 32 32 31 30 29 27 25 24 24 23 21 20 18 15 14 13 12 10 10 9 9 10 7 6 5 8 9 6 7 8 8 6 6 5
15 18 14 17 13 18 16 8 12 16 16 18 22 25 31 34 34 32 30 29 27 26 24 23 23 21 22 19 19 14 14 12 11 10 9 9 8 6 7 6 8 9 7 7 8 8 7 7 7
10 13 19 13 6 14 16 15 13 15 16 19 22 26 30 33 34 32 31 30 28 27 25 25 24 23 25 23 21 18 16 13 11 10 11 8 7 6 6 5 6 7 8 7 7 6 5 7 7
14 10 14 8 5 11 16 16 14 15 17 20 22 26 29 30 34 34 33 32 31 30 28 27 26 25 29 24 21 18 16 13 11 11 12 10 8 8 7 7 6 8 7 8 9 8 6 6 8
19 19 14 13 4 14 15 18 17 16 16 18 21 24 27 31 35 35 34 35 34 33 31 30 30 29 31 24 23 20 16 14 13 12 12 12 11 8 8 7 8 8 8 5 6 7 8 6 7
19 18 15 15 11 14 19 14 22 18 19 18 23 27 28 31 33 35 37 36 37 35 31 31 31 34 34 33 25 26 22 18 16 14 12 12 12 11 9 7 6 6 7 9 5 6 8 9 7
16 14 16 17 16 15 14 13 13 23 19 19 23 27 28 31 35 37 39 37 36 35 35 33 32 35 35 37 29 27 25 20 16 16 15 13 12 12 11 9 7 6 5 7 8 6 9 8 7
9 14 14 15 16 18 23 18 19 18 20 21 24 27 28 31 33 35 36 36 36 35 35 34 35 40 39 39 38 33 28 24 20 20 17 15 13 13 13 11 9 8 6 6 7 6 7 9 9
16 16 10 12 15 22 22 21 19 16 18 20 20 27 29 31 33 34 37 38 38 39 38 37 37 41 42 39 39 39 35 31 24 21 20 17 15 14 14 15 12 10 9 8 8 7 7 6 8
23 19 13 21 14 19 24 27 23 25 20 19 20 25 26 28 32 35 38 39 39 40 40 40 39 42 43 43 41 40 37 30 28 24 19 18 17 15 15 15 15 13 12 11 10 8 7 8 8
21 23 24 23 17 13 18 22 21 19 26 24 18 19 23 26 31 36 37 40 40 41 45 45 43 45 44 42 42 41 39 37 28 27 24 22 19 16 16 17 17 16 16 16 13 10 10 10 10
21 16 21 17 23 24 15 20 19 20 21 24 25 25 21 26 28 31 36 39 40 40 41 41 41 44 47 43 42 40 41 40 38 31 31 25 21 21 19 17 18 18 17 18 17 13 12 11 10
17 21 19 19 20 19 19 15 14 21 25 21 23 32 30 24 27 30 35 38 40 38 39 42 40 40 43 47 45 42 39 41 41 37 36 32 28 26 22 20 19 19 18 19 21 18 15 14 13
13 15 29 15 26 22 18 11 9 9 17 26 24 26 30 30 27 28 30 31 35 39 39 41 42 41 40 44 49 50 47 44 37 41 39 35 31 28 27 24 22 22 21 19 23 23 18 17 16

GFSSGP_850_spd_057.txt.gz
Wind_Speed
13 12 5 7 2 7 5 2 7 9 12 12 12 11 16 20 6 11 30 24 23 22 19 20 19 16 14 13 11 10 9 10 11 10 6 6 7 7 8 9 10 12 10 12 12 12 13 10 9
12 14 8 3 4 8 3 5 7 6 16 18 11 14 12 17 13 32 32 24 24 21 19 17 18 15 14 12 11 10 10 11 10 8 7 8 8 7 7 8 9 12 11 12 14 12 12 12 11
10 10 3 3 6 4 1 7 9 12 20 15 12 13 10 11 26 32 27 29 25 21 19 18 18 16 14 13 11 11 10 10 10 9 9 9 9 8 7 7 8 9 12 13 15 14 13 13 12
11 6 4 4 10 4 5 6 11 14 18 11 13 14 12 13 27 27 31 28 24 21 19 20 18 16 15 13 13 12 11 11 10 10 10 10 9 8 8 8 9 9 12 13 13 14 14 13 14
5 5 4 6 7 3 9 7 3 12 13 13 12 10 16 16 22 29 29 26 23 22 18 20 18 17 15 13 12 12 12 13 12 11 11 10 9 9 9 10 8 10 11 12 12 13 14 13 13
4 9 8 5 4 6 11 6 5 9 11 6 22 18 11 16 27 30 28 25 23 19 18 18 17 16 15 14 13 13 13 14 14 14 12 11 11 10 10 10 10 13 13 14 14 14 12 12 13
14 5 11 1 2 7 10 9 4 14 12 8 13 11 14 21 30 30 27 24 22 20 18 16 15 17 15 14 13 13 15 15 15 14 12 12 11 11 11 12 13 15 14 14 13 13 13 14 15
13 5 11 5 4 15 18 15 8 11 7 9 14 6 15 29 32 30 27 25 22 22 18 17 14 12 14 13 13 14 16 15 15 13 13 13 15 15 15 13 14 14 14 13 14 13 14 15 16
10 6 2 4 4 8 15 7 7 3 9 9 9 11 25 37 34 31 28 26 23 20 19 17 15 13 15 10 14 15 15 14 14 15 17 18 10 11 11 11 15 15 13 12 13 15 14 16 20
9 8 5 12 9 8 16 18 17 11 12 11 11 21 32 39 36 33 31 29 25 22 20 18 17 15 14 12 14 11 11 11 11 11 9 12 8 11 9 14 15 15 14 13 15 15 13 12 10
13 12 12 8 7 13 5 6 15 12 12 16 17 30 36 39 36 34 31 28 26 23 21 19 17 16 15 15 13 11 14 11 8 8 6 11 7 8 8 5 9 9 11 10 10 6 7 11 9
15 12 5 4 11 13 7 13 10 11 2 15 22 29 37 38 36 34 31 28 26 23 21 20 18 17 15 11 15 13 10 11 8 8 8 9 8 3 5 13 4 9 5 6 6 9 12 3 14
16 11 4 10 11 13 13 4 3 22 13 20 27 29 36 35 33 31 28 27 25 24 23 20 19 18 12 17 13 12 10 10 10 8 9 5 10 7 4 4 8 8 8 5 7 4 7 4 5
7 17 6 9 14 12 14 10 13 13 18 23 28 29 34 34 33 31 29 28 26 24 23 21 19 18 16 15 12 13 12 10 9 9 8 8 6 8 8 2 5 9 4 7 7 6 4 4 5
18 10 15 21 13 12 11 15 13 14 22 24 27 28 33 33 32 31 30 28 26 24 23 22 20 18 17 12 14 14 16 10 11 9 10 8 7 5 5 5 6 5 2 9 4 6 6 5 5
16 16 15 18 14 17 14 9 17 21 24 25 26 27 32 32 31 30 29 28 25 24 24 21 19 19 17 15 15 11 13 11 10 8 8 7 6 8 2 6 5 5 5 4 9 5 3 4 6
15 14 20 12 22 14 14 3 17 24 23 24 25 28 32 33 31 30 30 28 27 25 24 23 21 19 19 16 14 12 13 12 10 10 11 8 6 7 7 1 6 11 3 8 5 6 5 4 6
17 18 17 15 22 20 15 13 22 24 23 22 24 27 32 34 33 32 31 29 27 25 24 24 22 20 19 16 15 14 12 11 11 11 8 7 5 6 7 8 6 8 7 7 7 5 4 7 4
20 14 19 18 15 15 15 13 30 19 20 23 24 27 31 34 34 31 32 30 29 27 25 25 24 23 21 18 18 16 14 13 11 10 8 8 7 6 9 5 7 8 3 10 7 7 7 5 3
19 14 16 18 15 12 9 16 11 20 18 23 25 27 30 32 34 33 33 32 31 30 28 28 27 25 25 20 19 16 15 12 11 10 9 9 9 8 6 7 6 8 4 5 7 7 8 4 5
18 18 16 14 14 15 10 12 17 17 22 22 23 25 29 34 36 36 35 35 33 32 31 31 31 29 27 21 20 17 16 13 13 13 10 10 10 9 9 7 9 9 9 6 8 7 6 4 6
18 17 18 17 16 12 19 12 17 14 20 20 24 27 29 32 34 36 35 37 36 35 32 31 32 32 29 29 22 22 19 18 15 14 11 12 12 10 8 8 7 8 6 6 6 6 8 5 6
17 16 16 17 18 16 19 18 17 21 16 23 24 28 29 32 36 38 39 38 37 35 34 32 33 34 30 33 26 25 22 18 15 14 15 13 13 12 10 9 9 7 8 8 7 8 10 8 5
16 17 15 14 15 18 24 18 21 15 16 24 27 31 30 31 34 36 37 36 36 36 34 34 36 36 36 34 34 29 26 22 18 17 15 14 12 12 13 11 11 9 7 7 7 6 11 9 9
17 16 13 14 14 19 24 24 18 23 27 14 23 33 34 32 34 35 38 40 39 39 39 37 38 39 40 36 36 35 31 29 21 19 18 16 15 14 16 15 12 8 7 7 9 9 9 9 8
24 22 15 22 15 20 24 26 23 25 19 14 19 38 35 33 34 36 39 40 42 41 42 42 41 41 41 41 40 40 38 27 26 24 19 19 16 15 14 14 14 12 11 9 9 7 6 8 9
22 24 25 25 24 17 19 26 24 26 26 26 32 24 36 37 34 35 37 39 41 42 45 47 44 45 45 41 42 43 41 37 28 27 26 20 20 16 17 14 13 15 13 12 12 9 9 8 9
21 18 21 18 24 27 20 22 19 27 24 26 20 18 22 27 34 33 35 37 39 41 42 43 44 45 44 43 44 44 43 41 36 31 28 25 21 23 14 18 17 16 17 16 16 12 13 12 11
16 20 18 18 23 21 19 17 15 21 25 24 24 28 24 27 25 28 33 36 38 37 38 41 43 43 42 43 44 43 41 39 41 36 36 31 27 22 25 20 18 18 18 18 19 17 13 14 14
24 22 26 18 22 21 21 16 14 13 21 24 24 29 36 31 27 30 30 33 36 38 38 40 41 41 43 43 45 46 43 39 38 44 38 33 33 29 27 24 22 19 19 19 20 19 17 17 15

GFSSGP_850_spd_060.txt.gz
Wind_Speed
11 12 5 6 4 6 7 2 12 9 10 16 19 19 12 11 4 7 27 22 21 19 20 19 17 14 12 12 11 9 10 10 9 8 8 9 10 11 12 14 13 13 12 13 12 13 11 11 13
11 6 7 4 3 6 4 5 5 9 18 24 24 23 16 17 20 31 28 26 23 19 19 20 17 14 13 10 9 8 9 10 10 8 9 8 9 10 11 12 13 12 13 13 13 14 12 12 12
9 9 2 3 4 2 4 4 5 16 19 28 16 13 9 18 35 32 31 29 24 21 18 18 15 14 13 11 11 10 10 10 10 10 9 10 10 10 10 11 12 13 14 14 14 14 13 12 14
10 5 5 3 11 3 8 1 13 16 19 18 21 15 25 29 29 31 31 28 23 22 18 18 16 15 14 13 12 12 11 11 11 11 10 10 11 10 11 11 11 12 13 14 14 13 14 15 17
8 5 4 7 10 7 8 11 12 9 15 21 23 22 28 23 30 31 30 27 26 22 18 19 17 15 14 14 13 12 12 12 12 12 11 11 11 11 11 9 11 13 13 14 14 14 14 16 18
6 5 6 8 4 8 9 8 21 5 19 17 26 27 14 26 32 30 28 28 25 22 20 20 18 15 14 13 13 13 13 13 13 13 13 12 12 11 10 9 13 14 15 16 16 15 15 16 18
11 6 9 9 5 6 8 9 13 16 22 18 27 20 19 29 32 28 28 32 23 24 19 17 17 15 14 14 14 14 15 15 15 14 13 13 13 12 11 14 16 16 15 15 15 16 17 18 19
6 3 6 5 6 3 7 7 2 6 10 24 24 11 23 34 31 28 30 26 28 23 18 16 14 14 14 14 15 16 16 16 15 15 16 18 17 16 16 14 15 15 16 16 16 17 19 21 24
4 4 4 5 1 9 18 13 15 8 10 16 14 21 32 37 32 30 29 30 26 22 20 17 16 17 11 14 16 16 16 16 18 17 18 16 13 11 13 13 14 14 15 16 16 18 20 24 23
10 3 6 10 4 13 22 17 19 15 15 13 15 23 35 38 35 33 30 32 27 22 22 19 18 15 12 13 16 16 16 18 13 17 13 15 14 7 13 15 15 16 16 15 13 12 11 15 14
16 15 16 13 19 7 8 7 6 3 12 21 26 33 39 39 33 33 32 28 23 22 24 24 21 15 19 8 14 12 11 11 10 4 12 9 11 7 7 10 16 16 16 12 8 8 8 4 4
18 13 4 3 3 10 10 10 8 14 10 17 29 33 40 38 34 34 30 33 28 23 25 24 19 17 20 9 15 12 10 17 5 6 10 12 9 4 3 9 8 12 12 7 2 11 3 10 13
17 16 10 7 5 7 9 23 15 23 12 8 29 34 39 37 34 31 29 27 27 23 25 23 20 16 16 18 15 10 12 16 13 7 9 8 5 3 1 3 13 9 9 5 11 10 7 7 6
18 14 13 7 16 12 10 16 12 4 21 26 30 34 40 38 36 31 31 28 26 25 23 23 20 16 16 18 8 15 8 15 4 1 6 4 2 7 7 2 1 14 12 10 10 4 7 10 8
18 17 11 11 9 10 18 5 7 26 28 29 29 34 36 36 33 31 31 30 26 26 21 24 18 20 15 18 12 12 14 9 6 10 8 10 2 2 4 5 5 3 8 7 9 6 5 7 7
12 17 15 15 16 15 18 5 17 31 23 30 30 34 32 31 33 30 30 29 27 25 25 22 19 18 18 18 16 16 18 8 11 6 10 10 7 5 3 5 6 10 6 3 9 6 5 8 6
14 14 19 15 21 13 14 3 8 7 30 29 29 33 35 33 32 31 28 29 29 26 27 22 22 20 19 15 19 17 11 13 11 9 4 4 5 9 2 7 9 8 5 7 6 7 6 6 6
16 17 16 17 17 14 15 11 8 16 16 30 27 31 34 34 33 33 30 28 30 27 28 21 22 22 20 17 16 13 11 11 9 11 11 7 4 8 7 6 7 6 7 7 8 6 9 5 6
20 19 17 17 17 18 17 14 12 22 18 19 30 30 33 37 31 33 31 31 30 30 28 26 24 25 24 20 19 17 15 13 13 16 10 6 3 4 8 8 9 7 9 9 7 5 7 6 9
19 20 19 12 15 18 17 12 17 9 14 27 29 31 34 36 36 35 34 33 31 32 30 31 28 26 25 19 20 17 12 13 17 14 8 5 5 3 6 6 7 3 7 9 4 10 9 5 6
18 17 16 17 9 19 13 15 10 6 13 28 25 30 34 38 39 39 37 36 35 35 33 34 32 28 26 23 23 19 18 15 10 18 13 8 9 5 9 6 9 10 6 5 9 11 3 3 3
18 15 18 19 17 12 18 10 20 23 21 25 13 33 35 38 39 39 38 37 38 37 36 33 36 30 30 27 24 22 19 16 18 17 11 9 10 7 6 5 10 10 10 8 4 7 7 8 6
17 16 14 16 18 19 21 12 12 29 21 8 27 24 35 38 41 42 43 41 39 38 39 35 35 35 31 33 26 26 22 21 17 15 16 18 12 11 10 8 7 9 8 6 9 8 8 5 4
16 15 17 17 14 16 21 18 14 13 13 17 28 30 35 39 41 43 43 42 39 38 39 37 37 39 37 35 31 29 29 22 16 16 18 18 11 13 14 12 8 7 10 10 9 8 11 11 9
15 14 12 13 13 17 18 19 15 14 26 30 26 38 39 40 40 42 43 43 43 42 42 42 41 39 40 38 37 34 31 27 24 19 18 15 18 12 14 16 12 9 8 10 8 7 11 14 13
21 18 13 16 14 17 20 20 19 23 17 50 49 46 27 45 39 41 46 46 48 46 46 45 45 42 41 42 40 39 35 32 29 19 24 17 16 21 17 18 12 10 10 9 9 7 10 8 12
20 19 22 23 22 16 17 18 23 21 22 18 20 20 26 16 9 39 43 46 46 47 48 48 48 45 42 44 43 43 41 36 34 28 23 24 22 14 17 17 13 13 13 10 10 7 7 11 11
20 19 18 15 22 24 18 21 13 20 18 17 19 21 21 24 37 41 41 44 45 48 46 46 45 47 45 41 45 44 44 42 37 33 28 25 25 21 15 18 17 15 16 15 14 9 9 11 9
13 15 20 19 17 18 16 16 18 14 22 18 20 30 31 23 29 35 24 40 44 44 45 46 46 43 46 44 43 46 45 44 41 37 35 30 28 26 28 18 19 19 17 19 18 15 16 16 12
17 21 20 14 18 16 15 17 21 10 9 21 23 25 36 41 42 33 36 38 43 44 45 46 46 46 46 46 43 44 45 44 44 44 40 37 34 30 29 30 21 21 21 20 22 20 21 15 18

GFSSGP_850_spd_063.txt.gz
Wind_Speed
9 11 8 3 1 2 2 2 3 9 8 14 20 14 6 7 2 5 30 27 28 27 22 19 18 15 14 14 13 12 12 11 11 11 12 12 14 14 16 15 15 15 15 15 14 13 14 16 16
14 9 1 2 1 2 2 4 9 12 23 31 23 20 11 5 12 33 32 26 24 25 22 20 17 15 15 13 12 12 12 12 10 10 11 12 13 13 14 15 15 16 14 15 15 13 14 17 17
7 1 3 2 4 2 1 5 19 26 25 18 8 13 6 10 30 30 32 27 21 26 23 21 18 15 14 13 12 12 12 11 11 11 11 12 13 13 13 15 15 16 15 15 14 15 15 16 17
9 4 5 2 8 7 5 9 21 22 23 29 20 10 15 25 25 40 36 26 28 23 23 19 17 16 14 14 13 13 13 13 12 12 12 12 13 14 13 14 14 15 15 15 15 15 17 18 20
7 3 3 4 6 8 10 16 8 13 10 22 31 17 24 19 37 40 32 27 24 20 21 20 18 16 15 15 15 14 14 14 13 13 12 12 14 13 12 13 15 15 15 16 15 17 19 21 22
5 3 3 4 8 3 8 20 10 22 25 18 28 22 18 31 38 38 35 30 20 23 23 21 19 18 17 16 16 15 15 15 14 13 13 14 13 11 12 15 15 17 18 17 17 17 20 22 22
5 0 4 10 4 3 5 14 11 9 21 18 25 14 23 31 33 34 37 30 23 21 23 23 20 18 17 17 16 16 17 17 16 15 15 16 14 13 15 17 17 17 17 18 20 20 21 21 21
7 2 4 5 2 1 9 6 7 9 13 19 28 9 21 34 33 36 33 23 19 26 22 21 19 18 17 18 17 18 19 19 19 20 20 19 18 16 16 16 17 17 19 19 20 21 22 22 19
17 2 4 3 3 3 11 6 10 12 13 21 14 30 44 39 30 37 35 28 23 21 21 20 20 19 18 18 19 19 19 21 23 21 20 20 20 16 16 15 16 17 18 19 22 24 25 23 20
6 3 4 4 2 4 18 18 17 8 14 12 20 34 41 37 36 36 40 31 24 22 19 18 19 16 16 20 20 20 23 23 20 18 17 17 16 15 15 16 16 16 18 19 22 23 19 19 17
13 8 7 12 18 7 8 5 6 4 7 20 37 39 43 38 34 38 37 27 25 23 24 19 17 19 18 19 22 22 18 20 13 13 17 17 13 10 15 17 17 17 15 15 12 14 11 22 15
17 21 14 10 17 15 18 6 5 2 5 10 42 49 45 35 37 41 34 29 27 32 32 21 19 19 16 20 17 14 17 14 12 12 12 13 11 5 10 12 14 13 10 8 12 12 19 14 14
18 20 20 11 9 14 21 14 6 15 8 4 31 40 40 34 39 37 32 27 29 32 32 25 23 19 16 15 14 13 19 18 14 9 10 8 9 10 9 9 8 11 9 10 8 10 12 11 12
22 18 16 19 17 21 12 8 9 4 15 14 29 37 35 34 38 35 34 31 30 34 32 28 26 24 19 16 16 12 14 11 17 5 9 10 6 8 10 8 8 11 13 11 13 8 9 11 9
18 11 12 19 22 7 11 8 3 20 19 19 28 34 32 36 33 32 37 34 31 37 31 26 27 25 23 18 15 12 14 18 13 7 5 8 6 6 4 9 13 11 8 7 9 4 9 11 11
10 7 5 6 17 18 20 11 13 22 26 17 27 35 36 36 35 28 36 37 32 33 29 26 25 23 22 23 19 17 19 17 11 11 6 6 10 9 8 6 8 11 11 8 11 10 9 9 8
6 5 8 14 21 12 12 11 21 31 24 23 31 35 37 38 35 34 38 33 35 29 28 23 21 27 23 23 19 19 21 15 10 8 6 10 6 9 10 15 15 14 9 12 10 8 8 13 6
9 6 9 11 11 16 16 16 19 30 17 5 32 32 38 36 34 33 40 37 33 31 27 21 21 19 26 24 21 20 16 14 15 10 5 2 8 8 11 13 13 8 13 11 12 7 6 6 10
16 15 13 12 9 15 13 24 22 26 21 17 31 35 32 30 32 35 38 38 35 31 30 26 26 23 28 24 25 26 18 14 13 12 6 4 8 8 7 9 12 11 11 11 10 10 7 11 10
18 14 14 13 11 11 17 17 22 21 22 24 17 37 42 38 33 40 36 39 39 35 32 29 30 27 25 25 28 23 18 17 13 14 9 8 7 8 10 11 14 5 11 13 11 10 10 10 7
13 9 11 11 10 6 16 3 12 9 19 26 20 19 26 44 35 42 38 37 41 39 36 32 33 30 25 24 28 22 16 17 15 17 12 7 7 7 11 11 12 11 9 12 10 11 10 9 7
7 10 12 11 7 2 7 5 9 9 8 10 16 12 14 43 39 46 41 40 42 42 38 33 35 31 28 25 31 26 23 21 20 16 13 11 9 8 11 9 10 10 8 7 8 18 10 3 6
9 10 8 9 7 5 11 2 6 12 6 10 24 35 30 25 45 46 46 44 39 41 41 36 35 35 31 28 33 30 25 19 20 15 15 13 10 7 9 9 11 11 10 10 9 14 10 10 8
6 8 9 7 5 6 8 4 1 9 12 9 27 42 28 21 44 45 48 43 42 41 42 39 36 41 36 32 34 33 30 26 22 19 20 18 15 12 8 8 6 9 13 11 12 11 12 12 12
6 2 3 4 5 6 7 5 8 12 17 20 23 35 37 24 40 44 46 43 42 43 46 44 41 40 41 37 36 36 34 31 23 23 21 19 22 15 11 15 11 8 9 8 9 11 13 13 11
7 8 5 6 6 5 8 5 7 16 32 39 29 26 24 23 19 40 48 48 47 47 49 49 47 42 42 42 41 37 37 35 30 20 20 18 14 16 13 9 10 9 9 10 8 10 12 14 15
8 5 9 7 9 4 6 8 13 11 19 30 33 29 28 27 29 21 48 51 51 48 50 51 49 46 42 43 42 42 37 38 36 30 25 21 18 15 19 16 13 12 9 12 10 8 11 13 15
9 4 3 3 7 7 6 8 6 6 13 25 22 26 21 21 28 13 11 38 49 53 49 50 50 47 43 43 44 46 43 39 39 35 30 29 26 24 15 23 21 16 11 14 12 10 12 11 10
7 4 4 1 2 6 6 7 9 9 6 15 24 35 44 41 44 22 31 27 38 42 45 50 52 49 47 43 43 46 48 44 39 40 36 31 32 29 22 18 23 18 14 14 14 13 13 10 9
13 9 4 4 8 3 4 8 13 10 14 30 25 39 49 53 47 55 56 49 40 36 44 51 53 53 51 47 44 44 47 48 45 42 41 38 34 31 28 24 21 21 18 16 19 17 16 18 15

GFSSGP_850_spd_066.txt.gz
Wind_Speed
10 12 7 1 1 2 2 2 3 3 4 9 24 7 8 6 1 3 30 34 30 28 24 20 18 17 16 15 15 16 15 13 14 15 15 15 14 15 13 14 13 13 12 12 12 14 15 17 17
14 11 4 2 0 2 1 3 7 11 11 26 15 19 6 5 10 28 33 29 31 28 24 21 19 17 16 15 15 15 14 13 14 14 14 14 14 14 14 16 13 14 15 14 14 16 16 17 18
10 5 2 2 2 2 2 4 9 4 22 17 7 13 6 8 27 33 34 31 31 27 23 21 18 18 16 15 14 14 14 13 14 14 14 13 13 13 15 16 15 15 15 14 15 16 18 19 19
5 1 4 1 4 5 3 9 14 10 12 10 18 9 9 15 28 31 32 30 29 27 24 21 19 17 15 15 15 14 14 13 13 14 14 12 13 14 13 14 15 14 15 15 15 17 19 20 18
9 3 2 3 2 4 5 5 16 8 7 11 6 9 19 14 26 33 31 30 30 27 24 22 18 17 16 16 15 15 14 15 14 13 13 14 12 12 14 14 14 15 15 16 17 20 21 20 18
2 3 2 3 4 6 4 10 9 17 18 18 19 18 11 29 34 31 26 30 27 26 23 21 19 18 17 17 16 16 16 15 15 14 14 13 12 12 15 15 16 16 16 17 19 22 23 22 18
2 2 3 5 5 1 6 7 5 12 17 14 20 14 26 36 35 29 26 24 23 22 22 21 20 19 18 17 18 17 18 17 16 16 15 13 14 16 17 18 17 17 17 18 20 23 23 22 18
5 1 3 3 1 2 11 9 4 18 10 19 27 10 26 38 36 31 28 26 24 21 21 21 20 19 19 19 19 20 19 20 20 19 18 17 17 18 18 17 17 17 18 19 21 22 21 19 18
8 2 3 2 1 4 12 5 8 6 16 13 3 23 41 37 36 37 31 27 27 25 21 20 20 20 19 21 22 22 22 24 23 23 20 20 18 18 18 19 18 19 19 19 21 21 19 17 15
9 3 4 4 3 4 11 12 11 9 15 13 8 31 32 35 42 40 33 29 28 25 22 20 20 20 21 23 23 23 25 23 21 22 21 19 18 18 19 20 20 21 22 22 21 20 16 16 11
10 7 5 5 10 7 5 8 2 11 9 9 15 34 33 43 45 38 32 28 27 25 22 20 19 19 22 24 25 25 24 21 19 17 18 18 17 16 18 21 21 20 21 19 17 15 13 12 9
7 18 15 4 14 11 10 9 5 4 4 12 29 43 40 36 43 37 32 28 30 27 25 21 19 21 22 24 25 24 19 19 18 15 15 14 13 13 15 19 21 17 15 14 13 17 16 12 8
12 14 16 14 23 18 14 5 5 12 10 13 29 29 36 33 40 33 29 27 29 28 26 21 24 22 25 23 21 20 18 18 17 13 12 12 9 14 12 14 14 12 14 15 15 14 15 10 12
10 14 21 22 21 18 15 8 4 3 16 14 29 32 31 28 39 35 32 34 31 28 27 25 25 20 23 18 19 20 18 16 13 11 8 9 11 11 13 11 13 14 13 13 12 10 13 11 8
17 5 8 20 20 9 20 7 3 10 14 24 32 32 31 24 40 38 33 34 34 31 30 26 23 21 20 18 17 18 15 12 13 11 8 9 15 12 11 12 20 19 15 12 6 10 10 12 12
6 2 0 8 14 12 7 5 16 18 18 15 26 29 30 26 40 36 33 34 33 36 32 26 24 24 19 17 16 14 17 13 15 12 7 6 8 8 12 14 13 13 12 12 7 9 11 13 12
6 4 5 3 22 10 4 5 11 19 17 11 23 32 29 30 30 30 37 34 36 34 32 30 27 25 21 18 17 17 16 17 16 11 6 9 7 8 10 11 13 13 11 11 11 8 8 9 10
4 3 6 5 7 8 8 7 16 20 17 18 18 30 31 33 35 22 39 38 36 36 33 28 25 25 27 23 22 18 16 15 14 10 7 8 10 9 11 18 14 12 13 14 13 10 10 8 12
3 5 11 15 7 6 17 10 19 21 20 23 24 26 29 36 40 27 40 40 37 37 34 29 24 25 31 29 24 21 18 15 18 12 8 8 12 12 13 15 13 17 11 13 12 10 7 10 13
7 8 15 13 7 8 14 13 16 21 24 20 25 31 30 31 29 31 43 45 41 38 34 29 23 21 28 28 25 23 22 19 15 14 10 8 10 13 13 14 15 11 13 13 11 13 12 13 10
9 8 15 11 6 11 8 9 16 13 7 7 15 21 24 33 32 38 45 44 42 39 35 31 27 23 29 28 29 25 22 18 17 16 13 11 11 13 12 13 14 13 14 14 13 14 12 13 11
7 8 11 5 5 2 6 3 7 6 8 12 19 29 28 30 34 42 46 47 45 41 37 33 30 25 27 27 31 32 26 24 20 17 15 12 13 13 14 15 16 14 11 15 15 14 13 11 11
11 13 6 2 2 5 4 6 5 16 9 16 24 44 45 36 34 41 48 50 48 44 41 36 32 28 28 26 32 33 27 24 19 19 17 12 13 12 15 12 14 13 13 12 15 16 13 11 10
9 2 6 4 3 3 4 5 4 10 25 20 25 38 48 44 46 45 46 50 49 47 43 38 35 31 30 30 29 34 29 26 22 22 19 16 13 13 14 14 13 11 13 13 12 17 15 12 11
4 7 3 4 4 5 4 4 8 20 15 25 34 43 44 30 43 42 43 48 49 49 47 42 39 36 32 33 32 36 32 26 23 24 22 21 18 16 14 16 13 12 14 13 13 15 16 14 13
1 8 5 5 2 3 5 3 5 9 24 36 48 50 38 26 37 44 51 52 53 50 49 46 43 39 35 35 35 38 36 32 27 25 26 23 20 17 13 13 14 12 12 13 14 13 14 17 16
5 1 6 5 1 4 3 8 7 1 4 16 26 31 37 37 38 50 54 52 57 54 53 50 46 42 39 35 37 37 39 37 35 27 24 26 22 18 19 16 15 14 9 10 11 13 13 16 18
7 4 3 3 3 3 4 4 5 12 16 8 12 20 33 42 36 47 53 52 57 56 53 50 48 45 42 39 36 39 40 40 39 34 27 28 23 20 17 19 18 18 14 12 12 14 14 16 16
7 6 6 2 5 5 2 5 1 7 9 10 6 21 29 30 36 49 54 53 48 52 53 51 50 48 44 43 40 39 42 42 43 40 36 29 28 24 23 20 19 23 20 15 15 15 15 16 16
4 5 6 4 7 1 4 4 6 4 4 11 18 15 36 38 38 41 46 52 58 51 50 51 51 50 46 43 43 41 41 44 44 45 43 36 32 30 29 27 22 23 24 19 16 16 17 17 17

GFSSGP_850_spd_069.txt.gz
Wind_Speed
12 12 8 2 2 2 3 3 4 3 3 7 30 7 5 7 1 3 27 35 31 28 24 21 19 18 18 17 15 15 13 12 14 13 13 12 12 11 10 9 9 11 11 11 13 13 14 14 15
14 12 5 1 1 2 1 1 7 4 5 26 17 21 4 3 5 22 38 33 30 27 24 20 18 17 16 15 15 14 12 12 12 12 12 11 12 12 13 12 11 13 12 13 13 15 15 15 16
13 5 1 2 3 4 3 5 4 5 8 13 6 12 5 5 13 40 36 34 30 26 22 19 18 17 16 15 15 13 12 12 12 11 11 11 11 11 13 11 11 12 12 13 14 15 16 16 15
7 2 3 1 8 5 4 6 9 5 3 7 14 8 6 4 35 25 36 33 29 25 21 19 17 16 15 14 13 13 13 12 12 12 11 11 11 11 12 11 12 12 13 13 16 17 17 15 15
7 1 2 3 5 2 5 12 8 3 3 10 1 6 15 9 20 36 34 32 28 24 21 18 17 15 15 15 14 13 13 12 12 12 11 11 11 11 12 11 12 13 13 13 17 18 17 17 16
2 1 2 3 5 2 4 6 11 6 6 11 16 16 7 13 30 32 33 29 25 23 21 18 16 14 15 15 15 14 14 13 12 11 11 11 11 12 13 12 13 13 14 16 19 19 16 16 15
1 1 3 3 4 2 3 2 8 10 9 8 15 5 20 25 31 30 29 27 25 23 21 19 18 16 15 15 15 15 14 13 13 13 11 12 13 15 15 15 14 15 16 19 20 19 18 16 17
3 2 3 2 1 2 9 7 12 10 8 15 18 6 17 35 31 29 29 26 24 21 19 19 17 16 16 16 16 16 15 14 14 12 12 13 16 17 16 15 15 16 18 20 21 19 17 14 14
5 2 3 1 2 2 12 5 4 7 17 11 7 23 36 36 33 34 31 28 24 21 19 18 18 17 17 18 18 17 17 18 17 16 15 15 16 16 16 17 16 16 17 19 19 17 14 13 11
5 2 4 3 4 7 14 10 11 6 8 4 24 31 34 35 36 35 31 30 28 24 21 19 18 18 19 20 19 20 20 21 19 18 17 16 15 17 17 17 17 18 18 17 16 14 12 11 7
6 4 2 2 7 14 15 12 8 17 5 14 30 33 36 35 35 32 30 27 27 24 21 19 19 20 21 21 22 23 22 21 19 18 17 15 15 17 18 19 20 20 19 16 13 11 9 5 2
3 9 16 6 8 9 14 11 9 13 7 22 25 34 38 38 37 33 29 27 27 24 21 20 19 21 22 22 24 21 19 18 17 18 16 14 14 17 18 19 20 16 15 14 13 11 9 4 2
6 12 12 18 13 10 16 7 6 10 15 15 28 33 36 35 38 33 26 28 27 26 24 21 20 23 23 23 24 20 16 16 16 14 14 11 11 15 16 16 15 12 13 16 15 15 11 6 4
5 10 16 22 18 14 11 7 7 9 16 9 35 33 38 37 40 35 31 28 27 26 23 23 22 23 24 22 21 16 16 14 12 11 10 8 9 11 14 12 10 13 13 15 13 10 11 9 7
18 10 6 4 14 6 18 5 5 14 18 22 25 32 32 35 39 36 30 29 29 26 25 26 23 25 23 20 19 17 16 12 10 9 9 8 9 9 10 13 13 15 14 13 10 10 7 7 7
3 3 3 3 10 9 7 4 7 12 22 20 30 28 29 33 35 35 31 30 29 27 25 27 24 24 21 18 18 16 13 10 10 10 8 7 11 9 10 18 15 12 11 9 9 8 6 7 8
6 1 2 2 6 6 5 2 9 16 17 22 29 28 29 26 34 38 34 32 31 27 25 26 25 23 20 19 16 14 14 11 12 12 8 6 8 11 13 15 14 11 10 7 8 9 6 3 5
2 2 2 1 6 4 6 2 8 15 17 17 24 31 30 28 38 38 37 34 32 31 29 26 23 24 21 18 16 14 17 15 15 13 10 10 7 8 14 12 13 13 11 10 6 5 8 6 6
3 3 3 3 4 5 15 7 12 16 16 19 23 32 32 29 35 36 36 35 34 35 36 28 24 24 24 23 21 19 16 17 16 14 10 10 10 7 10 16 12 10 11 10 9 7 9 10 9
3 1 5 7 3 7 7 6 6 9 9 15 19 26 33 32 34 29 32 40 38 38 39 31 26 27 26 26 23 22 19 16 14 12 10 8 10 10 10 13 11 14 11 13 11 8 6 10 11
4 3 4 6 5 3 7 4 5 5 4 7 12 14 26 33 34 33 33 38 40 43 42 34 29 27 27 29 27 21 19 17 17 15 13 9 11 12 13 14 14 13 12 12 10 10 8 10 10
6 8 8 5 2 2 0 2 5 6 11 7 15 21 25 30 31 35 36 39 43 45 42 36 31 28 22 29 31 28 25 24 20 17 12 9 10 12 12 13 15 12 15 13 13 13 10 10 8
9 6 7 6 3 4 3 5 3 10 16 19 19 26 34 39 39 39 44 43 47 46 45 40 32 29 24 23 31 30 26 25 20 16 15 12 13 13 13 11 15 13 13 12 15 15 14 12 12
6 3 5 5 3 2 5 4 5 5 16 14 21 32 35 38 35 35 42 44 48 50 48 43 36 32 28 24 30 29 32 29 24 20 19 18 14 15 16 14 14 15 14 12 14 17 16 14 13
5 6 2 2 3 5 3 4 7 16 13 16 25 34 39 37 35 32 42 48 51 54 52 47 40 37 32 27 30 29 33 31 28 23 20 21 17 15 15 16 14 14 13 14 15 14 18 14 15
2 7 5 5 5 3 2 5 1 5 16 25 28 31 38 37 39 41 44 50 53 56 54 48 44 40 36 32 28 31 32 33 30 26 23 23 21 17 13 13 15 12 11 13 13 13 16 18 17
2 4 1 7 4 3 3 5 5 11 13 6 20 22 32 36 39 39 41 49 54 54 55 50 47 44 39 36 29 30 32 36 33 29 23 23 21 18 17 16 16 15 12 12 14 14 15 17 18
7 2 3 4 4 3 3 2 3 10 12 11 3 16 22 28 32 32 39 49 53 54 54 52 48 47 42 39 35 27 31 35 35 31 28 24 23 22 19 19 17 15 15 14 14 14 13 15 18
7 5 5 3 4 5 3 1 5 7 8 8 14 13 24 34 37 37 39 47 53 53 55 55 53 51 48 45 39 33 30 34 36 36 34 30 22 23 21 20 19 19 18 17 16 15 15 16 16
10 5 4 4 5 2 2 2 8 10 10 17 21 24 15 36 36 41 34 41 37 41 48 55 55 53 50 47 43 38 32 29 34 38 38 36 31 25 25 23 23 21 18 22 21 18 17 17 17

GFSSGP_850_spd_072.txt.gz
Wind_Speed
13 12 8 2 2 2 3 2 2 2 3 4 25 6 9 6 2 3 28 33 31 27 23 21 18 15 15 14 12 11 10 10 10 9 9 9 9 10 7 8 9 7 8 10 10 11 11 11 12
14 10 3 2 1 1 1 2 3 3 4 29 13 17 4 3 3 18 38 33 30 27 22 19 17 15 14 13 12 10 10 10 10 10 10 10 9 10 10 7 9 9 8 10 11 12 12 13 13
14 7 1 1 2 2 1 2 5 9 17 17 6 12 4 3 6 40 36 36 30 25 21 18 16 15 14 12 11 9 9 8 9 9 9 9 10 10 10 10 11 10 11 11 12 12 12 13 12
8 2 2 1 6 2 2 1 2 5 9 9 9 7 5 3 34 24 37 34 28 24 20 18 16 14 13 12 11 9 8 8 8 8 8 9 10 10 9 11 11 10 11 12 13 13 12 12 14
8 1 1 3 4 3 3 2 6 3 5 6 3 4 10 14 14 36 35 31 27 24 19 17 16 13 12 12 11 9 9 8 8 8 8 8 8 9 9 10 11 12 11 14 15 14 14 14 14
1 1 1 3 7 5 2 7 8 1 5 8 10 9 5 12 29 36 33 28 24 21 19 16 15 12 11 11 10 10 9 9 8 8 7 7 8 8 9 10 10 11 13 15 16 15 14 14 13
1 1 2 3 3 4 3 2 6 6 8 8 17 5 16 20 33 32 31 27 22 20 18 16 14 12 12 11 11 10 10 9 8 8 7 8 10 10 10 11 10 12 14 17 16 15 13 14 13
2 1 3 1 4 5 5 8 9 7 11 18 17 7 12 31 30 32 28 25 22 20 18 16 15 14 13 12 11 11 10 9 10 9 8 9 10 11 12 11 10 13 16 18 16 14 13 13 12
2 1 2 3 0 5 15 6 2 4 13 7 5 16 27 35 33 31 28 25 22 20 18 16 17 15 14 14 13 12 10 11 11 12 12 12 11 12 11 11 12 13 15 16 16 13 12 12 11
2 1 3 1 3 5 8 11 9 6 8 15 23 29 34 34 32 34 32 29 25 21 19 16 16 16 16 15 14 16 14 14 14 14 14 12 12 13 13 12 13 14 14 13 12 10 9 8 7
3 3 1 1 7 18 14 14 8 13 5 14 28 36 35 33 33 33 30 26 25 22 20 18 17 17 17 16 17 17 17 16 16 15 14 12 12 13 13 14 14 14 13 12 9 9 7 5 5
3 10 10 2 10 11 7 14 7 6 7 18 34 35 36 34 34 31 30 26 26 24 20 18 18 18 18 19 20 20 18 16 15 15 12 12 12 14 14 15 16 14 11 9 6 5 4 5 5
7 6 9 10 11 11 14 7 12 10 20 23 29 32 33 33 32 28 25 22 23 23 21 20 19 20 19 22 20 18 15 15 14 13 13 12 11 13 14 15 12 10 8 6 6 5 1 2 1
2 7 17 10 12 13 10 8 14 13 25 25 25 30 32 32 32 27 25 24 25 23 22 21 21 21 20 22 20 16 15 14 12 10 9 9 10 9 11 10 8 9 9 10 8 6 3 2 4
9 3 4 7 9 5 19 5 5 21 26 28 28 33 33 32 31 29 24 25 25 23 23 22 23 22 21 22 19 15 13 12 10 8 6 6 8 7 9 7 6 10 12 9 6 5 4 1 4
4 4 4 2 1 10 3 1 6 20 21 27 34 34 32 33 34 31 27 25 23 24 24 25 25 24 23 20 16 16 12 10 9 7 6 6 7 8 7 10 10 10 10 7 6 4 5 5 6
6 2 3 2 4 5 3 1 7 13 16 18 29 33 32 36 32 33 31 26 26 27 25 25 25 25 22 19 18 14 10 8 8 7 5 4 8 7 6 12 11 10 9 5 3 4 4 5 5
3 4 2 2 5 1 4 1 7 14 16 16 30 34 31 35 36 35 34 29 29 29 26 24 24 25 22 20 17 16 13 11 9 7 6 4 5 8 10 12 12 9 8 5 4 3 2 2 1
3 4 0 3 3 2 7 4 9 11 10 16 27 26 30 36 35 35 36 32 32 31 30 29 26 26 24 23 20 18 15 13 12 10 7 7 7 6 10 12 11 12 10 7 4 3 4 4 2
2 3 3 5 3 5 2 2 4 7 7 13 20 24 25 32 30 34 39 36 35 32 31 30 28 27 26 23 22 18 17 13 13 11 9 7 9 8 5 12 10 9 10 9 6 3 3 6 4
2 3 3 5 2 3 6 1 2 3 2 7 13 22 25 32 33 34 38 40 38 37 35 33 31 28 25 23 23 21 19 15 14 14 12 8 7 9 8 10 9 10 9 9 8 7 3 5 5
1 7 6 3 2 1 0 2 3 4 7 7 14 16 25 29 37 35 40 40 42 38 36 35 32 31 26 26 26 25 22 20 16 13 9 9 8 9 11 10 12 11 10 10 9 8 5 5 4
7 6 6 3 2 3 1 4 5 3 4 10 17 26 29 31 34 40 42 40 37 40 38 35 35 33 29 27 28 27 25 20 16 15 13 12 9 10 11 12 13 12 10 11 11 11 10 8 6
5 5 7 5 3 2 2 4 4 3 5 5 20 28 33 36 35 35 41 41 37 35 41 38 36 35 33 28 30 31 28 24 21 19 17 15 12 11 12 12 11 12 10 10 10 13 13 13 11
5 6 2 3 2 4 2 4 6 8 12 8 15 33 33 37 37 37 38 44 41 40 40 42 40 38 36 32 27 28 29 28 24 22 18 17 15 13 13 13 12 12 12 12 10 10 12 13 12
5 7 5 5 5 4 3 5 1 6 17 24 7 23 27 32 35 38 36 41 43 42 40 42 45 41 38 36 28 24 29 27 28 26 21 18 17 14 11 10 12 12 11 11 12 12 12 15 14
4 5 3 7 2 3 2 4 6 18 19 29 28 4 17 24 30 34 38 36 41 42 43 44 47 45 41 37 31 26 27 28 29 28 24 21 19 16 15 15 11 11 11 9 10 12 11 12 14
7 1 3 4 3 2 2 3 4 16 19 19 23 25 18 17 25 34 34 36 37 41 42 40 47 47 43 40 34 30 26 29 27 29 28 26 21 19 17 17 16 13 14 12 10 10 12 12 13
6 5 5 5 3 5 4 2 7 7 11 17 22 26 28 13 22 30 35 32 33 36 40 42 46 49 47 44 40 35 30 28 29 31 31 28 23 21 19 17 16 16 15 14 13 10 11 13 12
5 3 3 4 3 2 3 2 6 10 17 21 24 27 31 17 7 18 26 28 25 32 38 41 45 48 48 46 43 38 33 30 30 32 33 32 29 25 20 20 18 18 17 17 18 16 14 13 14

GFSSGP_850_spd_075.txt.gz
Wind_Speed
12 11 8 2 2 1 1 2 3 4 8 3 25 9 11 6 1 1 22 29 27 25 23 20 17 16 15 14 12 11 10 9 9 9 9 9 9 8 7 8 8 8 8 9 9 12 12 11 13
13 11 4 1 2 1 1 2 4 5 9 26 11 17 4 4 3 13 31 29 26 25 22 20 17 15 14 13 11 9 9 8 8 9 9 9 10 10 8 9 8 9 10 9 10 11 11 12 13
13 6 1 2 1 2 2 3 5 5 25 13 6 7 4 3 5 30 25 32 27 24 21 17 15 14 12 11 10 8 9 9 8 9 9 10 10 11 11 10 10 9 11 10 10 11 11 12 14
6 1 1 2 7 5 5 5 4 21 12 7 11 7 5 2 22 20 35 31 26 22 19 16 14 12 11 10 9 7 8 8 8 8 9 10 10 9 10 10 11 10 11 11 11 12 11 10 12
6 0 2 4 6 5 4 7 5 10 6 6 3 5 8 11 11 33 35 28 25 22 18 16 14 12 11 10 9 8 8 8 8 8 9 10 9 9 9 10 10 11 11 11 13 12 13 14 13
1 1 2 4 5 3 7 8 6 4 5 5 11 10 6 12 24 34 31 25 22 20 18 16 14 12 10 9 9 8 8 8 8 8 8 9 9 9 10 10 9 10 13 13 13 13 13 13 14
1 2 3 5 3 2 5 10 5 6 7 2 10 6 11 15 30 30 29 25 21 19 17 15 13 11 10 9 9 9 8 8 8 8 8 10 11 12 11 12 9 12 13 14 14 13 14 14 14
1 2 3 1 1 4 5 6 8 6 3 12 12 6 12 25 32 28 27 24 19 18 16 14 12 12 11 11 9 9 8 8 9 9 10 11 11 11 12 11 10 13 15 14 13 14 14 13 14
3 2 2 6 1 4 16 8 4 6 14 5 8 12 22 30 29 26 24 20 20 18 16 15 13 13 12 12 11 10 8 9 9 11 12 12 11 12 12 11 12 14 15 14 13 13 13 12 12
3 2 2 5 4 10 12 10 11 7 9 7 14 21 30 30 29 26 26 24 20 19 17 15 15 13 13 12 11 11 10 10 12 13 13 12 12 13 13 11 14 16 14 12 12 12 10 11 10
2 2 2 5 6 16 21 15 8 14 6 10 25 33 31 30 28 26 24 24 21 20 18 16 15 14 14 13 13 13 12 13 14 13 13 13 12 12 12 14 14 14 12 11 9 9 8 9 9
3 7 7 1 8 12 16 16 10 3 4 11 25 32 32 30 27 25 23 22 22 21 18 17 17 16 14 16 16 16 15 14 14 13 13 12 12 12 15 15 16 14 11 9 7 6 6 7 6
7 6 4 6 11 7 15 11 10 7 13 21 28 27 28 27 24 20 21 20 22 22 20 19 18 17 16 18 18 18 17 15 14 14 12 12 12 12 14 13 11 10 8 7 5 5 7 8 5
3 9 10 3 10 12 12 10 11 9 19 27 26 25 25 25 25 21 22 22 22 21 21 20 19 19 19 19 17 14 14 14 13 12 12 12 12 10 10 8 6 4 4 5 5 4 6 8 5
5 6 3 8 11 6 12 11 8 21 22 27 25 23 23 22 22 24 23 22 23 21 21 21 21 21 20 20 17 15 14 12 11 10 9 9 9 9 7 6 4 5 7 4 2 2 3 5 6
3 1 2 3 8 6 4 4 9 28 26 22 23 24 24 24 25 22 21 21 22 21 22 22 23 22 22 21 16 14 12 10 8 6 7 6 7 7 7 4 5 7 6 3 1 2 4 6 7
1 5 4 4 4 6 4 5 9 19 28 25 24 26 26 25 25 24 22 21 21 21 22 23 23 23 23 23 16 15 11 9 8 7 6 4 6 6 4 6 8 8 7 3 2 4 6 6 7
7 5 4 5 8 5 8 4 9 14 16 21 23 25 26 26 26 25 24 21 21 23 24 24 24 24 23 22 18 15 12 10 9 7 5 3 4 5 4 8 9 8 6 2 2 3 5 5 5
5 6 4 3 5 3 4 4 9 14 16 18 23 25 25 27 26 24 25 24 24 26 25 26 26 26 25 23 22 18 14 11 9 7 6 4 3 3 6 9 9 7 6 4 2 3 4 4 3
5 4 3 2 4 3 2 2 6 11 13 18 23 26 27 25 25 27 26 25 28 28 27 26 26 27 25 24 21 18 14 11 10 9 6 5 5 5 3 12 8 9 7 7 4 2 2 2 2
5 6 3 2 1 3 4 4 5 6 8 12 22 23 26 26 27 30 27 30 31 31 31 28 25 27 26 25 22 20 15 13 13 11 11 6 5 6 4 8 8 8 7 8 6 3 0 2 4
10 7 4 3 2 1 2 2 2 8 12 13 18 29 26 29 28 30 31 32 31 34 31 30 26 26 26 25 23 23 19 17 15 10 10 8 6 7 8 7 8 8 8 7 6 4 2 2 1
5 4 5 2 4 3 4 2 5 4 8 11 16 21 30 29 31 32 33 32 37 36 34 33 30 27 27 25 24 22 21 18 15 12 11 9 7 7 8 9 9 10 8 9 9 7 5 4 4
9 6 4 4 3 5 5 3 8 5 7 8 15 25 28 33 32 32 32 33 34 35 37 36 35 32 29 27 25 24 23 21 17 15 13 11 10 8 8 9 9 11 9 9 8 8 9 9 7
7 9 5 6 5 5 2 3 7 9 11 12 15 18 31 30 31 31 32 32 33 34 33 36 36 36 34 30 27 23 24 24 21 17 15 14 13 11 9 10 10 11 10 9 9 7 10 10 9
14 11 6 10 8 7 2 8 7 11 15 18 23 16 11 27 28 29 31 33 37 37 34 32 31 34 35 34 28 24 24 27 26 21 18 16 14 13 9 7 9 9 8 10 10 10 10 9 11
6 8 2 5 2 8 4 3 6 16 19 27 27 23 14 9 26 29 28 31 36 39 38 35 33 31 36 35 32 27 24 26 27 25 22 20 16 15 13 10 8 7 9 8 8 10 9 8 9
2 4 6 3 9 9 4 3 4 17 19 18 23 24 22 8 13 23 27 27 32 33 33 35 35 34 33 36 36 32 28 25 25 25 24 24 21 18 16 14 12 11 10 11 9 8 9 9 10
1 3 3 2 2 6 7 4 6 8 11 14 22 24 24 19 2 12 18 21 24 30 29 32 36 36 36 39 39 36 31 28 27 26 24 25 23 22 19 17 15 14 12 11 11 9 9 8 9
7 3 1 7 5 2 1 5 5 8 12 15 19 22 24 24 21 12 2 10 17 22 24 28 29 32 33 35 40 41 37 31 29 26 25 25 27 25 22 20 18 17 15 16 15 14 14 12 9

GFSSGP_850_spd_078.txt.gz
Wind_Speed
12 10 7 3 5 3 3 2 3 6 11 5 18 8 10 7 5 6 24 21 24 21 19 18 17 16 15 14 13 12 11 10 10 11 10 9 10 8 9 10 10 10 10 12 15 14 13 15 16
11 9 3 3 6 4 1 1 6 5 11 21 14 15 8 7 9 22 26 25 23 21 18 16 17 15 13 13 11 11 10 10 11 11 11 10 10 9 9 9 10 11 11 11 13 12 14 16 15
10 6 5 3 0 2 2 6 5 12 23 17 9 8 5 5 14 25 25 27 23 21 18 17 16 14 13 12 11 9 9 9 9 10 11 10 11 12 11 9 10 12 12 12 13 13 15 15 16
6 5 6 5 3 3 2 5 16 24 12 5 18 9 7 6 25 19 28 25 22 19 16 16 16 13 11 10 9 8 8 8 9 9 11 11 11 10 11 11 12 12 12 13 14 12 13 13 13
5 5 4 3 5 7 7 9 20 14 11 12 9 8 10 16 15 27 26 23 20 18 15 14 14 11 10 9 8 8 9 9 10 10 11 11 11 11 11 11 12 12 13 15 15 15 16 14 12
6 3 3 9 5 7 8 10 10 11 11 11 14 13 8 14 25 26 24 21 18 17 15 12 13 11 10 8 8 9 9 9 10 10 10 11 12 11 11 11 11 13 15 15 16 16 16 14 14
7 2 6 8 6 4 7 8 4 8 9 7 9 6 13 21 25 25 23 20 17 16 14 12 10 11 10 9 9 9 9 9 10 10 11 12 13 13 13 12 13 15 16 16 16 17 16 17 16
4 3 2 4 8 5 9 6 4 5 5 6 9 7 20 28 25 23 20 19 16 15 13 13 10 10 8 7 9 9 9 9 10 11 13 12 14 15 16 12 14 17 16 16 17 17 16 17 18
3 2 7 7 7 8 12 5 3 7 8 5 6 13 29 29 26 24 21 19 16 14 12 11 10 10 10 10 9 9 9 10 11 12 16 17 11 12 13 12 17 17 16 16 15 16 15 15 14
3 1 6 5 8 15 13 13 10 4 13 8 12 20 31 29 26 25 23 20 17 15 12 11 11 10 10 9 9 10 7 11 11 11 13 12 12 13 12 16 18 17 16 15 14 14 17 13 9
2 2 6 13 17 19 17 11 11 15 11 13 20 29 33 30 27 24 21 20 17 16 13 12 11 12 11 9 9 9 9 9 10 12 12 13 11 11 11 13 11 12 14 10 10 10 9 9 9
3 1 4 7 11 15 19 17 8 8 1 11 20 32 32 30 26 23 20 18 18 16 14 13 11 12 10 10 10 10 11 10 10 10 11 12 11 11 12 12 11 11 9 9 9 6 7 7 8
10 3 1 2 12 9 15 15 11 5 5 15 26 32 31 29 25 21 19 17 16 16 15 13 13 13 11 13 12 11 11 10 10 9 10 10 11 12 11 12 10 9 9 6 8 8 7 7 6
3 4 4 2 14 11 11 15 10 8 14 23 28 29 28 27 24 21 20 18 16 16 16 14 13 12 12 12 14 13 12 11 10 10 9 12 9 11 8 8 6 6 7 6 6 7 7 6 5
6 7 7 3 12 10 10 12 5 19 20 25 27 26 25 24 22 22 20 18 17 15 16 15 15 14 14 13 12 11 10 10 9 8 10 9 8 9 8 4 5 5 6 7 6 6 6 6 5
10 9 10 9 11 8 10 11 15 23 25 24 25 25 24 24 23 20 19 18 17 16 17 16 15 15 15 13 12 10 10 8 7 7 6 7 7 6 6 3 3 4 5 6 5 5 6 7 7
10 12 7 9 6 10 8 11 17 22 23 24 24 24 24 24 22 19 18 17 17 16 16 16 16 16 16 15 11 10 10 8 6 6 6 5 4 5 4 3 4 6 4 4 5 5 5 6 7
15 9 7 10 9 11 8 12 16 19 22 23 20 20 25 25 23 20 18 16 16 16 16 16 15 17 17 16 12 9 7 7 6 6 5 6 4 4 3 5 7 7 4 3 4 5 5 4 4
8 11 10 6 11 7 8 9 11 22 21 17 21 24 27 27 25 21 18 16 16 17 17 18 17 17 19 16 13 11 8 8 7 6 6 5 4 3 5 6 6 5 4 4 4 5 4 3 2
11 12 12 7 6 5 6 6 11 17 16 22 25 24 26 28 26 23 21 18 18 19 18 19 19 21 20 16 14 11 10 8 7 6 6 6 5 4 4 8 6 7 4 4 5 5 4 4 3
13 14 12 8 6 3 6 7 9 12 11 15 17 21 26 27 29 26 24 22 20 20 21 20 21 21 23 16 16 13 10 9 8 8 6 5 4 6 4 9 8 7 7 5 4 3 3 4 2
15 7 4 9 8 8 10 6 7 11 11 7 11 17 23 25 25 27 26 25 23 22 21 20 21 20 22 21 16 14 10 8 8 7 8 6 4 6 6 8 8 8 7 7 5 4 3 6 3
8 11 9 8 9 4 11 7 7 8 11 11 12 16 17 23 26 27 28 27 25 23 21 21 22 21 20 22 18 15 14 9 7 7 9 9 7 6 6 9 9 9 7 7 7 5 4 3 3
7 10 9 8 9 10 9 12 7 6 4 5 2 19 23 24 25 27 27 28 28 25 24 22 23 25 24 22 21 20 14 14 11 10 8 7 6 5 6 7 9 10 8 8 8 8 7 7 6
13 16 11 10 8 8 11 7 10 8 7 8 5 9 22 26 27 27 28 30 28 27 25 23 23 27 26 25 23 21 20 16 15 12 10 9 9 7 9 7 8 9 10 8 8 6 8 9 7
20 19 11 13 12 12 7 8 8 11 11 13 12 11 5 26 26 26 27 28 28 26 26 25 24 25 27 26 26 24 21 17 16 14 12 12 10 9 9 7 8 8 11 10 9 8 6 9 8
20 16 7 7 9 9 13 14 15 10 12 16 17 15 13 9 24 24 24 26 27 28 27 26 24 22 24 27 27 27 25 21 16 16 14 13 12 10 11 9 9 10 10 9 9 7 9 10 8
7 13 10 9 14 13 10 17 10 8 12 14 19 23 19 1 5 20 21 22 24 25 26 25 25 25 24 24 26 26 27 24 21 19 18 15 14 13 12 13 12 10 10 11 9 8 8 8 8
7 11 10 9 5 14 9 7 8 6 7 11 15 17 20 23 10 1 12 19 20 21 23 24 24 24 23 25 25 26 26 26 24 21 19 20 17 16 16 16 15 13 12 12 13 11 9 8 9
2 5 9 10 12 6 6 7 9 10 8 10 15 18 18 20 20 14 7 2 14 18 19 20 19 20 20 21 24 26 29 26 23 25 21 19 19 18 17 17 16 14 14 15 14 12 11 11 10

GFSSGP_850_spd_081.txt.gz
Wind_Speed
11 8 3 7 4 2 4 5 5 7 14 10 15 14 13 21 11 10 29 23 25 21 19 18 17 16 14 13 12 11 11 11 11 11 10 9 11 11 12 12 13 13 15 16 15 16 16 17 16
7 7 5 6 6 3 1 5 6 5 14 20 13 16 16 15 14 31 28 25 22 20 18 17 17 15 15 12 12 10 12 12 11 12 11 11 12 11 11 13 13 13 14 14 15 16 16 16 15
10 8 7 2 3 3 3 3 7 17 22 17 17 16 12 13 29 25 28 26 23 21 18 17 16 15 14 12 11 11 11 11 12 12 12 12 13 12 12 12 13 13 14 14 16 17 15 15 16
8 7 8 6 5 1 2 7 12 19 18 14 16 15 12 21 20 26 28 24 22 20 17 17 15 14 13 11 9 11 10 10 11 12 12 12 12 12 12 12 13 13 14 13 15 14 15 15 16
8 7 5 2 4 4 6 9 20 12 12 18 16 17 25 16 22 26 26 22 20 21 15 15 13 12 10 9 9 9 9 10 10 11 11 12 11 12 12 13 13 14 15 16 17 17 15 15 15
4 6 1 4 8 7 8 11 11 10 14 17 25 23 12 17 27 25 23 20 20 15 18 12 12 10 9 8 9 9 10 10 10 10 10 11 11 12 13 13 14 16 16 17 18 17 15 14 15
7 6 3 11 13 9 12 7 5 16 17 12 14 17 19 25 26 24 22 18 16 20 13 11 10 11 10 9 9 9 10 10 10 10 11 12 13 12 13 14 16 17 17 18 18 17 16 16 16
11 3 4 7 11 7 12 6 2 9 9 9 14 12 25 30 26 24 21 19 18 15 13 16 9 9 11 10 10 10 10 10 11 14 14 15 17 17 16 16 18 17 18 18 17 18 19 17 17
6 3 3 2 13 10 12 7 2 3 10 7 4 25 31 31 27 24 20 20 16 15 14 13 11 12 10 8 10 11 12 12 14 19 19 11 16 10 14 16 17 16 18 18 17 17 17 18 22
4 2 8 5 7 15 15 10 9 6 7 10 13 28 31 29 26 24 22 20 18 15 13 12 14 11 12 11 11 11 7 17 13 12 11 14 12 14 14 18 18 17 17 16 18 16 12 10 7
4 2 7 13 14 18 18 10 8 14 10 15 23 32 32 29 25 23 21 18 18 15 15 12 12 14 13 8 14 8 12 12 14 12 11 12 13 16 13 16 15 14 13 9 10 10 14 5 8
4 11 14 12 16 13 15 16 10 13 5 18 21 30 31 29 25 23 21 18 18 15 14 11 15 11 12 11 13 11 9 10 10 10 12 12 12 12 9 11 11 12 10 8 10 7 9 8 9
8 5 7 17 9 10 14 11 11 9 6 17 22 30 29 27 23 21 19 18 17 16 14 13 13 11 12 10 11 11 12 11 9 10 6 11 10 12 12 9 10 9 9 7 7 7 8 9 8
7 13 10 12 9 18 12 15 11 9 8 19 26 30 28 25 23 21 20 18 17 16 15 14 14 12 12 13 12 11 11 11 10 9 10 9 10 11 9 9 9 5 9 7 5 12 9 5 8
9 8 9 9 19 14 16 15 9 15 16 22 29 29 27 24 22 21 20 19 18 16 16 15 14 14 12 15 14 10 10 12 10 8 10 9 8 5 7 6 9 6 7 8 4 5 5 6 6
13 14 12 10 14 14 12 11 18 22 23 24 28 29 25 23 22 19 18 18 18 17 17 16 14 15 14 12 14 10 7 14 13 9 7 6 8 6 9 5 5 7 4 8 3 6 7 6 7
14 14 12 12 13 12 12 14 13 18 22 25 26 27 25 23 21 20 19 18 18 17 17 17 15 14 14 12 10 10 9 7 7 8 7 7 4 6 6 5 3 8 3 6 5 6 5 5 4
18 18 13 16 12 12 17 11 20 19 21 24 26 28 26 24 23 21 19 19 18 17 17 17 17 16 15 13 11 8 7 7 5 9 6 5 6 4 6 5 5 4 7 5 5 5 4 5 1
12 17 22 17 15 21 13 14 17 18 13 13 25 24 26 27 24 22 21 19 18 17 18 17 17 18 17 13 11 9 7 6 6 7 6 6 3 5 9 6 5 3 3 8 6 6 5 3 1
16 18 9 14 13 12 19 17 20 22 20 18 11 17 23 27 26 24 22 20 18 19 18 18 17 17 16 13 11 9 8 6 7 6 6 5 4 3 4 8 6 5 8 5 2 2 4 5 4
18 13 14 12 7 13 12 10 22 17 22 27 28 25 27 25 29 29 23 21 18 19 19 19 19 17 17 13 12 9 9 5 8 7 5 5 5 4 4 9 3 7 6 6 5 3 1 3 4
20 18 12 10 14 13 16 3 15 17 15 15 31 33 25 29 27 29 25 25 20 20 19 19 19 18 18 16 12 12 10 9 8 8 7 5 5 4 4 5 5 8 6 8 5 3 2 0 4
16 16 11 12 14 11 19 5 6 12 16 11 15 27 29 31 30 31 27 26 22 20 20 18 18 18 18 18 16 13 12 10 9 10 9 11 6 6 6 6 6 10 8 9 6 4 7 2 3
17 17 13 12 13 13 14 13 7 7 16 19 14 11 9 20 29 31 30 29 25 23 21 20 20 18 18 17 20 15 11 11 4 9 7 7 8 4 7 8 9 8 6 2 6 6 6 7 5
16 13 11 12 14 11 17 10 5 9 12 9 11 9 17 19 17 29 33 31 27 27 24 22 21 21 19 18 16 17 13 12 8 6 9 9 4 9 9 4 8 8 11 8 8 7 8 10 7
19 20 13 14 14 15 13 11 10 12 15 12 8 3 10 27 24 27 30 30 30 28 26 23 22 21 22 21 19 17 15 12 13 12 11 9 7 9 10 6 7 9 9 7 9 7 4 8 7
19 20 24 15 16 15 13 15 15 10 14 10 9 7 4 18 30 27 32 32 30 30 27 25 23 22 21 21 20 19 18 16 14 14 12 11 9 8 7 7 8 8 8 9 10 7 8 9 7
12 17 20 9 17 17 15 18 13 11 9 9 10 12 13 3 15 11 19 31 30 30 28 25 24 22 21 20 20 19 19 18 18 15 16 13 12 11 13 10 10 9 10 9 9 9 10 10 8
11 13 18 14 15 13 12 8 13 14 9 8 9 12 15 19 21 14 12 11 21 31 29 26 26 24 20 19 20 20 19 19 18 17 16 16 15 14 12 9 12 12 10 11 12 12 7 6 9
10 13 17 12 19 13 6 7 12 13 16 13 11 12 14 17 17 18 12 9 6 7 20 26 25 23 21 19 19 20 20 19 18 18 17 16 16 15 17 15 17 15 14 13 14 12 11 11 10

GFSSGP_850_spd_084.txt.gz
Wind_Speed
10 10 3 8 3 2 0 5 2 10 7 21 21 21 18 22 10 16 30 25 24 21 21 19 17 16 15 14 14 11 11 11 11 11 11 11 12 12 12 13 14 16 16 16 17 17 16 17 19
7 4 7 5 4 3 3 4 6 1 18 27 27 24 20 24 37 35 30 27 23 22 19 20 18 17 16 16 14 12 13 13 12 13 13 12 12 12 13 14 14 15 16 17 17 17 15 16 18
12 9 4 2 3 1 2 1 9 9 19 25 25 23 19 30 33 29 30 30 23 22 19 20 19 18 15 15 13 12 12 13 13 13 14 14 13 13 14 14 15 16 16 17 17 17 15 18 22
2 5 6 3 6 3 3 8 12 19 24 25 26 18 29 24 31 32 32 30 30 23 17 20 18 17 15 14 13 12 12 13 13 14 14 13 13 13 14 15 16 17 17 15 16 15 14 18 20
7 4 4 1 6 4 6 13 9 13 22 21 30 26 24 28 29 29 29 28 31 22 19 19 16 15 13 13 12 12 12 13 13 14 13 14 14 14 15 15 16 18 17 14 16 13 16 17 18
3 3 2 6 8 5 4 13 7 21 26 27 32 28 29 28 27 30 26 29 20 22 18 17 15 13 12 12 12 11 12 12 12 12 12 13 14 15 16 17 17 18 18 16 15 14 15 16 18
4 5 3 12 11 5 6 9 8 14 23 22 24 21 28 27 26 27 27 23 25 23 19 13 14 12 12 11 12 11 12 12 13 14 14 14 14 15 17 19 19 19 19 18 16 15 16 18 19
11 3 2 6 11 4 10 6 6 3 8 20 20 19 27 29 28 27 18 21 18 22 17 15 12 13 10 12 12 12 12 15 17 19 20 20 17 17 17 20 19 21 19 19 20 21 19 19 22
7 4 3 1 17 10 13 6 2 2 12 4 15 29 32 29 29 27 24 18 23 19 17 18 19 12 9 14 14 14 17 22 21 21 16 18 14 14 17 17 19 20 20 20 19 21 22 21 20
3 3 6 4 17 17 16 11 5 4 14 8 31 30 31 29 34 31 21 17 18 25 29 20 14 13 17 13 18 14 19 18 12 9 16 22 14 12 17 18 18 20 20 18 15 14 15 9 12
8 2 4 16 19 24 20 13 6 11 10 24 34 35 31 28 31 24 21 24 20 25 21 20 16 18 18 11 17 13 14 18 13 10 14 14 16 19 19 18 20 15 13 8 10 14 12 11 3
4 4 9 16 22 20 17 13 9 3 6 21 30 32 30 27 24 28 24 27 25 19 18 18 15 15 14 16 18 11 17 14 14 14 15 13 11 12 9 8 8 17 8 8 6 6 8 14 12
8 2 14 20 20 19 22 17 14 3 1 20 30 29 28 25 24 23 25 24 23 20 16 17 14 17 15 7 9 13 13 14 13 16 11 12 14 13 12 13 6 9 6 7 6 12 11 10 8
4 5 15 13 14 18 16 20 20 13 17 14 30 30 28 25 23 21 21 22 18 18 21 20 11 15 15 17 18 17 16 11 15 8 14 10 13 11 11 5 8 11 9 6 10 14 12 12 8
11 9 16 18 19 16 16 13 13 15 30 24 31 31 28 25 23 21 20 21 19 19 20 18 10 14 15 17 19 13 14 12 14 9 10 11 11 14 11 8 10 9 4 7 3 11 3 6 3
19 9 9 16 22 16 14 13 16 17 24 25 31 29 28 26 25 21 21 20 20 18 20 15 16 12 14 21 11 15 17 20 6 8 11 11 11 12 5 3 11 6 5 6 9 9 5 4 9
15 15 17 8 22 22 12 11 4 18 23 28 28 29 29 27 25 21 22 21 21 20 19 18 19 17 14 14 12 9 9 16 13 11 6 3 8 11 11 4 9 6 5 7 9 5 5 6 5
18 20 16 18 15 14 15 19 18 22 24 28 26 26 28 27 26 23 21 22 21 22 19 17 17 19 15 16 10 14 8 12 10 7 10 8 7 8 7 6 8 8 12 9 7 8 9 5 8
21 20 13 6 11 22 17 19 19 25 24 26 25 26 26 27 26 23 23 23 22 21 21 19 20 22 16 17 14 12 8 9 8 5 7 3 7 5 10 8 8 8 8 9 4 7 4 4 2
24 9 10 11 5 9 12 17 5 20 18 15 25 24 25 26 26 25 24 24 23 24 23 23 21 21 18 17 16 10 10 9 7 6 4 8 5 7 8 10 7 3 8 5 8 9 5 3 4
24 17 14 13 16 12 21 12 10 19 21 10 19 16 21 27 30 27 26 26 26 26 25 25 21 20 23 14 12 11 11 11 14 7 4 10 5 5 6 9 8 8 8 6 7 4 1 7 5
22 18 16 27 23 11 30 8 24 21 20 17 20 21 16 22 29 32 29 24 28 27 25 26 24 20 24 17 15 13 12 11 10 5 13 7 7 6 5 9 5 7 5 10 7 1 8 2 4
19 18 22 18 13 13 19 8 9 13 18 17 20 23 28 24 32 27 31 29 28 27 26 25 26 21 25 24 17 17 18 10 7 14 14 9 7 9 9 6 7 8 8 12 6 8 6 4 6
17 21 9 11 11 13 15 13 7 7 5 19 21 25 26 39 25 36 31 30 27 29 28 25 27 23 23 24 20 17 13 10 14 14 12 7 5 6 8 9 8 8 10 13 9 10 11 8 3
18 19 11 10 12 11 16 16 8 6 11 6 24 22 38 46 21 28 33 29 30 32 31 25 24 23 23 22 23 21 17 12 8 8 8 13 7 13 12 4 6 8 11 8 8 8 10 12 8
19 21 11 16 14 13 19 3 9 14 28 9 13 30 29 21 25 30 36 32 31 36 34 27 24 23 22 20 21 20 17 16 12 8 10 4 6 6 12 7 5 9 8 11 12 7 6 7 9
17 20 19 15 17 15 9 14 17 19 11 10 5 8 10 11 39 34 30 38 35 37 36 31 24 23 24 22 19 17 15 12 13 11 12 13 7 4 7 6 6 6 10 8 8 7 7 6 8
12 19 16 15 16 14 12 16 13 17 13 9 7 12 14 21 13 18 21 18 38 30 35 34 26 22 21 23 21 20 18 15 18 16 15 11 6 6 6 10 12 5 6 8 9 7 6 8 9
13 12 17 19 15 13 8 7 14 14 10 7 10 17 17 16 18 12 6 1 18 23 27 32 30 24 22 22 23 20 18 18 18 22 19 20 18 8 8 10 14 9 9 11 9 9 9 11 9
17 17 16 13 19 12 6 6 11 13 11 11 11 18 19 18 15 16 13 27 5 9 10 17 29 26 25 24 25 25 21 17 17 17 19 16 14 20 21 10 12 15 14 13 13 9 9 11 7

GFSSGP_850_spd_090.txt.gz
Wind_Speed
9 10 5 3 3 2 1 3 3 4 6 17 25 9 13 8 4 4 25 23 24 23 21 18 17 16 15 14 13 12 13 13 14 15 15 15 15 16 17 17 18 18 18 19 21 23 25 25 25
14 10 4 1 3 1 1 2 7 7 18 34 17 19 15 4 12 27 28 24 24 23 21 18 17 17 16 16 15 14 14 14 14 15 16 16 16 15 17 17 19 17 17 19 23 23 24 22 21
11 5 0 1 2 3 3 5 2 20 26 19 12 13 9 12 29 30 30 28 26 23 21 19 17 18 15 15 15 15 15 14 14 15 15 16 17 17 16 17 18 19 17 18 22 23 22 20 19
8 3 1 2 3 4 4 3 2 19 22 19 27 13 18 18 25 32 30 28 26 23 20 19 18 16 15 15 15 15 16 17 16 16 16 16 16 17 17 18 18 17 17 19 20 22 21 17 18
5 3 2 2 2 3 2 6 15 4 11 21 33 13 17 21 30 31 30 26 25 24 21 18 17 16 15 15 15 15 16 15 15 15 15 15 17 17 16 17 17 17 16 19 21 21 19 16 16
2 1 3 4 3 2 5 5 18 16 25 27 34 25 12 32 33 31 28 25 21 23 21 19 16 15 14 14 15 15 15 15 14 14 15 16 17 16 17 16 16 14 16 19 20 18 18 18 18
3 0 4 8 7 3 4 11 24 23 32 17 33 17 25 35 31 30 25 25 24 20 18 17 15 15 14 15 15 14 15 15 16 15 15 16 17 18 20 20 18 18 20 20 20 20 19 17 15
4 1 1 2 10 3 8 6 27 26 19 34 44 12 24 36 34 28 23 22 21 19 15 14 14 14 15 16 16 16 17 17 16 17 17 17 18 19 21 21 21 21 21 21 22 21 18 18 14
3 1 2 6 8 6 9 9 24 25 36 29 7 34 41 40 35 29 26 22 20 16 16 15 15 15 16 18 19 20 21 21 19 19 19 19 20 20 21 22 23 24 24 23 23 21 17 15 14
3 1 4 2 15 11 13 12 14 19 26 25 34 33 45 40 34 31 28 25 22 21 16 16 14 16 19 21 22 22 21 18 20 22 22 20 19 21 20 20 20 20 22 23 18 16 14 10 8
6 4 6 8 17 17 12 12 10 20 7 34 42 43 45 38 34 29 25 24 21 20 20 19 19 19 20 24 23 20 20 19 19 21 22 22 20 21 20 18 18 19 17 14 15 11 8 10 7
4 6 7 9 21 18 15 12 8 15 17 35 47 46 45 39 36 31 30 24 24 20 21 21 20 22 22 18 19 19 19 19 19 17 19 20 19 19 15 13 12 10 12 14 10 12 9 10 11
2 8 10 16 17 20 16 9 8 20 28 37 42 42 42 37 36 33 29 26 24 25 25 22 19 19 17 18 19 19 21 18 17 15 16 17 17 16 12 10 9 12 12 12 11 10 11 11 8
13 12 13 15 19 15 14 9 7 10 28 33 43 40 36 34 35 37 31 31 24 23 24 22 18 17 19 18 18 18 14 14 13 11 12 8 12 11 12 7 7 8 10 12 9 10 11 9 7
14 7 7 12 14 7 20 5 9 19 25 30 36 39 35 34 33 35 33 32 25 24 22 20 18 13 12 13 13 15 16 13 10 12 11 10 8 7 9 13 11 9 10 12 12 9 8 7 6
5 4 9 9 12 13 5 2 5 15 17 21 27 31 32 30 30 32 34 30 25 26 26 24 20 16 15 19 15 15 17 12 12 9 10 10 8 8 12 11 6 6 7 12 11 10 9 9 9
2 4 4 9 21 10 3 8 18 20 16 19 22 27 21 37 38 33 35 29 31 29 23 19 21 19 19 18 13 13 15 10 10 12 10 11 11 13 13 10 9 8 8 9 9 6 8 3 4
3 2 4 8 11 4 4 5 15 26 22 25 26 26 22 33 38 33 35 33 30 24 17 16 25 22 22 16 17 14 16 11 9 11 9 10 9 13 10 13 8 10 9 10 6 6 3 3 2
2 5 10 4 12 7 3 8 7 22 21 21 24 25 24 36 38 38 38 31 30 26 18 23 21 24 23 17 18 16 15 13 11 11 6 9 11 10 9 10 7 8 7 9 7 6 3 5 2
3 5 2 15 12 8 10 3 1 11 24 26 29 23 29 27 40 42 41 37 31 26 21 23 16 26 22 17 18 15 15 14 10 6 6 6 9 9 10 9 10 8 9 9 9 3 3 5 3
5 6 6 6 9 8 11 10 8 5 9 21 22 19 28 37 42 42 39 36 30 26 23 21 20 22 20 17 14 15 11 13 12 11 10 10 8 7 11 13 10 7 10 10 6 4 6 4 2
5 12 8 17 7 5 11 5 4 7 11 16 20 18 22 25 39 42 40 37 33 27 24 23 23 20 21 23 18 13 16 17 14 12 9 11 8 5 8 13 13 11 11 10 8 5 5 1 2
11 12 10 17 5 6 10 3 4 7 8 12 17 19 23 21 23 31 41 37 34 29 26 24 28 23 20 23 20 15 12 18 14 10 11 11 11 9 9 9 13 9 12 13 9 7 4 3 1
14 4 2 7 5 1 8 5 4 11 18 12 16 22 26 25 25 23 29 38 36 31 27 24 28 26 22 23 23 17 13 15 14 14 15 13 10 12 13 8 11 10 10 15 13 11 8 4 3
5 6 1 2 2 6 7 8 8 17 17 23 29 35 30 31 34 26 23 35 38 35 30 26 26 26 25 28 24 19 17 15 14 10 16 13 12 12 13 11 8 8 13 12 14 12 11 8 7
6 8 6 5 3 2 6 6 2 7 14 17 22 28 25 40 36 29 21 25 34 36 31 29 25 24 27 33 28 24 22 20 15 14 14 14 10 11 10 8 6 8 11 12 14 12 12 12 11
7 3 9 6 2 4 3 4 4 8 4 9 12 15 19 26 36 31 25 22 21 30 36 31 25 22 28 31 29 28 23 23 19 14 14 11 10 7 14 12 14 10 10 14 11 11 10 12 12
8 6 2 3 6 4 3 5 4 3 6 6 6 10 6 17 21 27 31 22 20 18 31 34 27 22 26 27 31 29 25 23 21 18 16 13 11 11 9 8 11 9 13 11 11 9 11 11 9
1 3 4 4 5 6 4 1 3 9 10 9 10 8 4 6 15 24 36 28 24 19 28 29 28 27 24 25 27 29 27 23 20 21 21 17 15 15 15 14 11 11 9 9 9 10 12 10 9
5 8 7 5 5 3 4 2 5 8 13 16 10 7 3 2 9 16 26 27 20 19 25 19 24 24 25 25 25 24 24 22 22 22 25 22 18 17 15 13 10 13 13 11 10 9 10 13 10

GFSSGP_850_spd_093.txt.gz
Wind_Speed
10 9 5 0 2 2 1 2 2 1 6 12 22 5 9 10 2 3 23 22 23 21 19 16 16 14 13 12 11 12 13 10 12 13 13 12 13 14 15 16 17 16 16 19 19 21 22 22 22
12 8 1 2 2 3 3 1 4 5 10 29 8 16 6 4 7 23 25 24 22 20 17 16 15 13 12 11 12 12 13 13 11 13 13 13 14 15 15 17 16 16 17 20 20 20 19 19 18
12 4 2 2 1 2 2 1 4 9 23 21 7 11 5 3 16 32 26 26 22 20 18 17 16 14 14 14 13 13 12 13 13 13 14 14 14 15 16 17 16 16 17 18 18 17 17 17 16
6 1 1 2 5 4 3 5 11 15 15 7 15 10 9 6 23 24 27 24 22 20 17 16 16 14 13 13 14 13 14 14 14 14 15 15 14 15 16 17 15 14 17 17 17 16 16 17 15
4 2 1 3 5 2 3 8 7 10 5 17 12 7 14 14 20 29 27 24 21 19 18 16 13 13 13 13 13 14 15 13 14 14 15 15 15 16 16 16 15 15 17 18 16 14 14 15 15
3 2 1 3 4 3 2 7 3 11 15 18 18 18 8 19 28 26 24 22 19 18 17 16 14 12 12 13 13 14 14 14 12 13 15 15 16 17 16 16 14 16 17 18 15 14 15 15 14
2 0 2 5 7 4 6 11 6 16 16 9 24 6 17 28 26 26 24 21 19 17 15 14 13 12 12 12 13 12 11 13 14 13 15 15 16 16 15 13 13 17 18 18 16 15 16 12 11
3 2 2 3 7 4 3 7 17 27 9 22 24 6 16 31 29 26 24 21 19 16 13 11 12 12 12 12 12 12 11 12 12 14 15 17 18 17 17 17 17 17 18 17 17 15 14 11 11
1 2 0 4 5 6 4 12 14 11 27 15 3 26 35 33 30 26 23 21 18 15 13 12 11 11 11 12 13 13 11 12 14 16 15 17 17 19 19 21 20 19 18 18 16 14 12 9 8
4 1 1 5 10 5 8 17 18 13 16 22 29 26 32 32 29 25 25 22 18 16 15 13 13 11 12 15 16 15 15 13 17 17 18 18 19 19 21 20 21 19 17 14 12 10 9 6 5
4 2 2 3 19 16 13 11 19 26 10 31 37 35 34 31 29 26 25 21 18 18 16 14 15 14 15 18 18 13 14 17 18 18 19 19 19 19 16 15 17 16 14 11 11 8 6 5 5
2 6 6 5 15 19 16 13 17 16 14 38 39 38 36 34 32 29 26 23 21 18 19 18 18 19 22 19 16 15 15 16 16 16 16 17 17 16 15 15 13 12 12 11 8 7 4 5 6
4 5 9 8 14 20 16 13 15 10 31 38 38 39 39 36 32 27 24 23 21 22 23 22 19 20 17 18 15 15 15 15 15 15 15 15 14 12 9 7 12 11 9 10 10 11 9 6 9
10 4 12 9 15 14 15 10 12 17 35 37 40 40 39 35 31 28 25 25 23 23 24 23 20 16 17 16 18 15 13 13 14 14 14 9 10 5 7 7 9 9 10 9 8 8 7 6 7
9 7 6 10 7 7 27 7 11 15 35 36 37 37 35 34 32 32 27 27 25 24 26 24 22 18 16 15 15 13 11 9 8 8 8 9 7 5 4 5 7 9 8 9 8 6 4 2 5
8 4 7 9 10 10 3 3 10 23 31 30 33 30 31 32 37 32 26 25 25 25 22 23 20 19 17 14 13 13 9 7 5 6 7 6 5 5 6 5 6 5 7 7 6 3 3 4 2
1 3 4 7 6 7 3 4 12 18 22 28 29 30 29 32 29 32 27 26 26 24 22 23 18 16 15 17 15 13 10 6 5 5 6 6 5 4 5 6 5 5 8 7 5 3 5 3 0
3 4 2 4 10 6 2 2 13 18 19 20 24 26 29 30 33 34 31 29 25 25 23 23 19 17 16 17 15 14 13 8 7 7 6 6 4 6 8 6 3 3 6 5 3 4 1 3 3
3 2 4 6 7 7 5 6 15 19 11 18 23 21 30 35 35 35 33 30 27 26 25 25 22 19 18 16 14 13 14 11 9 9 6 6 8 7 6 8 4 4 4 4 2 2 3 1 1
3 1 5 11 8 9 10 7 4 10 19 22 33 18 31 30 35 39 37 31 31 27 26 27 25 20 18 13 12 11 12 11 10 9 7 6 7 7 7 7 6 4 3 4 4 1 1 2 3
1 3 7 5 8 8 9 6 11 4 19 24 34 14 30 36 39 39 41 36 33 30 26 26 26 21 22 16 13 13 13 11 12 10 8 6 6 4 7 7 7 6 6 5 6 1 2 3 4
2 5 5 16 8 4 2 3 10 10 13 20 32 18 28 37 43 42 43 38 38 33 26 25 22 18 22 19 18 14 12 11 10 9 7 8 7 5 7 7 9 6 6 6 7 4 1 3 4
7 3 5 9 4 6 4 1 5 6 12 14 28 23 22 36 46 47 45 40 39 34 28 25 23 20 18 19 17 15 13 14 14 7 9 11 8 8 5 6 10 8 8 9 8 6 3 1 4
3 1 6 6 4 1 8 6 4 7 14 17 31 29 28 35 36 42 44 40 39 34 28 27 25 23 18 21 23 18 15 10 14 14 9 9 9 11 11 9 7 11 9 10 11 8 7 4 1
4 5 1 2 1 5 9 7 6 5 11 19 31 31 35 36 40 37 36 37 40 36 29 28 24 25 22 21 24 22 19 12 13 10 12 13 10 8 10 8 7 9 9 9 14 13 10 9 7
6 10 5 6 5 3 5 5 4 5 14 16 16 21 23 32 35 35 31 33 36 37 32 28 25 21 24 24 24 25 21 17 14 10 9 13 12 9 9 9 6 8 10 13 13 14 11 12 11
4 4 9 5 2 4 2 4 1 5 8 15 20 24 26 24 31 32 32 33 33 36 35 31 27 23 22 25 25 27 23 20 16 14 11 10 13 11 11 12 10 9 9 13 12 12 12 12 13
8 6 4 3 5 4 1 2 3 2 4 8 12 19 18 21 21 28 25 30 30 33 36 33 30 27 23 24 25 29 26 22 18 16 14 13 12 11 8 8 10 11 11 11 14 12 11 11 11
1 2 5 5 5 5 3 5 1 6 7 9 13 14 14 16 17 16 25 24 28 18 28 31 29 27 23 21 24 28 28 24 20 19 16 16 16 14 12 11 12 9 10 11 12 10 11 11 11
5 9 7 5 3 1 3 5 2 8 9 14 13 11 9 8 13 19 21 24 28 31 16 22 25 25 22 20 22 24 28 27 25 21 20 21 21 17 15 13 12 10 12 9 10 10 9 10 12

GFSSGP_850_spd_096.txt.gz
Wind_Speed
9 8 4 1 2 3 2 1 1 10 7 8 23 5 5 7 1 3 24 20 20 19 18 15 14 13 11 10 11 11 11 10 10 10 10 12 13 13 14 14 14 13 15 17 19 19 17 18 17
11 6 2 1 2 3 2 1 2 5 12 24 7 17 4 3 5 22 23 23 20 18 17 15 12 10 10 9 10 11 10 11 11 10 10 13 13 13 14 14 13 17 17 18 19 17 17 17 17
10 3 2 3 2 1 1 1 2 8 28 20 5 7 5 3 15 26 26 26 21 17 15 14 11 10 10 10 10 11 11 11 12 11 12 13 14 15 15 15 14 16 16 16 15 16 15 15 15
6 2 2 2 3 2 1 0 15 18 19 5 14 9 6 3 27 20 28 24 20 16 14 14 12 11 10 10 9 10 11 11 12 11 12 13 14 15 15 15 13 15 15 15 15 16 15 14 13
6 3 2 3 3 3 1 2 2 7 6 8 5 6 11 9 13 29 25 22 18 16 14 13 11 9 10 9 10 11 11 11 12 12 12 13 14 15 14 13 12 14 14 15 14 14 15 14 14
2 2 1 3 4 1 2 3 2 4 10 10 12 13 5 9 26 25 23 20 17 16 16 12 10 10 10 10 10 11 11 11 11 12 12 13 14 13 13 13 13 13 14 14 13 13 14 14 15
1 1 2 4 8 3 2 4 3 9 12 7 20 5 11 24 24 24 21 19 17 15 14 13 10 9 10 10 10 10 10 10 11 11 12 13 13 12 12 11 12 14 14 13 14 15 14 13 14
3 2 1 1 8 5 4 4 13 12 5 19 19 7 12 28 26 23 21 18 17 15 12 11 12 10 10 11 10 9 10 10 11 12 13 13 13 12 12 12 13 13 13 13 13 12 13 12 13
4 1 2 4 7 4 4 6 8 8 20 6 3 23 29 29 26 24 21 19 16 14 11 10 10 10 10 11 10 10 10 12 13 14 14 15 13 14 15 15 15 14 14 14 13 12 13 11 9
4 1 2 4 2 3 9 17 11 9 8 14 28 24 29 28 25 24 22 19 16 14 12 10 10 10 9 11 12 11 11 14 15 15 15 16 16 17 17 18 17 15 13 11 9 7 7 7 9
3 1 6 8 12 2 13 14 9 19 5 23 34 35 30 27 24 22 20 16 15 14 12 12 11 12 12 14 14 13 14 15 15 17 17 17 18 17 16 13 14 13 11 9 7 6 5 4 6
2 4 8 17 19 7 13 15 14 7 7 37 38 35 32 27 24 23 20 17 18 16 12 13 13 14 16 14 12 13 16 17 17 16 17 17 16 15 13 12 10 8 7 6 4 4 5 7 6
4 5 9 10 17 13 11 12 12 5 18 35 35 33 31 26 23 22 19 17 16 18 16 16 17 19 17 15 13 15 16 16 15 14 14 15 14 12 11 6 7 7 5 6 6 6 6 8 5
2 3 10 3 8 20 12 8 10 9 31 30 34 33 31 28 25 24 21 19 20 19 20 19 21 17 14 14 16 16 15 16 14 14 14 11 10 7 8 8 7 7 7 6 6 5 6 6 9
10 8 10 12 10 5 23 10 9 13 29 30 33 32 31 29 27 24 22 20 21 21 21 20 20 17 15 16 15 14 12 13 13 11 8 9 7 6 3 5 5 7 5 6 6 3 4 7 8
3 2 4 8 10 12 1 6 11 19 24 26 28 28 30 28 28 25 21 20 21 22 22 21 19 18 17 15 13 11 10 10 7 8 9 7 5 4 9 7 5 4 5 4 3 4 5 5 6
3 3 1 9 16 8 2 8 13 25 27 24 24 24 25 27 25 25 23 22 22 23 23 20 19 16 15 14 12 10 9 8 7 7 7 7 5 5 4 5 4 5 6 5 5 5 5 4 6
1 2 1 5 7 6 4 4 12 21 22 22 22 24 24 27 29 26 26 24 22 22 20 20 17 16 15 13 13 10 8 5 6 6 4 4 3 4 5 5 3 5 5 5 4 3 3 5 5
2 2 8 4 5 5 6 8 8 14 16 19 18 24 26 29 29 26 28 25 23 23 21 22 18 18 16 18 14 12 10 6 6 6 5 5 3 3 2 3 4 4 4 2 3 3 4 4 5
2 7 6 8 6 5 2 4 1 11 13 26 18 20 29 27 31 30 30 29 27 25 24 23 20 17 16 14 11 11 11 10 7 7 5 3 5 4 2 4 2 2 2 3 2 2 4 6 8
1 3 6 6 4 3 8 3 5 5 14 16 25 16 21 35 34 34 35 31 30 28 26 25 22 19 16 13 11 10 11 10 10 8 6 4 4 4 3 5 4 3 2 2 2 3 3 6 6
3 5 6 14 4 3 1 2 5 9 9 15 22 33 17 29 38 37 38 35 34 30 26 24 24 23 19 15 11 10 11 10 9 8 6 6 4 4 4 4 5 4 2 3 3 1 2 6 6
6 3 7 8 4 3 2 2 4 7 10 14 22 34 36 23 37 38 40 38 35 31 27 25 26 26 22 18 14 14 11 9 7 5 6 6 5 5 4 3 5 5 5 5 4 3 1 2 5
5 2 7 4 3 2 6 5 4 5 10 14 24 29 36 25 39 38 40 39 37 33 29 27 28 25 23 21 19 18 14 9 9 9 6 5 4 7 6 5 4 8 6 7 7 5 5 1 0
3 3 2 2 1 5 2 4 7 4 5 21 29 45 40 26 37 38 39 38 38 36 33 29 29 26 25 21 21 21 14 12 8 8 6 8 6 5 5 6 4 5 7 8 9 10 7 6 4
7 8 5 5 5 3 4 5 4 4 8 19 24 25 27 27 36 38 39 37 35 36 35 31 30 28 27 22 20 22 20 15 11 9 6 5 8 4 4 4 3 5 6 7 6 8 10 10 10
4 4 7 6 3 4 3 5 2 4 6 18 26 32 31 31 36 40 41 39 27 30 34 35 32 29 26 24 21 20 22 19 14 11 8 7 6 8 5 6 6 6 5 7 10 10 10 11 10
7 6 4 3 5 3 3 5 4 2 5 8 18 25 28 32 34 35 39 39 36 36 30 33 32 31 25 24 22 20 20 20 16 14 11 9 9 8 9 7 9 9 10 9 9 11 10 10 9
2 1 5 5 4 6 3 6 2 5 7 8 12 21 33 34 34 35 41 35 31 35 32 34 31 30 27 24 22 21 20 21 19 16 13 11 9 9 9 7 7 7 7 7 9 10 11 10 8
1 2 5 5 4 2 4 5 1 6 12 16 15 17 23 27 31 32 31 30 34 35 28 25 28 29 26 25 22 19 19 21 21 18 14 15 15 15 13 12 11 9 7 8 6 7 9 9 9

GFSSGP_850_spd_099.txt.gz
Wind_Speed
8 7 2 3 1 1 3 4 2 13 11 9 16 4 5 6 2 7 24 19 19 19 17 15 13 11 9 8 8 8 8 8 8 8 9 10 11 13 14 14 14 14 18 18 17 16 16 17 15
10 5 2 2 2 4 3 3 10 12 16 23 6 13 2 5 6 21 22 23 20 18 16 14 12 10 8 8 9 9 8 8 8 9 10 11 12 12 14 14 16 16 18 18 16 16 17 18 17
8 4 3 2 2 3 3 6 11 12 20 19 8 7 3 4 14 15 24 24 19 17 16 13 10 9 9 9 9 9 10 10 10 11 12 12 13 13 14 15 14 16 16 15 15 15 15 15 15
4 3 4 2 2 2 3 5 12 24 18 7 14 9 7 5 13 19 26 22 19 16 14 12 11 11 10 10 10 10 10 11 10 12 12 14 14 14 13 14 14 15 15 15 15 15 14 14 13
4 2 2 2 1 0 6 9 14 20 12 12 6 6 12 10 10 26 24 21 17 16 15 12 11 11 11 10 10 11 11 11 12 12 12 13 15 14 13 12 14 14 15 14 15 15 15 15 15
3 2 2 4 4 2 6 8 19 14 10 12 15 16 7 8 23 24 23 19 16 15 14 12 10 10 9 10 12 13 12 13 11 11 12 14 13 13 14 12 14 15 14 14 15 16 17 17 17
3 2 4 5 8 5 3 6 9 11 13 7 18 12 10 17 24 24 21 18 16 16 14 12 10 10 9 10 10 12 11 12 12 12 13 12 12 12 13 11 13 15 14 15 15 15 15 16 16
1 2 4 5 8 5 4 5 10 9 8 12 18 9 12 24 26 24 21 18 18 15 13 11 10 10 11 11 10 9 11 12 13 12 13 11 11 11 12 12 13 14 14 14 15 14 14 15 16
3 2 3 6 7 4 10 7 6 7 17 8 2 21 23 29 27 23 21 18 17 15 13 12 10 11 11 11 10 9 10 12 13 13 14 13 13 13 13 14 14 14 14 14 14 13 13 12 13
4 1 2 4 5 10 11 12 11 10 13 12 21 20 28 27 25 23 23 21 16 15 13 12 11 12 10 10 9 9 12 13 14 14 15 14 15 15 15 16 15 14 13 12 11 9 10 10 12
1 1 6 11 4 6 16 13 9 18 8 15 29 29 26 25 22 20 18 18 15 14 13 13 12 12 12 12 11 12 14 14 15 15 16 17 18 18 16 15 14 13 11 10 9 9 10 9 10
3 2 7 3 5 6 14 13 14 5 3 19 30 32 28 24 22 19 17 17 16 14 13 13 14 15 16 15 12 15 17 16 16 17 18 16 15 14 14 12 10 9 8 7 7 7 9 9 8
5 5 15 11 5 3 11 11 14 6 18 25 26 26 24 21 19 18 15 16 16 14 15 15 16 17 15 14 14 16 17 17 16 17 17 15 14 13 9 7 7 7 6 7 8 9 9 10 8
4 8 11 7 10 7 7 8 12 7 25 24 25 23 22 21 21 20 17 16 16 15 16 18 19 16 15 15 16 16 16 16 16 16 15 14 11 7 8 7 5 6 5 6 6 9 9 9 11
7 10 12 5 14 7 8 3 5 15 25 25 22 21 19 18 18 19 17 16 16 17 19 20 18 16 16 17 17 15 15 15 15 15 12 11 9 8 5 6 6 7 5 6 6 7 9 10 11
7 4 7 8 12 15 10 8 8 12 24 24 21 20 19 18 18 18 16 16 17 20 20 21 18 16 18 17 16 14 14 12 10 8 9 8 8 9 10 8 6 5 6 5 6 7 8 8 9
1 3 5 8 10 5 5 1 10 17 20 22 21 19 19 18 18 17 17 16 18 19 20 20 19 18 17 16 13 12 11 11 11 10 8 8 6 7 5 6 5 6 7 6 6 7 6 7 8
4 2 3 9 7 13 12 14 18 18 16 21 22 20 19 20 22 21 19 17 18 20 19 19 19 18 17 15 14 12 11 9 10 10 7 6 7 7 8 6 6 7 7 5 6 4 4 4 4
3 8 8 12 10 7 4 6 20 24 17 20 21 20 20 22 21 19 21 20 19 22 21 20 20 18 16 14 14 12 9 7 7 8 7 6 5 5 3 5 6 7 6 3 4 4 4 3 5
6 8 6 9 8 4 6 6 9 22 24 24 21 20 22 19 19 21 22 23 22 22 22 22 18 18 16 16 12 10 8 7 8 7 6 4 5 4 3 5 4 4 3 4 4 4 5 5 6
3 1 5 6 6 7 11 2 4 17 15 20 21 17 21 24 24 22 24 26 24 24 23 22 21 18 17 16 14 11 11 11 8 6 5 3 5 5 4 5 3 3 3 3 3 4 5 5 7
3 3 8 15 8 3 6 4 13 15 18 18 26 26 17 23 25 26 26 27 29 25 23 20 21 19 17 16 13 11 12 10 8 6 5 5 5 6 5 6 6 5 3 4 3 2 4 7 7
2 5 10 8 4 1 7 4 3 18 15 21 27 34 29 19 26 28 29 30 28 28 24 21 21 21 19 16 13 10 9 8 7 7 6 5 5 5 6 7 7 6 4 4 4 2 3 4 7
6 8 9 4 3 3 3 6 8 12 24 19 27 32 36 27 22 27 26 26 29 29 26 23 21 22 21 18 16 13 10 9 7 8 5 4 3 4 5 3 4 7 6 6 6 4 4 1 2
6 8 3 2 4 3 2 6 6 8 10 20 28 36 36 34 24 23 25 32 27 32 29 26 23 24 23 22 19 15 13 11 5 7 8 6 4 4 5 5 5 3 7 6 8 8 6 5 3
11 12 5 6 4 3 2 5 1 3 7 10 25 31 27 31 29 23 25 32 35 33 31 28 25 24 26 23 22 18 17 12 8 7 8 4 6 6 4 4 5 4 5 5 6 9 10 8 7
5 8 1 2 1 4 2 3 5 3 3 13 23 23 26 31 31 29 26 30 31 34 30 30 28 27 25 25 23 19 19 18 12 9 8 5 4 8 5 4 4 4 4 4 6 9 9 10 9
6 10 9 4 7 8 3 4 3 5 6 11 19 27 26 26 27 24 29 33 34 32 33 29 30 27 26 26 25 20 18 17 17 13 11 8 5 5 8 7 5 9 7 8 7 7 9 9 10
6 6 2 6 4 10 7 4 1 6 9 12 16 21 24 26 33 27 29 32 33 28 28 28 23 26 28 28 26 23 19 17 17 16 11 9 8 7 4 4 5 4 5 8 7 8 10 11 10
2 5 12 8 10 5 7 5 1 3 8 11 13 14 18 21 24 32 30 34 39 37 25 33 26 21 24 26 27 26 21 18 18 19 15 12 11 9 8 8 8 6 6 6 6 6 8 9 9

GFSSGP_850_spd_102.txt.gz
Wind_Speed
5 4 1 2 4 3 9 7 13 14 14 10 12 6 10 11 8 10 21 14 16 13 11 12 11 9 9 9 9 8 8 8 9 10 10 12 13 14 14 17 18 19 18 17 18 17 16 15 15
6 2 1 4 4 10 9 9 16 12 16 21 10 10 5 13 10 21 18 17 17 14 13 10 10 8 7 8 7 8 7 8 8 9 10 11 13 14 16 17 19 19 17 18 18 18 18 17 17
5 1 4 2 2 9 10 11 13 16 19 13 7 5 5 9 21 16 20 19 16 14 12 11 9 6 6 6 7 8 9 10 10 11 11 12 14 14 15 15 17 16 16 16 16 15 15 15 16
0 2 1 1 9 8 14 15 18 18 19 7 13 11 11 18 10 18 21 18 16 13 11 10 9 10 9 9 9 9 10 11 11 12 11 13 14 14 14 14 16 16 16 16 16 15 14 14 14
1 2 2 2 7 8 11 14 21 20 13 10 3 10 18 9 18 22 20 17 15 14 11 11 11 10 10 10 10 10 10 11 12 12 12 12 12 13 13 14 15 15 15 16 16 16 15 15 15
1 1 2 5 9 8 9 15 20 18 13 12 16 24 13 15 22 20 18 16 14 15 12 10 11 11 12 12 11 11 11 13 11 12 14 13 13 13 13 13 14 14 15 17 17 17 17 17 16
1 2 3 5 12 11 11 17 16 14 15 10 17 16 14 22 19 19 17 16 14 14 12 10 9 11 12 12 11 11 11 12 12 13 13 14 13 13 14 14 14 15 17 16 16 17 17 17 16
1 1 5 9 13 12 12 12 11 13 9 13 14 8 17 24 21 19 16 16 15 13 11 11 12 11 11 10 12 12 12 13 13 13 13 13 12 13 13 13 14 16 15 15 15 15 16 17 17
1 3 7 10 16 12 16 14 8 7 16 9 6 16 26 25 22 20 17 16 15 13 10 11 9 11 12 10 10 10 12 13 12 12 14 16 13 11 12 14 15 15 15 15 15 14 14 16 16
6 3 4 6 5 15 17 13 14 14 14 16 20 23 27 26 23 20 18 17 14 13 12 11 10 10 10 10 11 11 12 10 11 12 13 13 13 14 14 17 15 13 13 12 12 12 11 13 8
3 2 7 6 3 12 15 12 10 14 12 19 26 30 27 25 22 18 16 15 13 12 11 11 11 11 10 10 10 10 10 10 11 13 13 14 13 12 11 11 9 8 10 7 8 8 7 5 7
4 6 3 11 4 12 13 12 11 4 10 16 27 31 28 24 21 18 16 14 14 12 12 11 11 12 11 10 10 12 12 12 12 12 14 14 11 12 10 9 8 8 6 8 8 7 8 7 6
6 8 12 10 7 12 12 13 9 9 13 22 27 26 25 21 19 17 15 14 14 13 13 12 12 12 11 12 12 12 13 12 12 12 12 11 10 9 7 7 6 7 7 7 7 8 8 8 7
2 10 18 8 5 5 11 14 9 12 21 27 25 24 22 20 19 17 16 15 14 13 13 13 13 12 11 12 14 13 13 12 12 11 10 12 7 7 6 5 5 6 6 5 6 8 8 9 8
6 10 10 10 12 2 8 10 9 20 23 24 23 21 20 20 18 16 15 15 16 14 15 15 14 13 13 13 13 13 11 11 11 10 11 9 7 7 7 4 5 4 5 7 6 7 8 8 8
5 10 10 9 11 5 6 15 9 20 24 23 21 21 20 19 17 15 14 14 15 16 17 16 14 14 14 12 13 12 12 11 10 8 7 7 6 8 7 6 5 4 5 6 6 7 6 6 6
9 7 8 8 12 5 3 5 3 14 22 22 22 21 20 19 17 15 14 14 15 16 16 16 15 15 15 14 12 11 11 9 9 8 6 7 6 7 5 5 3 7 5 5 6 5 5 3 4
8 7 12 12 7 11 6 6 6 11 21 23 22 22 21 20 18 16 15 15 15 15 15 15 15 16 15 11 12 10 10 9 9 8 7 7 7 7 8 3 5 7 5 5 4 5 3 3 1
2 7 12 9 13 6 8 8 13 16 17 17 23 23 22 21 20 18 16 15 16 16 16 17 16 16 14 12 12 10 9 9 9 8 9 8 6 6 6 5 5 6 5 5 3 3 4 3 2
6 13 15 14 11 5 6 10 15 23 18 21 22 22 23 22 21 20 19 17 17 18 18 17 16 18 15 13 13 10 10 9 8 8 7 6 6 6 4 7 4 7 3 4 4 5 4 4 4
5 2 14 15 10 10 11 2 10 21 17 19 21 21 24 23 23 22 21 20 18 19 20 19 17 16 15 15 12 10 9 10 8 8 6 6 7 6 6 8 7 5 6 3 4 3 5 4 5
4 2 8 19 12 6 14 4 7 17 20 24 26 26 27 24 22 23 23 22 21 19 18 18 18 17 15 17 12 11 10 10 8 7 7 6 8 7 6 8 8 7 5 5 3 2 5 7 4
2 6 7 9 2 8 15 6 8 16 18 23 33 32 28 25 26 25 24 23 22 20 19 18 17 18 15 18 14 10 10 8 7 7 7 7 7 7 7 9 10 9 4 6 6 3 6 4 5
8 10 4 3 2 7 8 11 10 18 25 24 30 31 34 27 27 27 25 23 21 20 19 18 18 20 20 19 15 12 11 9 8 7 5 6 5 7 7 7 9 9 6 6 6 6 5 5 4
11 8 3 3 7 7 4 7 2 18 15 25 33 37 38 35 28 27 25 23 22 23 21 19 18 20 21 18 16 14 11 9 6 7 8 6 5 4 5 8 7 5 9 8 8 7 6 4 4
14 14 6 7 4 7 4 6 4 10 12 19 28 33 35 35 32 26 26 25 24 24 22 20 19 19 20 18 16 15 13 9 7 6 7 6 6 5 8 6 6 6 8 7 8 6 6 6 4
14 15 14 9 7 6 7 6 9 9 9 15 20 30 33 37 32 26 24 24 25 24 24 22 19 18 17 18 15 15 13 13 10 6 9 6 6 9 7 7 7 6 7 7 8 6 7 9 7
13 12 16 12 13 12 7 8 2 10 10 13 19 30 31 29 33 30 26 24 21 25 24 21 18 16 15 16 15 15 12 12 14 11 10 9 7 9 10 7 6 7 7 7 7 7 9 8 7
12 12 10 13 14 12 12 7 6 5 7 11 18 25 27 33 34 32 31 23 21 22 22 29 17 14 14 15 15 15 14 12 11 11 11 9 9 8 8 8 7 4 7 8 8 8 9 8 7
8 17 16 10 15 10 13 0 4 5 5 7 13 19 22 23 28 26 34 31 28 26 23 22 24 14 11 15 16 17 15 13 12 12 13 11 10 10 9 8 7 5 6 6 7 6 7 8 7

GFSSGP_850_spd_105.txt.gz
Wind_Speed
4 2 4 8 5 6 11 13 15 15 17 14 12 12 15 16 14 14 23 16 18 15 14 13 13 11 10 9 9 10 11 11 12 13 14 16 16 18 19 20 19 18 17 17 17 16 15 16 16
3 3 5 8 5 11 12 14 16 12 16 15 12 13 15 14 18 26 22 19 17 14 13 11 11 10 9 8 7 8 10 10 11 13 14 15 16 18 19 19 19 18 18 18 18 18 16 16 16
4 4 4 5 5 13 14 15 13 18 19 14 8 18 15 20 21 20 22 21 17 15 12 10 9 8 8 8 9 10 10 11 12 13 14 15 15 16 17 17 17 17 17 15 15 15 15 16 15
3 4 1 6 9 11 17 15 18 21 10 10 18 14 25 16 18 22 21 20 15 14 14 11 10 9 9 9 10 11 12 13 13 13 14 15 15 16 16 16 17 17 16 15 14 14 14 14 15
2 4 2 5 13 15 17 20 21 17 13 15 15 22 19 16 22 21 18 16 17 16 11 12 12 11 11 11 11 12 12 13 13 14 14 14 14 15 15 16 16 16 16 17 16 16 15 15 15
2 1 1 9 11 10 13 19 22 14 15 8 26 24 17 21 21 19 16 17 15 15 11 11 13 12 12 12 12 13 14 13 12 14 14 14 14 14 14 14 15 17 18 18 18 18 17 17 16
2 0 7 9 10 15 14 19 17 17 14 16 23 18 19 21 19 18 16 16 15 17 12 11 11 12 13 14 13 14 12 14 13 13 13 13 14 15 14 14 16 17 17 17 17 17 17 16 16
2 2 6 6 14 12 14 14 13 14 10 17 19 10 23 22 20 18 15 16 15 15 11 14 12 12 11 11 12 12 12 13 14 13 13 14 15 15 13 14 16 15 16 16 16 17 19 18 17
4 3 8 10 17 12 13 12 13 8 13 10 7 24 26 24 20 18 16 16 14 13 11 11 13 13 11 11 11 12 13 13 13 19 19 17 13 10 11 12 15 15 15 15 15 16 14 15 19
7 3 5 4 12 19 20 17 13 13 13 11 18 26 26 22 20 18 16 14 14 10 13 11 11 12 13 11 15 10 13 11 10 12 11 13 13 13 12 15 14 14 14 14 15 15 14 9 7
3 3 3 6 5 22 19 16 15 15 11 18 24 30 26 22 20 18 16 14 14 13 11 10 12 13 11 10 11 10 8 9 10 12 10 13 13 13 11 11 10 8 9 9 9 10 10 6 7
2 2 1 9 2 13 15 15 11 9 16 17 23 28 26 23 20 17 15 15 15 12 11 11 12 10 9 11 10 11 11 12 11 12 13 11 11 11 8 7 9 7 6 6 7 6 6 8 7
4 7 14 8 2 13 14 12 10 7 16 20 24 25 24 21 19 17 14 14 13 13 12 12 12 13 14 10 12 11 13 15 11 11 10 11 8 8 9 7 5 7 6 6 5 6 6 8 7
7 10 13 5 8 8 12 14 13 15 20 25 24 24 22 20 19 17 15 15 14 13 13 13 12 12 11 12 11 13 12 14 12 10 9 7 7 9 6 5 7 7 6 5 5 4 6 7 8
7 12 11 3 2 4 3 14 14 17 24 26 24 22 20 19 17 16 15 15 15 14 13 13 12 13 12 14 16 11 12 12 11 10 9 5 5 6 8 4 5 6 7 7 6 7 6 7 7
9 9 9 7 5 3 7 12 17 20 25 24 24 22 20 19 17 15 15 15 15 15 15 14 12 13 14 13 13 12 12 11 10 8 6 5 7 6 6 6 4 5 4 5 1 5 6 5 5
2 5 11 8 2 2 6 12 13 22 23 23 23 22 22 21 18 16 15 16 16 16 16 14 15 15 14 15 10 13 12 11 9 7 7 6 5 8 8 5 4 7 3 3 5 4 2 2 3
5 10 14 10 4 4 3 2 7 20 21 17 21 23 22 22 21 18 17 16 16 16 16 15 15 16 15 11 14 11 10 13 9 8 8 6 5 4 7 2 5 8 3 4 4 4 1 4 2
21 13 16 11 9 4 11 9 7 7 9 16 17 20 22 21 22 19 18 17 17 16 16 16 16 17 13 12 10 10 10 11 10 8 7 7 6 4 10 6 6 3 3 6 2 2 3 2 1
8 18 18 10 9 3 7 8 5 10 14 14 19 20 24 25 23 21 18 19 18 17 17 17 16 17 15 12 11 10 9 8 8 7 7 6 6 5 4 7 5 4 3 2 1 1 1 3 1
7 9 12 12 8 6 10 2 10 11 17 14 20 15 27 28 27 24 19 21 20 18 18 18 17 17 17 13 11 9 10 7 7 7 7 6 6 4 4 6 1 7 5 4 2 0 2 3 2
6 21 18 15 18 7 16 2 1 14 11 17 24 18 20 28 28 28 27 23 21 19 18 18 17 15 16 11 13 12 10 9 13 9 8 5 8 6 4 5 4 6 2 4 1 1 4 5 3
9 3 28 29 9 15 20 6 9 20 19 21 30 28 22 24 28 22 25 23 22 21 19 18 18 16 15 14 10 10 12 14 3 9 7 7 7 9 7 6 6 6 5 7 4 2 1 1 2
5 2 5 7 10 7 16 14 15 19 28 29 36 34 32 31 21 29 27 25 21 23 19 18 18 18 16 14 12 11 7 8 11 6 5 7 6 5 7 7 7 7 4 4 4 5 6 1 2
9 13 4 4 8 3 1 9 8 23 24 30 34 40 40 31 24 26 30 30 24 21 22 19 18 18 18 15 13 10 7 7 4 8 10 11 11 6 9 9 7 5 7 4 6 8 5 5 3
14 13 7 6 5 5 14 4 8 16 23 29 37 42 41 36 28 30 32 23 25 25 23 19 19 19 19 16 15 12 10 7 7 8 11 7 6 6 10 7 6 5 7 7 7 6 6 6 4
15 15 13 8 3 9 11 12 15 13 14 26 33 37 41 37 35 29 28 30 36 23 21 20 19 18 19 17 15 13 13 13 12 14 2 11 6 7 6 6 6 6 6 7 8 5 8 6 6
17 11 15 13 13 16 12 11 11 5 10 14 18 31 36 35 39 30 20 25 25 23 22 22 21 18 17 16 15 13 11 10 9 8 11 5 3 12 12 7 6 6 7 7 7 7 9 9 8
12 11 11 16 15 15 7 3 16 21 12 13 17 19 33 32 35 34 22 21 27 24 26 28 25 20 18 17 15 14 13 11 9 8 9 4 5 3 4 8 8 7 9 8 10 11 5 5 6
18 19 17 11 14 12 15 5 8 10 11 10 12 16 23 27 35 41 40 19 24 26 23 23 19 21 20 19 16 15 14 12 11 9 9 8 7 8 8 5 6 6 5 8 9 5 7 7 8

GFSSGP_850_spd_108.txt.gz
Wind_Speed
3 7 7 12 3 5 13 15 12 18 17 20 27 19 18 20 12 16 24 22 25 18 16 15 14 13 12 11 12 12 12 13 15 16 17 19 20 21 21 21 19 19 18 19 18 16 16 17 21
2 7 9 6 3 7 11 15 15 15 18 21 28 19 23 24 35 33 26 25 19 18 16 14 14 12 11 12 11 11 11 13 14 16 17 19 18 19 20 19 18 19 18 19 18 17 16 18 19
7 1 2 3 2 3 12 14 16 21 15 24 12 10 21 27 26 30 28 28 24 24 15 13 12 11 11 11 11 12 12 14 14 16 17 18 19 19 19 18 17 15 16 17 17 17 16 17 19
5 2 1 4 6 14 17 16 19 13 18 24 30 16 26 25 27 26 26 18 20 20 11 11 11 11 11 12 13 13 14 15 16 16 16 17 17 18 18 18 17 16 15 15 15 15 14 16 18
5 4 1 5 2 20 15 20 22 12 23 21 29 21 25 25 28 25 23 18 15 16 13 14 13 13 14 13 14 14 15 15 16 17 15 16 16 17 17 17 17 17 16 16 16 15 14 15 18
4 2 1 4 10 15 16 22 16 15 25 11 24 26 27 24 21 20 20 20 22 20 15 14 14 13 15 14 14 15 15 16 16 16 15 15 16 16 15 17 18 18 18 18 17 17 16 16 17
4 2 6 7 9 9 17 21 12 16 21 21 23 23 26 19 19 19 21 23 29 19 16 14 14 15 15 14 15 14 14 15 16 16 15 15 16 16 16 18 18 18 18 18 18 18 18 19 22
6 3 4 3 5 15 19 21 21 23 10 23 23 18 18 19 21 23 26 17 20 16 17 11 14 14 12 14 15 14 13 15 16 17 18 16 17 16 16 16 17 17 18 19 22 23 24 23 19
5 3 5 6 16 12 20 19 15 22 15 21 13 25 23 21 23 21 23 22 18 15 16 11 14 16 6 14 16 16 15 17 19 19 21 20 14 13 15 13 17 17 18 19 18 17 16 21 20
5 2 3 5 14 13 18 16 15 5 12 18 27 24 24 22 20 19 18 21 15 12 13 19 12 14 14 11 17 16 18 17 9 11 11 17 15 7 15 16 17 18 17 16 14 11 12 6 13
5 4 6 9 10 22 23 19 20 20 14 21 30 26 24 21 19 17 25 21 16 14 15 15 14 12 14 13 10 11 15 10 11 8 15 14 10 16 12 13 15 13 15 5 4 11 7 17 5
7 14 4 20 8 16 17 19 14 14 22 26 24 24 23 21 18 18 23 18 17 16 18 14 17 12 13 8 12 10 10 11 9 8 12 11 8 6 8 7 11 3 4 12 10 6 9 14 14
7 3 18 3 6 5 17 13 12 19 26 26 24 23 22 21 17 17 18 21 18 17 15 18 16 13 14 10 12 13 13 13 10 11 11 4 12 8 4 13 12 8 11 3 9 5 18 13 11
6 9 7 2 8 6 4 17 10 23 22 27 26 23 22 20 19 18 20 18 17 18 16 13 11 18 13 14 11 13 16 14 11 5 8 12 7 7 5 2 6 8 11 6 10 9 7 10 9
10 11 8 3 7 6 1 14 13 17 24 27 24 23 22 20 19 17 16 16 18 16 14 9 15 19 12 18 10 10 14 12 14 10 5 3 6 13 6 4 8 9 11 15 11 11 10 6 6
7 6 9 2 6 4 4 6 18 21 25 25 24 22 20 19 18 16 16 19 16 17 12 11 13 14 13 23 17 8 12 12 10 9 8 3 13 11 11 3 5 7 3 0 12 6 6 6 5
4 4 8 0 9 5 3 9 13 23 25 24 23 22 21 20 18 16 17 20 19 17 15 18 16 13 15 14 8 11 14 7 9 4 4 3 7 10 4 7 6 6 6 7 9 6 6 4 6
8 6 9 3 3 8 3 9 14 22 23 25 24 23 23 22 20 18 19 19 20 17 16 16 17 15 15 13 13 11 13 9 9 8 5 2 4 7 5 7 7 4 10 8 7 7 6 8 3
16 7 5 13 8 3 5 2 5 8 19 19 22 22 18 22 22 19 21 20 20 18 17 14 18 15 17 19 18 10 16 7 9 8 3 5 3 5 7 8 5 6 5 6 11 3 5 4 1
12 14 12 9 7 3 4 6 9 9 15 7 5 20 23 19 23 22 22 22 19 20 19 19 20 19 15 13 10 11 10 12 9 7 7 7 6 7 2 3 6 5 4 4 6 3 7 1 5
8 16 13 9 6 6 3 3 7 8 10 14 7 3 14 25 20 24 23 23 23 23 21 21 19 20 20 9 13 10 11 12 11 6 8 8 6 5 4 6 5 3 2 4 7 1 5 5 5
12 15 20 24 13 5 15 2 3 9 14 12 13 14 15 9 30 28 24 24 26 25 23 22 20 20 20 12 14 18 9 10 13 7 8 10 7 6 3 6 1 5 3 5 3 2 2 4 4
9 18 15 17 9 9 16 4 4 14 16 20 21 23 20 16 22 29 27 29 26 25 26 25 21 17 18 23 15 14 13 13 15 9 11 12 11 11 5 5 6 5 1 4 6 4 4 1 5
21 16 16 9 5 5 15 10 7 14 24 22 30 28 26 22 28 31 24 29 32 30 27 25 21 21 19 17 18 15 9 14 7 10 9 10 2 7 9 7 7 7 6 3 6 8 7 3 2
8 20 7 6 5 11 15 13 11 28 24 23 26 37 36 32 13 25 32 32 36 30 30 28 23 21 22 15 16 10 12 10 7 6 11 8 11 9 8 10 9 7 8 4 6 5 6 6 6
12 16 6 4 5 4 11 8 4 22 32 34 25 29 34 36 26 29 26 32 22 34 26 28 24 18 21 19 15 13 10 7 3 2 9 10 10 7 11 7 5 6 6 7 6 6 1 3 4
13 14 13 7 5 8 5 6 6 18 20 27 32 30 36 40 43 37 23 36 28 25 30 25 25 20 20 20 17 14 12 14 12 8 4 4 22 13 13 6 7 3 6 5 5 4 8 8 6
15 7 13 11 7 9 4 4 6 12 16 23 26 36 39 42 42 32 26 32 26 35 32 32 25 18 21 20 17 14 14 15 9 5 7 3 12 4 10 11 6 6 6 5 5 7 8 8 9
12 11 11 15 10 9 4 0 13 12 5 13 28 36 38 42 44 37 31 13 39 33 33 27 26 19 22 23 20 16 11 8 11 10 5 3 6 3 3 8 10 9 8 7 10 10 6 6 4
16 16 12 7 10 10 7 7 11 10 25 28 12 43 39 40 36 36 33 14 27 20 30 35 36 26 24 19 22 19 14 15 11 9 6 5 6 6 6 5 9 8 8 9 8 7 7 8 7

GFSSGP_850_spd_111.txt.gz
Wind_Speed
7 5 7 6 2 1 3 8 10 20 13 21 11 17 14 10 8 7 25 22 20 20 19 18 17 16 16 14 14 14 15 17 17 19 21 22 22 21 20 20 21 21 20 19 18 21 23 25 25
3 1 9 4 1 1 4 8 16 17 22 33 33 34 30 19 26 31 31 21 21 21 19 17 15 14 14 13 13 13 15 17 17 19 20 19 20 19 19 20 20 20 20 19 18 20 23 24 21
7 3 1 3 3 2 7 14 10 22 20 19 16 23 13 22 30 33 31 19 21 19 17 16 15 14 13 13 13 14 15 16 18 18 20 20 19 18 18 18 19 19 19 18 18 19 22 23 21
3 0 3 3 5 3 10 12 16 23 30 33 31 15 32 33 38 42 32 25 18 16 14 13 14 14 14 15 15 15 15 18 17 18 18 18 18 19 18 18 17 16 16 16 16 18 20 25 24
3 2 3 3 4 11 12 18 29 21 25 24 34 24 28 33 33 30 24 22 17 16 15 15 15 14 15 16 16 16 16 17 17 17 17 17 17 18 18 17 17 17 16 15 16 18 20 23 23
4 3 2 3 4 9 11 23 27 25 30 27 30 33 23 33 29 26 27 18 14 18 17 16 16 16 16 16 16 16 17 17 15 15 16 16 15 16 17 17 18 18 17 17 17 18 19 20 23
5 3 3 4 1 8 8 25 18 21 28 25 31 19 25 26 25 26 26 20 18 18 17 16 17 17 16 16 16 16 17 17 15 15 14 15 15 17 18 18 18 18 19 19 20 21 22 20 20
9 3 4 2 1 9 14 10 31 30 24 33 35 11 18 25 26 28 32 21 17 16 16 18 16 17 17 17 17 18 18 19 18 17 15 15 17 17 17 19 20 22 24 23 23 23 23 23 21
9 3 2 5 3 8 24 13 8 22 35 25 15 27 29 29 29 29 23 21 20 16 14 14 15 14 17 17 19 19 18 18 18 19 19 16 15 16 17 18 19 21 18 19 20 17 17 18 18
4 2 5 10 16 18 25 25 13 17 19 23 29 27 30 38 37 29 24 20 21 18 19 15 15 18 19 22 20 21 21 17 14 13 15 13 12 10 15 16 18 15 13 13 11 7 12 13 15
6 4 2 16 21 20 21 19 15 20 15 30 29 29 36 29 26 26 25 22 22 18 18 19 16 14 15 19 16 19 16 14 13 13 17 15 10 9 12 13 9 12 9 13 10 20 16 10 9
5 9 5 15 20 19 11 18 8 19 28 37 32 29 33 24 27 27 26 23 21 19 19 19 18 17 13 11 17 13 21 15 12 16 16 15 10 10 8 6 4 8 15 12 7 7 15 14 14
7 13 9 10 20 9 22 13 6 27 36 34 32 28 27 19 31 30 26 22 20 21 20 19 17 16 11 7 13 15 16 15 10 12 12 13 8 9 7 10 9 8 11 13 14 11 13 12 9
13 30 28 25 12 1 15 16 22 28 33 30 30 26 24 17 37 26 24 24 22 26 22 18 14 13 9 12 19 18 14 13 11 13 10 18 11 6 3 6 9 9 10 7 5 9 10 8 9
8 9 13 9 8 7 17 15 19 31 32 28 24 23 23 26 24 20 26 28 29 24 19 13 15 17 13 15 16 17 15 10 9 12 13 14 11 7 7 6 5 4 5 5 6 1 8 8 13
4 3 5 7 11 5 13 2 16 32 32 27 28 26 26 23 25 29 26 29 27 21 13 11 17 17 16 15 14 19 12 11 4 4 7 10 9 6 11 12 7 3 3 6 3 9 3 7 4
7 4 6 8 9 1 4 4 10 28 30 25 27 24 26 26 22 22 24 26 24 18 14 14 17 13 18 17 16 16 12 7 6 5 5 4 10 8 7 7 6 6 6 5 8 7 10 6 6
6 5 7 5 3 6 4 2 3 25 25 23 26 25 26 27 23 20 27 24 20 15 17 18 16 18 21 17 14 17 14 11 9 7 1 3 7 8 10 6 5 4 12 7 5 7 8 8 5
8 11 8 7 6 3 3 7 7 15 18 21 24 27 29 28 26 24 30 25 20 18 19 23 19 15 15 18 15 16 17 11 10 10 1 7 3 5 4 4 7 6 7 6 5 7 7 6 3
12 16 5 6 11 5 5 6 13 10 8 9 10 27 30 30 30 28 32 26 20 22 20 22 19 16 19 17 13 12 13 9 6 5 4 6 4 8 7 6 3 5 3 3 3 3 6 6 6
2 7 4 5 8 3 2 4 8 4 10 11 5 3 25 33 33 32 30 25 21 22 23 20 18 17 18 15 11 13 16 11 11 7 6 8 5 9 5 4 2 5 2 4 5 3 5 4 4
10 3 9 15 6 5 3 2 5 10 12 12 12 8 11 20 25 34 32 29 27 24 25 23 21 20 23 15 18 13 15 16 13 10 8 5 6 4 2 8 4 5 1 7 3 1 2 5 9
10 18 18 15 5 5 8 4 5 14 18 17 19 19 13 15 21 30 28 32 29 24 25 25 25 22 23 18 15 16 15 10 11 11 9 9 8 8 5 4 6 8 5 7 3 4 3 3 6
27 14 10 4 0 3 10 5 4 8 26 24 24 24 20 19 19 27 27 30 30 25 24 26 24 21 27 20 17 20 16 13 13 17 10 11 9 13 9 9 7 9 9 5 8 7 5 3 1
21 10 3 1 2 2 6 7 11 12 14 29 30 33 36 31 29 31 31 27 32 30 28 28 23 19 24 23 22 16 15 11 13 14 15 12 10 10 15 11 10 10 10 6 7 7 6 5 4
14 12 4 4 1 2 4 2 6 11 26 18 13 38 32 33 32 37 33 19 35 35 34 30 24 19 18 22 19 16 15 11 8 11 7 6 12 13 14 8 10 9 8 8 6 6 7 6 7
6 8 12 5 2 1 4 3 8 14 3 16 17 30 31 33 34 26 36 26 36 36 36 34 25 21 17 22 17 18 13 10 11 7 4 5 16 17 11 11 8 4 5 7 8 4 4 5 4
6 6 2 1 6 4 5 3 5 3 5 6 17 29 31 32 38 35 37 23 36 41 32 31 27 22 18 22 22 18 18 15 14 10 7 9 6 11 13 10 8 8 8 3 3 7 5 5 2
3 4 4 1 3 5 5 5 6 7 7 6 10 25 31 37 40 38 39 23 29 35 33 27 30 23 20 21 21 16 16 20 17 13 8 6 9 7 10 13 13 12 10 8 9 7 8 4 2
7 7 6 4 8 3 5 4 9 3 11 6 8 18 30 35 39 40 40 32 37 32 31 26 30 22 24 21 22 19 15 15 13 12 11 9 8 8 7 12 14 12 13 12 7 6 8 7 2

GFSSGP_850_spd_114.txt.gz
Wind_Speed
0 3 8 3 0 3 4 5 9 10 7 18 20 7 14 4 5 4 28 26 23 22 19 19 16 15 15 14 13 14 15 16 16 21 21 21 21 19 19 20 19 18 18 19 19 21 22 23 21
2 7 6 3 3 6 6 10 14 9 18 27 20 21 12 5 20 30 33 24 23 22 20 19 17 15 14 13 13 14 15 17 19 19 19 19 19 17 18 18 17 17 18 19 20 23 23 20 19
2 3 3 3 2 2 8 14 19 22 29 24 10 16 6 10 34 34 27 27 24 22 19 17 15 14 14 14 14 15 16 17 17 17 17 17 18 18 17 17 16 16 17 19 19 20 20 18 20
2 3 4 3 3 4 10 13 26 23 20 31 23 11 14 25 28 31 28 28 23 20 18 17 15 14 14 14 16 16 16 17 18 18 16 16 16 15 15 15 15 14 15 18 18 17 19 18 16
1 1 3 2 3 2 13 25 27 16 19 29 31 14 13 18 30 28 28 25 20 19 17 16 15 15 16 16 17 17 17 18 18 17 16 16 15 14 14 13 13 13 15 17 17 19 19 16 14
2 2 2 3 4 9 14 25 26 22 26 28 26 19 9 32 30 27 22 19 16 16 17 17 17 17 17 18 18 18 18 17 17 16 16 15 15 14 14 14 15 15 17 17 17 19 18 17 14
5 4 4 5 1 12 13 30 23 23 25 14 25 12 20 37 24 25 17 14 16 16 17 18 17 17 16 17 17 17 16 17 16 16 15 15 16 16 17 16 16 16 18 19 18 18 18 17 12
6 4 3 4 2 7 12 15 26 35 10 28 35 12 13 31 29 24 20 21 20 16 15 17 16 17 18 18 18 18 17 17 17 17 16 17 18 18 19 18 18 17 17 19 20 19 18 16 13
8 3 4 2 4 3 17 21 10 21 35 21 9 29 33 33 32 28 24 22 21 20 17 17 16 18 18 20 20 18 18 19 19 19 18 17 16 18 17 17 19 19 18 16 16 17 18 15 11
4 1 3 4 6 6 16 17 21 18 23 16 25 28 34 34 39 30 27 25 20 22 19 14 17 17 19 20 20 20 18 18 20 20 20 18 18 17 16 15 15 14 10 6 10 14 15 15 13
4 2 3 9 4 12 10 20 22 23 14 28 37 38 39 38 37 29 24 20 21 21 20 19 19 21 19 21 22 18 19 17 16 15 15 18 18 15 15 13 11 6 6 7 12 9 8 10 11
7 12 10 7 6 4 14 19 21 27 18 35 36 36 36 37 33 30 26 24 21 21 20 19 19 19 16 20 16 18 18 16 17 14 14 15 13 10 8 12 7 10 6 10 6 7 7 6 6
8 17 18 12 13 13 22 12 9 15 34 36 35 37 40 38 33 26 22 22 22 23 21 20 15 15 14 15 16 17 16 14 14 12 14 15 10 7 7 10 13 11 7 7 13 10 12 8 6
11 16 16 11 14 9 7 10 16 27 32 34 37 38 37 33 34 27 26 26 26 21 19 19 18 12 11 12 18 15 11 11 10 8 7 10 11 7 6 10 12 8 7 4 3 3 3 3 5
15 7 5 4 1 6 7 11 14 33 32 26 34 34 31 33 32 30 29 27 26 21 22 19 19 14 11 14 18 15 13 11 7 9 9 7 9 7 6 4 4 2 3 8 3 1 2 6 7
5 5 4 4 4 5 3 7 22 35 30 23 31 24 24 33 30 32 30 29 26 24 20 18 18 16 15 15 18 12 13 12 8 10 11 8 6 6 4 1 3 3 10 4 3 3 2 3 11
5 4 4 2 10 5 6 4 14 30 29 25 27 24 31 35 30 33 32 28 27 20 18 18 21 19 17 19 19 14 12 10 10 9 7 8 7 7 4 4 5 3 1 5 6 9 5 2 0
5 5 2 4 3 4 6 2 4 25 29 28 27 24 30 31 34 30 32 31 24 18 18 14 24 20 18 17 24 15 14 11 10 9 6 7 8 4 5 7 3 4 6 5 6 6 6 5 2
9 7 5 4 1 4 2 11 6 10 2 20 30 24 31 35 35 34 34 32 25 20 21 16 19 23 23 21 18 18 14 11 9 7 4 7 11 5 6 4 6 4 3 2 6 5 7 5 4
8 12 3 3 4 2 3 11 4 8 6 6 2 26 36 34 35 38 36 32 25 23 20 20 20 24 22 18 14 14 14 10 9 8 7 5 4 7 5 10 7 8 3 2 4 5 6 7 6
10 7 5 3 5 5 3 3 4 2 8 10 6 6 32 38 38 38 38 32 24 23 23 24 23 19 18 20 15 13 13 13 11 10 6 8 5 7 4 7 4 6 4 4 3 5 6 6 1
6 9 13 7 2 3 4 3 5 6 10 9 15 5 24 38 37 39 38 32 27 22 25 22 22 18 21 21 17 14 15 13 10 10 10 12 7 4 4 4 3 7 3 4 3 4 7 6 8
6 13 12 6 4 2 5 4 5 4 11 14 16 15 15 34 39 40 41 33 27 22 25 25 23 19 22 19 16 15 16 16 13 13 12 12 11 9 6 1 7 4 4 6 6 3 2 5 8
18 13 11 5 3 2 6 2 7 5 12 18 15 23 20 27 33 40 40 33 29 23 23 26 26 22 23 23 17 19 14 15 13 11 12 12 13 14 11 9 7 6 9 6 7 6 2 1 4
15 6 3 0 1 5 5 4 8 7 9 17 20 25 28 25 33 37 39 37 33 29 26 23 26 25 26 26 19 18 18 16 13 12 14 13 15 14 17 12 11 7 7 8 5 8 8 6 3
14 6 6 4 2 2 6 5 6 11 10 26 37 33 32 29 32 34 35 39 36 33 29 24 23 27 24 27 24 20 18 15 12 15 14 15 15 12 13 15 11 7 8 10 9 8 7 6 5
6 5 7 6 2 3 4 5 9 8 2 14 23 25 27 38 35 34 32 36 37 38 33 26 23 25 23 26 25 23 19 16 15 15 11 12 9 11 12 16 9 8 9 8 8 7 10 7 6
12 7 3 2 5 4 4 4 7 4 10 10 10 16 26 30 37 33 35 32 35 36 36 29 24 24 21 22 26 23 22 18 16 14 11 9 7 12 15 14 12 11 8 3 7 9 9 7 6
1 1 3 4 4 5 3 6 7 9 8 15 22 27 31 34 40 39 39 43 32 35 38 35 29 28 25 21 24 23 22 21 19 15 11 8 8 9 11 15 14 14 12 9 10 7 10 8 7
3 2 4 5 5 2 4 5 6 7 4 12 12 30 33 37 42 44 38 37 35 35 36 39 33 31 27 24 22 24 22 22 20 19 15 12 9 10 8 15 15 14 11 12 11 10 11 12 8

GFSSGP_850_spd_117.txt.gz
Wind_Speed
2 1 5 3 2 3 3 2 4 8 6 10 18 9 6 6 4 4 27 23 22 19 15 14 14 12 13 13 13 14 14 15 16 17 17 17 17 17 16 16 15 14 13 15 17 18 18 18 18
2 3 3 1 4 4 2 2 7 8 12 18 9 22 8 4 12 26 31 22 20 17 16 14 12 12 12 12 13 14 14 17 19 18 15 15 15 15 16 14 14 13 13 14 16 17 16 15 14
2 3 1 3 2 3 5 1 7 12 18 9 6 12 6 3 23 36 26 23 20 18 17 14 13 12 12 12 13 14 15 16 17 16 15 14 14 13 14 14 13 12 13 15 18 15 14 13 12
4 0 3 3 3 4 6 8 17 15 11 8 17 8 13 16 27 24 25 22 21 19 16 15 12 12 12 12 14 15 15 16 14 14 13 13 13 13 12 13 13 13 13 14 14 12 13 11 13
3 3 3 3 2 5 6 16 14 8 5 14 11 9 11 12 18 24 24 22 20 18 15 13 12 11 11 14 14 16 15 15 14 13 13 13 12 11 10 11 12 13 12 11 13 12 12 11 11
2 2 3 3 4 6 10 21 16 14 13 17 17 15 4 17 23 24 23 20 17 15 14 14 13 13 14 15 15 16 16 15 14 14 13 13 13 12 11 13 14 14 13 12 14 13 10 10 10
4 2 2 3 5 6 6 19 16 18 17 8 22 5 13 25 22 24 20 16 17 14 14 14 14 14 15 15 15 15 15 15 14 14 13 13 14 14 14 14 14 13 13 13 15 13 12 8 8
4 3 2 2 6 5 8 6 16 24 7 21 28 6 12 26 24 20 17 17 16 13 14 15 16 16 16 16 16 15 14 14 14 14 16 16 16 15 16 16 15 14 13 12 12 12 11 7 8
4 4 1 3 8 2 12 11 15 5 24 14 2 27 31 28 25 20 20 19 17 15 15 14 15 15 15 16 16 14 15 15 14 15 15 16 15 16 16 17 18 17 15 14 12 11 11 7 4
4 2 2 4 2 3 14 20 20 13 17 19 23 26 29 30 28 25 23 21 20 18 17 15 16 16 17 17 16 15 15 15 16 17 16 14 14 15 16 15 16 13 12 11 9 8 7 6 3
2 5 4 5 3 4 4 7 19 27 12 29 33 34 32 30 30 25 23 19 19 19 16 17 17 17 16 15 17 16 17 16 15 16 15 15 14 13 12 10 8 6 6 7 9 9 7 4 3
5 4 9 2 1 3 2 10 6 27 13 34 34 38 37 35 31 23 23 22 22 21 19 20 19 18 18 20 18 17 15 14 13 13 13 13 13 11 7 5 4 4 6 8 8 8 5 4 4
3 9 9 4 8 6 9 9 5 13 30 33 34 33 36 36 29 22 18 22 20 23 22 23 19 19 19 15 17 15 14 13 13 14 13 10 8 7 4 4 6 3 3 7 6 7 7 5 4
8 8 5 1 6 10 7 6 12 15 33 37 38 37 37 37 31 26 23 22 20 21 21 21 17 15 15 14 15 15 13 11 10 8 9 7 8 8 10 9 8 6 7 6 6 5 3 4 5
17 7 7 7 2 6 10 4 9 30 36 38 36 35 32 38 32 27 22 22 22 20 21 20 17 14 13 14 13 11 11 9 8 7 10 8 6 7 7 7 5 5 3 5 3 3 3 3 4
2 6 3 6 9 7 9 4 13 36 33 31 29 30 33 36 34 27 23 22 23 23 22 19 16 12 11 16 14 12 11 8 9 7 7 8 9 7 7 8 8 9 7 7 5 4 4 5 6
6 6 4 2 8 5 3 5 14 27 31 31 29 29 35 31 31 30 24 24 25 23 21 21 18 17 15 21 15 14 12 9 10 5 6 5 6 6 6 7 7 5 6 6 6 8 6 5 2
4 7 4 3 3 3 4 5 6 18 21 28 29 32 31 34 36 31 29 26 26 25 21 19 20 18 17 19 15 12 13 12 11 9 7 7 4 2 4 4 3 3 4 4 5 6 3 4 2
5 9 6 2 6 1 3 3 6 3 4 8 23 30 31 36 35 34 32 28 26 26 24 23 25 21 18 18 19 14 15 12 9 7 6 6 6 2 4 2 5 5 2 1 5 6 6 1 3
8 9 5 3 2 2 7 9 0 5 3 3 1 20 32 33 33 36 36 32 29 26 25 25 27 25 19 19 21 15 13 11 7 7 7 7 6 6 4 5 7 5 1 3 1 4 3 3 0
2 5 7 5 3 2 4 5 5 5 7 4 5 11 30 37 39 38 41 36 31 28 26 25 29 28 25 21 18 18 14 12 13 11 9 8 6 5 4 7 4 7 4 5 3 4 1 1 3
5 1 7 12 4 2 2 2 7 11 7 4 11 10 24 40 42 39 41 39 34 29 25 24 25 27 26 21 17 18 16 15 13 12 9 9 8 7 5 6 7 7 5 5 5 1 4 3 1
3 11 9 4 4 1 4 0 4 8 9 11 12 18 21 39 44 43 43 39 33 28 27 26 26 25 23 24 20 18 16 15 11 12 11 12 10 9 8 4 8 6 4 6 6 3 1 2 3
14 10 4 3 4 3 5 4 5 7 14 14 15 24 20 36 44 43 41 39 33 28 28 28 26 24 23 25 23 19 16 16 14 13 13 13 13 13 11 9 7 9 7 6 8 8 5 3 0
6 4 3 4 2 4 0 3 8 13 12 23 22 25 26 33 45 45 44 41 35 32 28 30 29 27 25 26 23 20 19 16 14 15 14 14 12 15 16 14 13 10 8 10 8 9 9 7 5
9 5 6 2 2 3 2 5 6 10 20 30 32 38 33 30 44 47 45 43 39 34 29 29 31 30 28 29 28 21 21 19 16 15 15 14 16 13 15 19 14 11 11 9 10 8 10 9 9
5 4 2 7 2 0 3 5 8 5 5 10 19 28 40 36 38 47 45 45 42 36 33 28 26 29 30 28 28 29 21 20 19 12 12 12 13 13 16 15 16 13 11 10 10 12 11 11 9
5 7 3 2 4 4 3 5 6 2 8 6 16 31 31 39 36 41 43 45 43 39 33 30 26 24 27 26 27 27 24 21 18 17 14 11 10 13 16 14 14 13 11 10 11 11 9 10 9
2 2 3 4 4 4 1 5 6 7 7 8 7 22 33 35 37 38 37 40 43 41 36 33 30 28 25 24 25 27 26 23 20 18 15 13 11 13 13 14 14 14 14 11 8 8 10 11 10
7 3 4 4 3 1 3 3 9 10 9 11 5 9 18 41 38 40 39 39 39 41 37 37 34 30 27 24 24 25 26 25 23 21 18 14 9 9 11 13 14 16 15 15 11 9 10 11 11

GFSSGP_850_spd_120.txt.gz
Wind_Speed
2 2 5 3 4 5 2 3 5 8 6 8 17 8 5 7 1 4 23 22 25 17 14 12 11 12 12 12 12 12 14 15 17 18 17 16 15 15 13 14 13 11 12 14 15 16 16 16 15
2 3 3 2 5 4 3 2 5 6 8 17 10 13 5 4 8 26 26 26 19 13 13 12 11 11 11 11 12 12 16 15 17 15 16 14 13 13 12 11 11 12 13 13 14 14 14 13 14
3 3 2 3 3 3 4 2 6 11 16 11 6 11 4 2 19 32 27 23 17 13 12 10 9 9 10 11 12 13 16 15 14 14 14 13 13 12 13 12 9 10 13 14 13 12 14 14 13
2 1 0 4 4 2 4 5 18 9 13 8 15 8 7 10 26 22 23 19 16 13 11 10 8 8 9 11 12 13 14 14 13 13 13 13 13 12 11 11 11 12 14 13 11 12 13 15 15
1 1 3 4 2 2 5 12 10 4 6 12 7 5 9 11 14 21 19 17 14 13 11 9 8 7 10 12 13 13 13 12 12 12 12 12 11 11 10 11 12 11 12 11 11 12 12 12 14
1 1 4 3 2 3 4 8 10 9 14 15 15 15 4 7 18 21 19 17 14 11 11 9 8 9 11 12 13 12 13 12 12 12 12 12 11 11 10 12 13 10 11 12 12 10 12 12 14
3 3 3 2 5 3 3 8 5 6 14 9 18 5 9 15 20 20 17 15 12 10 11 11 9 11 11 12 13 12 12 11 11 11 12 12 11 12 13 13 12 11 11 12 11 10 11 11 11
2 2 3 2 5 2 7 4 11 10 7 19 20 6 9 23 21 20 16 14 12 11 10 12 12 12 14 13 13 13 12 12 11 12 13 13 13 12 13 14 14 12 12 12 10 8 8 10 10
1 2 3 3 5 3 14 6 15 7 18 9 2 24 26 25 23 19 16 15 13 13 12 14 13 13 13 13 13 12 12 13 13 13 13 14 15 16 17 16 15 14 13 11 10 8 6 6 8
4 3 1 3 3 2 6 11 6 9 12 10 22 25 26 27 22 21 20 18 17 16 15 14 14 14 14 13 12 12 12 14 14 14 14 14 16 18 16 14 13 11 10 9 9 9 7 7 7
2 3 4 10 8 7 3 10 4 20 4 14 31 32 30 26 22 20 19 17 16 16 16 16 14 13 12 12 14 13 14 15 14 15 13 14 13 13 11 9 7 7 6 8 7 7 5 4 4
2 4 7 4 7 5 4 1 7 14 5 28 32 32 31 27 23 20 17 17 19 17 16 16 15 15 14 15 14 14 14 14 13 13 13 12 11 9 5 3 6 8 9 9 7 7 5 3 3
2 2 8 5 4 6 8 5 4 13 15 29 29 31 30 27 22 17 15 17 17 17 18 17 17 16 17 15 14 13 13 13 12 13 11 9 8 6 3 3 6 7 7 7 8 7 6 5 5
5 9 8 6 2 6 6 3 10 14 24 29 30 31 28 27 25 20 19 19 18 19 21 18 18 18 16 15 12 12 13 16 15 12 11 9 8 7 9 6 9 9 8 6 5 4 4 5 6
12 5 5 2 2 2 10 6 7 26 31 33 32 31 29 29 26 23 21 22 20 21 22 20 19 16 13 14 13 12 12 12 9 9 8 9 7 9 9 7 7 6 7 5 3 3 3 4 6
3 3 1 6 3 4 5 5 5 34 34 29 29 30 30 32 28 23 20 20 21 21 22 21 17 14 13 13 12 10 9 8 9 8 8 8 7 8 8 8 9 8 5 6 7 6 8 7 7
5 2 4 3 6 4 2 3 9 31 32 27 27 29 29 29 27 24 23 20 22 22 22 21 17 14 14 14 11 9 8 6 10 8 8 8 8 8 9 10 9 7 7 7 9 8 8 7 6
3 3 3 3 4 1 5 5 9 21 25 28 25 27 26 30 32 28 24 23 23 24 22 19 16 15 15 18 14 13 9 8 9 6 8 7 5 5 8 8 6 7 5 6 6 6 4 5 3
6 6 4 3 2 5 3 4 8 8 13 17 21 25 29 33 33 30 26 24 25 24 23 20 20 18 18 21 18 14 13 10 8 6 4 7 6 2 3 3 5 5 3 3 4 4 5 2 4
4 7 4 2 11 5 3 6 3 3 2 12 23 25 31 32 32 32 30 27 26 26 24 22 22 21 19 18 16 14 13 11 10 8 5 7 6 3 2 3 6 5 2 1 1 1 2 1 1
4 2 3 1 6 2 5 4 5 4 5 5 13 27 31 35 36 35 33 31 28 28 27 25 24 23 19 16 19 16 15 12 10 10 8 7 6 6 4 4 4 5 4 3 4 2 1 1 2
6 3 7 8 3 2 2 2 8 10 7 6 14 17 32 36 37 37 36 33 31 28 26 26 26 26 22 19 18 18 17 15 11 12 10 9 8 7 5 5 4 4 4 4 6 2 2 1 2
2 8 7 3 3 3 4 2 3 12 14 13 15 19 25 36 40 38 38 35 33 29 26 24 26 29 27 24 19 20 17 14 13 11 11 10 8 8 9 5 7 6 6 6 6 4 3 1 1
11 6 4 3 2 1 4 4 4 7 21 18 16 22 26 34 40 41 38 35 35 31 27 25 24 25 28 26 21 19 18 16 16 14 12 12 11 9 10 9 6 8 6 5 7 7 6 4 2
3 6 2 3 3 3 5 3 9 7 14 25 24 25 27 34 40 41 39 38 37 33 29 28 28 27 28 26 24 22 18 17 16 15 13 14 14 14 12 12 11 9 9 9 8 8 10 8 7
5 6 5 4 2 4 4 6 5 7 14 32 33 33 31 34 39 45 43 41 39 35 31 29 30 29 29 26 25 24 19 17 15 14 13 14 14 14 14 16 15 12 10 12 12 10 9 11 10
5 3 3 5 3 2 4 6 5 3 6 13 24 25 35 39 45 46 46 43 39 37 33 30 29 29 29 27 25 26 21 17 18 16 14 17 17 16 16 16 16 17 13 13 14 14 12 11 11
5 5 2 2 5 4 5 2 4 10 8 7 12 23 29 33 42 42 46 46 41 38 34 30 28 25 26 28 27 27 27 22 17 17 17 15 12 13 13 16 14 17 15 14 15 13 13 11 11
2 1 2 2 3 4 2 2 6 12 8 6 5 13 21 31 40 44 46 47 42 39 36 33 30 28 25 25 26 26 27 25 22 20 16 15 12 12 13 15 18 16 17 15 13 13 13 11 11
5 4 5 4 3 1 2 3 8 10 10 4 5 7 17 31 38 40 43 46 44 41 40 36 33 30 27 22 21 23 23 25 25 21 17 16 14 12 12 17 17 17 18 17 16 13 11 10 12